<?xml version="1.0" encoding="UTF-8" standalone="no" ?>
<gpx xmlns="http://www.topografix.com/GPX/1/1" xmlns:xsi="http://www.w3.org/2001/XMLSchema-instance" xsi:schemaLocation="http://www.topografix.com/GPX/1/1 http://www.topografix.com/GPX/1/1/gpx.xsd" version="1.1" creator="VisuGPX - https://www.visugpx.com">
  <metadata>
    <name>Pic Cassini</name>
    <desc><![CDATA[Le Pic Cassini en Lozere au départ du Mas Camargue et retour par les sources du Tarn]]></desc>
  </metadata>
  <trk>
    <name><![CDATA[17-MAI-17 15:17:22]]></name>
    <trkseg>
      <trkpt lat="44.38685" lon="3.81892">
        <ele>1359.92</ele>
        <time>2017-05-17T07:34:23Z</time>
      </trkpt>
      <trkpt lat="44.38685" lon="3.81892">
        <ele>1360.4</ele>
        <time>2017-05-17T07:34:55Z</time>
      </trkpt>
      <trkpt lat="44.38685" lon="3.81892">
        <ele>1360.4</ele>
        <time>2017-05-17T07:35:26Z</time>
      </trkpt>
      <trkpt lat="44.38685" lon="3.81892">
        <ele>1360.4</ele>
        <time>2017-05-17T07:35:53Z</time>
      </trkpt>
      <trkpt lat="44.38685" lon="3.81892">
        <ele>1360.4</ele>
        <time>2017-05-17T07:36:12Z</time>
      </trkpt>
      <trkpt lat="44.38684" lon="3.81892">
        <ele>1359.92</ele>
        <time>2017-05-17T07:36:35Z</time>
      </trkpt>
      <trkpt lat="44.38684" lon="3.81893">
        <ele>1359.92</ele>
        <time>2017-05-17T07:37:08Z</time>
      </trkpt>
      <trkpt lat="44.38684" lon="3.81892">
        <ele>1359.92</ele>
        <time>2017-05-17T07:37:40Z</time>
      </trkpt>
      <trkpt lat="44.38684" lon="3.81892">
        <ele>1359.44</ele>
        <time>2017-05-17T07:38:08Z</time>
      </trkpt>
      <trkpt lat="44.38685" lon="3.81892">
        <ele>1359.44</ele>
        <time>2017-05-17T07:38:44Z</time>
      </trkpt>
      <trkpt lat="44.38684" lon="3.81891">
        <ele>1359.92</ele>
        <time>2017-05-17T07:39:20Z</time>
      </trkpt>
      <trkpt lat="44.38684" lon="3.81891">
        <ele>1358.96</ele>
        <time>2017-05-17T07:39:43Z</time>
      </trkpt>
      <trkpt lat="44.38685" lon="3.81891">
        <ele>1360.4</ele>
        <time>2017-05-17T07:39:56Z</time>
      </trkpt>
      <trkpt lat="44.38685" lon="3.81891">
        <ele>1359.92</ele>
        <time>2017-05-17T07:40:11Z</time>
      </trkpt>
      <trkpt lat="44.3869" lon="3.81894">
        <ele>1360.88</ele>
        <time>2017-05-17T07:40:20Z</time>
      </trkpt>
      <trkpt lat="44.38692" lon="3.81895">
        <ele>1360.88</ele>
        <time>2017-05-17T07:40:23Z</time>
      </trkpt>
      <trkpt lat="44.38709" lon="3.81899">
        <ele>1361.36</ele>
        <time>2017-05-17T07:40:37Z</time>
      </trkpt>
      <trkpt lat="44.38712" lon="3.81901">
        <ele>1362.33</ele>
        <time>2017-05-17T07:40:48Z</time>
      </trkpt>
      <trkpt lat="44.38718" lon="3.81904">
        <ele>1362.33</ele>
        <time>2017-05-17T07:40:56Z</time>
      </trkpt>
      <trkpt lat="44.3872" lon="3.81922">
        <ele>1363.77</ele>
        <time>2017-05-17T07:41:08Z</time>
      </trkpt>
      <trkpt lat="44.38721" lon="3.81945">
        <ele>1362.81</ele>
        <time>2017-05-17T07:41:22Z</time>
      </trkpt>
      <trkpt lat="44.38721" lon="3.8196">
        <ele>1363.29</ele>
        <time>2017-05-17T07:41:33Z</time>
      </trkpt>
      <trkpt lat="44.38706" lon="3.81977">
        <ele>1364.25</ele>
        <time>2017-05-17T07:41:48Z</time>
      </trkpt>
      <trkpt lat="44.38687" lon="3.81997">
        <ele>1364.73</ele>
        <time>2017-05-17T07:42:01Z</time>
      </trkpt>
      <trkpt lat="44.38679" lon="3.82004">
        <ele>1365.21</ele>
        <time>2017-05-17T07:42:07Z</time>
      </trkpt>
      <trkpt lat="44.38676" lon="3.82005">
        <ele>1365.21</ele>
        <time>2017-05-17T07:42:09Z</time>
      </trkpt>
      <trkpt lat="44.38661" lon="3.8202">
        <ele>1366.65</ele>
        <time>2017-05-17T07:42:23Z</time>
      </trkpt>
      <trkpt lat="44.38659" lon="3.82021">
        <ele>1366.65</ele>
        <time>2017-05-17T07:42:25Z</time>
      </trkpt>
      <trkpt lat="44.38647" lon="3.82033">
        <ele>1367.61</ele>
        <time>2017-05-17T07:42:37Z</time>
      </trkpt>
      <trkpt lat="44.38643" lon="3.82041">
        <ele>1368.09</ele>
        <time>2017-05-17T07:42:43Z</time>
      </trkpt>
      <trkpt lat="44.38628" lon="3.82061">
        <ele>1368.57</ele>
        <time>2017-05-17T07:42:59Z</time>
      </trkpt>
      <trkpt lat="44.38617" lon="3.8208">
        <ele>1369.05</ele>
        <time>2017-05-17T07:43:13Z</time>
      </trkpt>
      <trkpt lat="44.38603" lon="3.82093">
        <ele>1369.54</ele>
        <time>2017-05-17T07:43:27Z</time>
      </trkpt>
      <trkpt lat="44.3859" lon="3.82098">
        <ele>1370.5</ele>
        <time>2017-05-17T07:43:38Z</time>
      </trkpt>
      <trkpt lat="44.38586" lon="3.821">
        <ele>1370.5</ele>
        <time>2017-05-17T07:43:42Z</time>
      </trkpt>
      <trkpt lat="44.3857" lon="3.82109">
        <ele>1370.98</ele>
        <time>2017-05-17T07:43:56Z</time>
      </trkpt>
      <trkpt lat="44.38556" lon="3.82118">
        <ele>1372.42</ele>
        <time>2017-05-17T07:44:09Z</time>
      </trkpt>
      <trkpt lat="44.38554" lon="3.8212">
        <ele>1372.42</ele>
        <time>2017-05-17T07:44:11Z</time>
      </trkpt>
      <trkpt lat="44.38549" lon="3.82131">
        <ele>1373.38</ele>
        <time>2017-05-17T07:44:22Z</time>
      </trkpt>
      <trkpt lat="44.38556" lon="3.82134">
        <ele>1373.86</ele>
        <time>2017-05-17T07:44:29Z</time>
      </trkpt>
      <trkpt lat="44.38563" lon="3.82134">
        <ele>1373.86</ele>
        <time>2017-05-17T07:44:35Z</time>
      </trkpt>
      <trkpt lat="44.38568" lon="3.82137">
        <ele>1374.34</ele>
        <time>2017-05-17T07:44:40Z</time>
      </trkpt>
      <trkpt lat="44.38571" lon="3.82143">
        <ele>1375.78</ele>
        <time>2017-05-17T07:44:54Z</time>
      </trkpt>
      <trkpt lat="44.38573" lon="3.82142">
        <ele>1376.26</ele>
        <time>2017-05-17T07:44:56Z</time>
      </trkpt>
      <trkpt lat="44.3858" lon="3.82148">
        <ele>1376.75</ele>
        <time>2017-05-17T07:45:10Z</time>
      </trkpt>
      <trkpt lat="44.38577" lon="3.8215">
        <ele>1376.26</ele>
        <time>2017-05-17T07:45:30Z</time>
      </trkpt>
      <trkpt lat="44.38577" lon="3.8215">
        <ele>1376.26</ele>
        <time>2017-05-17T07:45:53Z</time>
      </trkpt>
      <trkpt lat="44.38579" lon="3.82145">
        <ele>1375.78</ele>
        <time>2017-05-17T07:46:00Z</time>
      </trkpt>
      <trkpt lat="44.38579" lon="3.82147">
        <ele>1376.26</ele>
        <time>2017-05-17T07:46:05Z</time>
      </trkpt>
      <trkpt lat="44.38576" lon="3.82146">
        <ele>1375.78</ele>
        <time>2017-05-17T07:46:09Z</time>
      </trkpt>
      <trkpt lat="44.38569" lon="3.82142">
        <ele>1374.82</ele>
        <time>2017-05-17T07:46:22Z</time>
      </trkpt>
      <trkpt lat="44.38569" lon="3.82142">
        <ele>1374.34</ele>
        <time>2017-05-17T07:46:25Z</time>
      </trkpt>
      <trkpt lat="44.38566" lon="3.82138">
        <ele>1373.86</ele>
        <time>2017-05-17T07:46:28Z</time>
      </trkpt>
      <trkpt lat="44.3856" lon="3.82136">
        <ele>1372.9</ele>
        <time>2017-05-17T07:46:41Z</time>
      </trkpt>
      <trkpt lat="44.38561" lon="3.82136">
        <ele>1372.9</ele>
        <time>2017-05-17T07:46:48Z</time>
      </trkpt>
      <trkpt lat="44.38563" lon="3.82136">
        <ele>1372.9</ele>
        <time>2017-05-17T07:46:50Z</time>
      </trkpt>
      <trkpt lat="44.38565" lon="3.82138">
        <ele>1373.38</ele>
        <time>2017-05-17T07:46:52Z</time>
      </trkpt>
      <trkpt lat="44.38568" lon="3.8214">
        <ele>1373.38</ele>
        <time>2017-05-17T07:46:56Z</time>
      </trkpt>
      <trkpt lat="44.38569" lon="3.82142">
        <ele>1373.86</ele>
        <time>2017-05-17T07:47:04Z</time>
      </trkpt>
      <trkpt lat="44.38573" lon="3.82142">
        <ele>1374.34</ele>
        <time>2017-05-17T07:47:15Z</time>
      </trkpt>
      <trkpt lat="44.38577" lon="3.82144">
        <ele>1374.82</ele>
        <time>2017-05-17T07:47:19Z</time>
      </trkpt>
      <trkpt lat="44.38578" lon="3.82151">
        <ele>1375.3</ele>
        <time>2017-05-17T07:47:30Z</time>
      </trkpt>
      <trkpt lat="44.38577" lon="3.82151">
        <ele>1375.3</ele>
        <time>2017-05-17T07:47:42Z</time>
      </trkpt>
      <trkpt lat="44.38573" lon="3.82149">
        <ele>1374.82</ele>
        <time>2017-05-17T07:47:53Z</time>
      </trkpt>
      <trkpt lat="44.38569" lon="3.8214">
        <ele>1373.38</ele>
        <time>2017-05-17T07:48:02Z</time>
      </trkpt>
      <trkpt lat="44.38568" lon="3.82139">
        <ele>1372.9</ele>
        <time>2017-05-17T07:48:03Z</time>
      </trkpt>
      <trkpt lat="44.38563" lon="3.82139">
        <ele>1372.42</ele>
        <time>2017-05-17T07:48:15Z</time>
      </trkpt>
      <trkpt lat="44.3856" lon="3.82137">
        <ele>1372.42</ele>
        <time>2017-05-17T07:48:17Z</time>
      </trkpt>
      <trkpt lat="44.38543" lon="3.82139">
        <ele>1371.46</ele>
        <time>2017-05-17T07:48:31Z</time>
      </trkpt>
      <trkpt lat="44.38527" lon="3.82152">
        <ele>1371.94</ele>
        <time>2017-05-17T07:48:47Z</time>
      </trkpt>
      <trkpt lat="44.38522" lon="3.8216">
        <ele>1372.42</ele>
        <time>2017-05-17T07:48:53Z</time>
      </trkpt>
      <trkpt lat="44.38514" lon="3.82176">
        <ele>1372.42</ele>
        <time>2017-05-17T07:49:04Z</time>
      </trkpt>
      <trkpt lat="44.38513" lon="3.8218">
        <ele>1372.9</ele>
        <time>2017-05-17T07:49:07Z</time>
      </trkpt>
      <trkpt lat="44.3851" lon="3.82186">
        <ele>1372.9</ele>
        <time>2017-05-17T07:49:11Z</time>
      </trkpt>
      <trkpt lat="44.38506" lon="3.82194">
        <ele>1373.38</ele>
        <time>2017-05-17T07:49:17Z</time>
      </trkpt>
      <trkpt lat="44.38501" lon="3.82207">
        <ele>1374.34</ele>
        <time>2017-05-17T07:49:26Z</time>
      </trkpt>
      <trkpt lat="44.38493" lon="3.8222">
        <ele>1374.34</ele>
        <time>2017-05-17T07:49:35Z</time>
      </trkpt>
      <trkpt lat="44.38488" lon="3.82226">
        <ele>1374.82</ele>
        <time>2017-05-17T07:49:41Z</time>
      </trkpt>
      <trkpt lat="44.38483" lon="3.82233">
        <ele>1375.3</ele>
        <time>2017-05-17T07:49:47Z</time>
      </trkpt>
      <trkpt lat="44.38481" lon="3.82237">
        <ele>1375.78</ele>
        <time>2017-05-17T07:49:50Z</time>
      </trkpt>
      <trkpt lat="44.38471" lon="3.82257">
        <ele>1376.75</ele>
        <time>2017-05-17T07:50:04Z</time>
      </trkpt>
      <trkpt lat="44.38465" lon="3.8227">
        <ele>1377.71</ele>
        <time>2017-05-17T07:50:14Z</time>
      </trkpt>
      <trkpt lat="44.38467" lon="3.82292">
        <ele>1378.19</ele>
        <time>2017-05-17T07:50:29Z</time>
      </trkpt>
      <trkpt lat="44.38468" lon="3.82294">
        <ele>1378.67</ele>
        <time>2017-05-17T07:50:30Z</time>
      </trkpt>
      <trkpt lat="44.38471" lon="3.82317">
        <ele>1379.63</ele>
        <time>2017-05-17T07:50:44Z</time>
      </trkpt>
      <trkpt lat="44.38471" lon="3.82326">
        <ele>1379.63</ele>
        <time>2017-05-17T07:50:50Z</time>
      </trkpt>
      <trkpt lat="44.3847" lon="3.82344">
        <ele>1380.59</ele>
        <time>2017-05-17T07:51:01Z</time>
      </trkpt>
      <trkpt lat="44.3847" lon="3.82351">
        <ele>1380.59</ele>
        <time>2017-05-17T07:51:05Z</time>
      </trkpt>
      <trkpt lat="44.38463" lon="3.82378">
        <ele>1382.03</ele>
        <time>2017-05-17T07:51:21Z</time>
      </trkpt>
      <trkpt lat="44.38456" lon="3.82385">
        <ele>1382.03</ele>
        <time>2017-05-17T07:51:27Z</time>
      </trkpt>
      <trkpt lat="44.38449" lon="3.8239">
        <ele>1382.51</ele>
        <time>2017-05-17T07:51:33Z</time>
      </trkpt>
      <trkpt lat="44.38444" lon="3.82395">
        <ele>1382.03</ele>
        <time>2017-05-17T07:51:38Z</time>
      </trkpt>
      <trkpt lat="44.38439" lon="3.82405">
        <ele>1382.51</ele>
        <time>2017-05-17T07:51:45Z</time>
      </trkpt>
      <trkpt lat="44.38428" lon="3.82425">
        <ele>1383.47</ele>
        <time>2017-05-17T07:51:59Z</time>
      </trkpt>
      <trkpt lat="44.38415" lon="3.82446">
        <ele>1383.96</ele>
        <time>2017-05-17T07:52:14Z</time>
      </trkpt>
      <trkpt lat="44.38415" lon="3.82447">
        <ele>1383.96</ele>
        <time>2017-05-17T07:52:15Z</time>
      </trkpt>
      <trkpt lat="44.38409" lon="3.82454">
        <ele>1384.92</ele>
        <time>2017-05-17T07:52:21Z</time>
      </trkpt>
      <trkpt lat="44.38404" lon="3.82463">
        <ele>1385.88</ele>
        <time>2017-05-17T07:52:27Z</time>
      </trkpt>
      <trkpt lat="44.38401" lon="3.82465">
        <ele>1384.92</ele>
        <time>2017-05-17T07:52:30Z</time>
      </trkpt>
      <trkpt lat="44.38396" lon="3.82472">
        <ele>1384.92</ele>
        <time>2017-05-17T07:52:36Z</time>
      </trkpt>
      <trkpt lat="44.38396" lon="3.82475">
        <ele>1385.4</ele>
        <time>2017-05-17T07:52:38Z</time>
      </trkpt>
      <trkpt lat="44.38386" lon="3.82497">
        <ele>1385.88</ele>
        <time>2017-05-17T07:52:52Z</time>
      </trkpt>
      <trkpt lat="44.38383" lon="3.82505">
        <ele>1385.88</ele>
        <time>2017-05-17T07:52:58Z</time>
      </trkpt>
      <trkpt lat="44.38377" lon="3.82523">
        <ele>1386.84</ele>
        <time>2017-05-17T07:53:10Z</time>
      </trkpt>
      <trkpt lat="44.38373" lon="3.82542">
        <ele>1387.32</ele>
        <time>2017-05-17T07:53:22Z</time>
      </trkpt>
      <trkpt lat="44.38371" lon="3.82567">
        <ele>1387.32</ele>
        <time>2017-05-17T07:53:36Z</time>
      </trkpt>
      <trkpt lat="44.38369" lon="3.82592">
        <ele>1385.88</ele>
        <time>2017-05-17T07:53:50Z</time>
      </trkpt>
      <trkpt lat="44.38366" lon="3.82607">
        <ele>1385.4</ele>
        <time>2017-05-17T07:53:58Z</time>
      </trkpt>
      <trkpt lat="44.38361" lon="3.82638">
        <ele>1384.44</ele>
        <time>2017-05-17T07:54:16Z</time>
      </trkpt>
      <trkpt lat="44.38355" lon="3.82663">
        <ele>1382.99</ele>
        <time>2017-05-17T07:54:30Z</time>
      </trkpt>
      <trkpt lat="44.38355" lon="3.82664">
        <ele>1382.99</ele>
        <time>2017-05-17T07:54:31Z</time>
      </trkpt>
      <trkpt lat="44.38355" lon="3.82674">
        <ele>1382.51</ele>
        <time>2017-05-17T07:54:36Z</time>
      </trkpt>
      <trkpt lat="44.38353" lon="3.827">
        <ele>1381.55</ele>
        <time>2017-05-17T07:54:51Z</time>
      </trkpt>
      <trkpt lat="44.38348" lon="3.82726">
        <ele>1381.07</ele>
        <time>2017-05-17T07:55:06Z</time>
      </trkpt>
      <trkpt lat="44.38344" lon="3.8275">
        <ele>1379.63</ele>
        <time>2017-05-17T07:55:20Z</time>
      </trkpt>
      <trkpt lat="44.38347" lon="3.82778">
        <ele>1378.19</ele>
        <time>2017-05-17T07:55:35Z</time>
      </trkpt>
      <trkpt lat="44.38349" lon="3.8279">
        <ele>1377.23</ele>
        <time>2017-05-17T07:55:42Z</time>
      </trkpt>
      <trkpt lat="44.38348" lon="3.82813">
        <ele>1376.26</ele>
        <time>2017-05-17T07:55:55Z</time>
      </trkpt>
      <trkpt lat="44.38348" lon="3.82821">
        <ele>1375.78</ele>
        <time>2017-05-17T07:55:59Z</time>
      </trkpt>
      <trkpt lat="44.38347" lon="3.82832">
        <ele>1375.78</ele>
        <time>2017-05-17T07:56:05Z</time>
      </trkpt>
      <trkpt lat="44.38345" lon="3.82844">
        <ele>1375.78</ele>
        <time>2017-05-17T07:56:11Z</time>
      </trkpt>
      <trkpt lat="44.38344" lon="3.82851">
        <ele>1375.3</ele>
        <time>2017-05-17T07:56:15Z</time>
      </trkpt>
      <trkpt lat="44.38337" lon="3.82884">
        <ele>1375.3</ele>
        <time>2017-05-17T07:56:32Z</time>
      </trkpt>
      <trkpt lat="44.38327" lon="3.82909">
        <ele>1374.82</ele>
        <time>2017-05-17T07:56:47Z</time>
      </trkpt>
      <trkpt lat="44.38318" lon="3.82929">
        <ele>1374.82</ele>
        <time>2017-05-17T07:57:00Z</time>
      </trkpt>
      <trkpt lat="44.38302" lon="3.82943">
        <ele>1375.3</ele>
        <time>2017-05-17T07:57:14Z</time>
      </trkpt>
      <trkpt lat="44.38296" lon="3.82948">
        <ele>1375.3</ele>
        <time>2017-05-17T07:57:20Z</time>
      </trkpt>
      <trkpt lat="44.38291" lon="3.82955">
        <ele>1375.3</ele>
        <time>2017-05-17T07:57:25Z</time>
      </trkpt>
      <trkpt lat="44.38276" lon="3.82972">
        <ele>1375.3</ele>
        <time>2017-05-17T07:57:39Z</time>
      </trkpt>
      <trkpt lat="44.38268" lon="3.82979">
        <ele>1375.3</ele>
        <time>2017-05-17T07:57:46Z</time>
      </trkpt>
      <trkpt lat="44.38262" lon="3.8299">
        <ele>1374.82</ele>
        <time>2017-05-17T07:57:54Z</time>
      </trkpt>
      <trkpt lat="44.38247" lon="3.83009">
        <ele>1374.82</ele>
        <time>2017-05-17T07:58:09Z</time>
      </trkpt>
      <trkpt lat="44.38245" lon="3.8301">
        <ele>1374.82</ele>
        <time>2017-05-17T07:58:12Z</time>
      </trkpt>
      <trkpt lat="44.38241" lon="3.83018">
        <ele>1375.3</ele>
        <time>2017-05-17T07:58:17Z</time>
      </trkpt>
      <trkpt lat="44.38225" lon="3.8304">
        <ele>1374.82</ele>
        <time>2017-05-17T07:58:33Z</time>
      </trkpt>
      <trkpt lat="44.38215" lon="3.83054">
        <ele>1375.3</ele>
        <time>2017-05-17T07:58:44Z</time>
      </trkpt>
      <trkpt lat="44.38209" lon="3.83062">
        <ele>1375.3</ele>
        <time>2017-05-17T07:58:50Z</time>
      </trkpt>
      <trkpt lat="44.38194" lon="3.83083">
        <ele>1375.3</ele>
        <time>2017-05-17T07:59:06Z</time>
      </trkpt>
      <trkpt lat="44.3819" lon="3.83088">
        <ele>1375.78</ele>
        <time>2017-05-17T07:59:19Z</time>
      </trkpt>
      <trkpt lat="44.3819" lon="3.83088">
        <ele>1375.3</ele>
        <time>2017-05-17T07:59:25Z</time>
      </trkpt>
      <trkpt lat="44.38188" lon="3.83091">
        <ele>1376.26</ele>
        <time>2017-05-17T07:59:28Z</time>
      </trkpt>
      <trkpt lat="44.3818" lon="3.83104">
        <ele>1375.78</ele>
        <time>2017-05-17T07:59:37Z</time>
      </trkpt>
      <trkpt lat="44.38172" lon="3.83127">
        <ele>1374.82</ele>
        <time>2017-05-17T07:59:51Z</time>
      </trkpt>
      <trkpt lat="44.38166" lon="3.83144">
        <ele>1373.86</ele>
        <time>2017-05-17T08:00:01Z</time>
      </trkpt>
      <trkpt lat="44.38164" lon="3.83156">
        <ele>1373.38</ele>
        <time>2017-05-17T08:00:08Z</time>
      </trkpt>
      <trkpt lat="44.38163" lon="3.83183">
        <ele>1372.42</ele>
        <time>2017-05-17T08:00:23Z</time>
      </trkpt>
      <trkpt lat="44.38163" lon="3.83202">
        <ele>1371.94</ele>
        <time>2017-05-17T08:00:32Z</time>
      </trkpt>
      <trkpt lat="44.38163" lon="3.83231">
        <ele>1371.46</ele>
        <time>2017-05-17T08:00:47Z</time>
      </trkpt>
      <trkpt lat="44.38163" lon="3.83233">
        <ele>1371.46</ele>
        <time>2017-05-17T08:00:48Z</time>
      </trkpt>
      <trkpt lat="44.38162" lon="3.83241">
        <ele>1371.94</ele>
        <time>2017-05-17T08:00:52Z</time>
      </trkpt>
      <trkpt lat="44.38161" lon="3.83268">
        <ele>1371.46</ele>
        <time>2017-05-17T08:01:06Z</time>
      </trkpt>
      <trkpt lat="44.38149" lon="3.83293">
        <ele>1371.46</ele>
        <time>2017-05-17T08:01:22Z</time>
      </trkpt>
      <trkpt lat="44.38141" lon="3.83316">
        <ele>1371.94</ele>
        <time>2017-05-17T08:01:36Z</time>
      </trkpt>
      <trkpt lat="44.38138" lon="3.8334">
        <ele>1372.9</ele>
        <time>2017-05-17T08:01:50Z</time>
      </trkpt>
      <trkpt lat="44.38139" lon="3.8336">
        <ele>1373.86</ele>
        <time>2017-05-17T08:02:03Z</time>
      </trkpt>
      <trkpt lat="44.38144" lon="3.83378">
        <ele>1374.34</ele>
        <time>2017-05-17T08:02:14Z</time>
      </trkpt>
      <trkpt lat="44.38154" lon="3.83403">
        <ele>1375.3</ele>
        <time>2017-05-17T08:02:31Z</time>
      </trkpt>
      <trkpt lat="44.38164" lon="3.83425">
        <ele>1375.3</ele>
        <time>2017-05-17T08:02:45Z</time>
      </trkpt>
      <trkpt lat="44.38168" lon="3.83435">
        <ele>1374.82</ele>
        <time>2017-05-17T08:02:51Z</time>
      </trkpt>
      <trkpt lat="44.38174" lon="3.8345">
        <ele>1374.34</ele>
        <time>2017-05-17T08:03:00Z</time>
      </trkpt>
      <trkpt lat="44.38174" lon="3.83456">
        <ele>1374.82</ele>
        <time>2017-05-17T08:03:09Z</time>
      </trkpt>
      <trkpt lat="44.38176" lon="3.83461">
        <ele>1374.82</ele>
        <time>2017-05-17T08:03:12Z</time>
      </trkpt>
      <trkpt lat="44.38181" lon="3.83485">
        <ele>1374.82</ele>
        <time>2017-05-17T08:03:27Z</time>
      </trkpt>
      <trkpt lat="44.38183" lon="3.83496">
        <ele>1374.82</ele>
        <time>2017-05-17T08:03:33Z</time>
      </trkpt>
      <trkpt lat="44.38181" lon="3.83508">
        <ele>1375.3</ele>
        <time>2017-05-17T08:03:41Z</time>
      </trkpt>
      <trkpt lat="44.38177" lon="3.83534">
        <ele>1375.78</ele>
        <time>2017-05-17T08:03:56Z</time>
      </trkpt>
      <trkpt lat="44.38176" lon="3.83554">
        <ele>1375.78</ele>
        <time>2017-05-17T08:04:11Z</time>
      </trkpt>
      <trkpt lat="44.38176" lon="3.83555">
        <ele>1375.78</ele>
        <time>2017-05-17T08:04:20Z</time>
      </trkpt>
      <trkpt lat="44.38178" lon="3.8356">
        <ele>1375.78</ele>
        <time>2017-05-17T08:04:24Z</time>
      </trkpt>
      <trkpt lat="44.38178" lon="3.83568">
        <ele>1375.78</ele>
        <time>2017-05-17T08:04:29Z</time>
      </trkpt>
      <trkpt lat="44.38183" lon="3.83578">
        <ele>1375.78</ele>
        <time>2017-05-17T08:04:37Z</time>
      </trkpt>
      <trkpt lat="44.38199" lon="3.83589">
        <ele>1376.75</ele>
        <time>2017-05-17T08:04:50Z</time>
      </trkpt>
      <trkpt lat="44.38209" lon="3.83607">
        <ele>1376.26</ele>
        <time>2017-05-17T08:05:02Z</time>
      </trkpt>
      <trkpt lat="44.3821" lon="3.83609">
        <ele>1376.26</ele>
        <time>2017-05-17T08:05:03Z</time>
      </trkpt>
      <trkpt lat="44.38218" lon="3.83631">
        <ele>1375.78</ele>
        <time>2017-05-17T08:05:17Z</time>
      </trkpt>
      <trkpt lat="44.38221" lon="3.83647">
        <ele>1375.78</ele>
        <time>2017-05-17T08:05:26Z</time>
      </trkpt>
      <trkpt lat="44.38224" lon="3.83658">
        <ele>1375.3</ele>
        <time>2017-05-17T08:05:33Z</time>
      </trkpt>
      <trkpt lat="44.38228" lon="3.83672">
        <ele>1374.82</ele>
        <time>2017-05-17T08:05:41Z</time>
      </trkpt>
      <trkpt lat="44.38231" lon="3.837">
        <ele>1373.86</ele>
        <time>2017-05-17T08:05:58Z</time>
      </trkpt>
      <trkpt lat="44.38237" lon="3.8373">
        <ele>1372.9</ele>
        <time>2017-05-17T08:06:14Z</time>
      </trkpt>
      <trkpt lat="44.38238" lon="3.83735">
        <ele>1372.42</ele>
        <time>2017-05-17T08:06:17Z</time>
      </trkpt>
      <trkpt lat="44.38239" lon="3.83741">
        <ele>1372.9</ele>
        <time>2017-05-17T08:06:21Z</time>
      </trkpt>
      <trkpt lat="44.38242" lon="3.83752">
        <ele>1371.94</ele>
        <time>2017-05-17T08:06:27Z</time>
      </trkpt>
      <trkpt lat="44.38249" lon="3.83762">
        <ele>1371.94</ele>
        <time>2017-05-17T08:06:34Z</time>
      </trkpt>
      <trkpt lat="44.38255" lon="3.83784">
        <ele>1371.46</ele>
        <time>2017-05-17T08:06:47Z</time>
      </trkpt>
      <trkpt lat="44.38256" lon="3.83808">
        <ele>1370.98</ele>
        <time>2017-05-17T08:07:00Z</time>
      </trkpt>
      <trkpt lat="44.38256" lon="3.83811">
        <ele>1370.98</ele>
        <time>2017-05-17T08:07:02Z</time>
      </trkpt>
      <trkpt lat="44.38255" lon="3.83819">
        <ele>1370.5</ele>
        <time>2017-05-17T08:07:07Z</time>
      </trkpt>
      <trkpt lat="44.38254" lon="3.83826">
        <ele>1370.5</ele>
        <time>2017-05-17T08:07:11Z</time>
      </trkpt>
      <trkpt lat="44.38253" lon="3.83855">
        <ele>1369.54</ele>
        <time>2017-05-17T08:07:27Z</time>
      </trkpt>
      <trkpt lat="44.38252" lon="3.8388">
        <ele>1368.57</ele>
        <time>2017-05-17T08:07:41Z</time>
      </trkpt>
      <trkpt lat="44.38254" lon="3.83902">
        <ele>1368.57</ele>
        <time>2017-05-17T08:07:55Z</time>
      </trkpt>
      <trkpt lat="44.38256" lon="3.83915">
        <ele>1368.57</ele>
        <time>2017-05-17T08:08:02Z</time>
      </trkpt>
      <trkpt lat="44.38257" lon="3.83924">
        <ele>1368.57</ele>
        <time>2017-05-17T08:08:07Z</time>
      </trkpt>
      <trkpt lat="44.38257" lon="3.83947">
        <ele>1369.05</ele>
        <time>2017-05-17T08:08:19Z</time>
      </trkpt>
      <trkpt lat="44.38257" lon="3.83967">
        <ele>1370.02</ele>
        <time>2017-05-17T08:08:30Z</time>
      </trkpt>
      <trkpt lat="44.38256" lon="3.83977">
        <ele>1370.5</ele>
        <time>2017-05-17T08:08:35Z</time>
      </trkpt>
      <trkpt lat="44.3825" lon="3.84003">
        <ele>1370.98</ele>
        <time>2017-05-17T08:08:51Z</time>
      </trkpt>
      <trkpt lat="44.38248" lon="3.84011">
        <ele>1371.46</ele>
        <time>2017-05-17T08:08:56Z</time>
      </trkpt>
      <trkpt lat="44.38245" lon="3.84014">
        <ele>1371.94</ele>
        <time>2017-05-17T08:09:09Z</time>
      </trkpt>
      <trkpt lat="44.38245" lon="3.84013">
        <ele>1371.46</ele>
        <time>2017-05-17T08:09:36Z</time>
      </trkpt>
      <trkpt lat="44.38245" lon="3.84013">
        <ele>1371.46</ele>
        <time>2017-05-17T08:10:02Z</time>
      </trkpt>
      <trkpt lat="44.38242" lon="3.84017">
        <ele>1370.98</ele>
        <time>2017-05-17T08:10:16Z</time>
      </trkpt>
      <trkpt lat="44.38243" lon="3.84017">
        <ele>1371.46</ele>
        <time>2017-05-17T08:10:23Z</time>
      </trkpt>
      <trkpt lat="44.38242" lon="3.84024">
        <ele>1371.46</ele>
        <time>2017-05-17T08:10:27Z</time>
      </trkpt>
      <trkpt lat="44.38241" lon="3.84034">
        <ele>1371.94</ele>
        <time>2017-05-17T08:10:40Z</time>
      </trkpt>
      <trkpt lat="44.3824" lon="3.84039">
        <ele>1372.42</ele>
        <time>2017-05-17T08:10:57Z</time>
      </trkpt>
      <trkpt lat="44.38239" lon="3.84047">
        <ele>1372.42</ele>
        <time>2017-05-17T08:11:20Z</time>
      </trkpt>
      <trkpt lat="44.38239" lon="3.84058">
        <ele>1372.9</ele>
        <time>2017-05-17T08:11:26Z</time>
      </trkpt>
      <trkpt lat="44.38242" lon="3.8408">
        <ele>1372.9</ele>
        <time>2017-05-17T08:11:40Z</time>
      </trkpt>
      <trkpt lat="44.38249" lon="3.84092">
        <ele>1372.9</ele>
        <time>2017-05-17T08:11:49Z</time>
      </trkpt>
      <trkpt lat="44.38257" lon="3.84102">
        <ele>1373.38</ele>
        <time>2017-05-17T08:11:58Z</time>
      </trkpt>
      <trkpt lat="44.38259" lon="3.84105">
        <ele>1373.38</ele>
        <time>2017-05-17T08:12:00Z</time>
      </trkpt>
      <trkpt lat="44.38273" lon="3.8412">
        <ele>1373.38</ele>
        <time>2017-05-17T08:12:14Z</time>
      </trkpt>
      <trkpt lat="44.38282" lon="3.8413">
        <ele>1373.86</ele>
        <time>2017-05-17T08:12:23Z</time>
      </trkpt>
      <trkpt lat="44.38283" lon="3.8414">
        <ele>1375.3</ele>
        <time>2017-05-17T08:12:29Z</time>
      </trkpt>
      <trkpt lat="44.38284" lon="3.8415">
        <ele>1374.34</ele>
        <time>2017-05-17T08:12:34Z</time>
      </trkpt>
      <trkpt lat="44.38281" lon="3.84176">
        <ele>1374.82</ele>
        <time>2017-05-17T08:12:47Z</time>
      </trkpt>
      <trkpt lat="44.3827" lon="3.84196">
        <ele>1375.3</ele>
        <time>2017-05-17T08:12:59Z</time>
      </trkpt>
      <trkpt lat="44.38255" lon="3.84209">
        <ele>1376.75</ele>
        <time>2017-05-17T08:13:12Z</time>
      </trkpt>
      <trkpt lat="44.38241" lon="3.84207">
        <ele>1377.23</ele>
        <time>2017-05-17T08:13:23Z</time>
      </trkpt>
      <trkpt lat="44.38222" lon="3.84202">
        <ele>1377.71</ele>
        <time>2017-05-17T08:13:38Z</time>
      </trkpt>
      <trkpt lat="44.38205" lon="3.84206">
        <ele>1378.67</ele>
        <time>2017-05-17T08:13:52Z</time>
      </trkpt>
      <trkpt lat="44.38187" lon="3.84213">
        <ele>1379.63</ele>
        <time>2017-05-17T08:14:06Z</time>
      </trkpt>
      <trkpt lat="44.38171" lon="3.84212">
        <ele>1380.59</ele>
        <time>2017-05-17T08:14:19Z</time>
      </trkpt>
      <trkpt lat="44.38154" lon="3.8421">
        <ele>1381.55</ele>
        <time>2017-05-17T08:14:33Z</time>
      </trkpt>
      <trkpt lat="44.38134" lon="3.84209">
        <ele>1382.03</ele>
        <time>2017-05-17T08:14:48Z</time>
      </trkpt>
      <trkpt lat="44.38132" lon="3.84208">
        <ele>1382.51</ele>
        <time>2017-05-17T08:14:50Z</time>
      </trkpt>
      <trkpt lat="44.38122" lon="3.84208">
        <ele>1382.99</ele>
        <time>2017-05-17T08:14:58Z</time>
      </trkpt>
      <trkpt lat="44.38104" lon="3.84208">
        <ele>1383.47</ele>
        <time>2017-05-17T08:15:13Z</time>
      </trkpt>
      <trkpt lat="44.38101" lon="3.84209">
        <ele>1383.96</ele>
        <time>2017-05-17T08:15:15Z</time>
      </trkpt>
      <trkpt lat="44.38092" lon="3.84215">
        <ele>1384.44</ele>
        <time>2017-05-17T08:15:24Z</time>
      </trkpt>
      <trkpt lat="44.38083" lon="3.84224">
        <ele>1384.92</ele>
        <time>2017-05-17T08:15:33Z</time>
      </trkpt>
      <trkpt lat="44.38071" lon="3.84238">
        <ele>1386.36</ele>
        <time>2017-05-17T08:15:46Z</time>
      </trkpt>
      <trkpt lat="44.38062" lon="3.84257">
        <ele>1387.32</ele>
        <time>2017-05-17T08:16:00Z</time>
      </trkpt>
      <trkpt lat="44.38058" lon="3.84268">
        <ele>1387.8</ele>
        <time>2017-05-17T08:16:07Z</time>
      </trkpt>
      <trkpt lat="44.38053" lon="3.8428">
        <ele>1388.28</ele>
        <time>2017-05-17T08:16:15Z</time>
      </trkpt>
      <trkpt lat="44.38049" lon="3.84291">
        <ele>1388.76</ele>
        <time>2017-05-17T08:16:22Z</time>
      </trkpt>
      <trkpt lat="44.38038" lon="3.84315">
        <ele>1389.72</ele>
        <time>2017-05-17T08:16:38Z</time>
      </trkpt>
      <trkpt lat="44.38031" lon="3.8433">
        <ele>1390.2</ele>
        <time>2017-05-17T08:16:48Z</time>
      </trkpt>
      <trkpt lat="44.38023" lon="3.84351">
        <ele>1391.17</ele>
        <time>2017-05-17T08:17:02Z</time>
      </trkpt>
      <trkpt lat="44.38023" lon="3.84352">
        <ele>1391.17</ele>
        <time>2017-05-17T08:17:03Z</time>
      </trkpt>
      <trkpt lat="44.38019" lon="3.84375">
        <ele>1392.13</ele>
        <time>2017-05-17T08:17:16Z</time>
      </trkpt>
      <trkpt lat="44.38018" lon="3.84376">
        <ele>1392.13</ele>
        <time>2017-05-17T08:17:17Z</time>
      </trkpt>
      <trkpt lat="44.38019" lon="3.84389">
        <ele>1393.09</ele>
        <time>2017-05-17T08:17:24Z</time>
      </trkpt>
      <trkpt lat="44.38018" lon="3.84413">
        <ele>1394.05</ele>
        <time>2017-05-17T08:17:38Z</time>
      </trkpt>
      <trkpt lat="44.38018" lon="3.84438">
        <ele>1395.01</ele>
        <time>2017-05-17T08:17:53Z</time>
      </trkpt>
      <trkpt lat="44.3802" lon="3.84452">
        <ele>1395.49</ele>
        <time>2017-05-17T08:18:01Z</time>
      </trkpt>
      <trkpt lat="44.38021" lon="3.84462">
        <ele>1395.97</ele>
        <time>2017-05-17T08:18:07Z</time>
      </trkpt>
      <trkpt lat="44.38022" lon="3.84469">
        <ele>1396.45</ele>
        <time>2017-05-17T08:18:11Z</time>
      </trkpt>
      <trkpt lat="44.38022" lon="3.84472">
        <ele>1396.45</ele>
        <time>2017-05-17T08:18:13Z</time>
      </trkpt>
      <trkpt lat="44.38024" lon="3.84481">
        <ele>1396.93</ele>
        <time>2017-05-17T08:18:18Z</time>
      </trkpt>
      <trkpt lat="44.38025" lon="3.84487">
        <ele>1396.93</ele>
        <time>2017-05-17T08:18:22Z</time>
      </trkpt>
      <trkpt lat="44.38026" lon="3.84493">
        <ele>1397.41</ele>
        <time>2017-05-17T08:18:26Z</time>
      </trkpt>
      <trkpt lat="44.38028" lon="3.84509">
        <ele>1397.89</ele>
        <time>2017-05-17T08:18:36Z</time>
      </trkpt>
      <trkpt lat="44.3803" lon="3.84514">
        <ele>1398.37</ele>
        <time>2017-05-17T08:18:39Z</time>
      </trkpt>
      <trkpt lat="44.38035" lon="3.84538">
        <ele>1399.34</ele>
        <time>2017-05-17T08:18:54Z</time>
      </trkpt>
      <trkpt lat="44.38035" lon="3.8454">
        <ele>1399.34</ele>
        <time>2017-05-17T08:18:55Z</time>
      </trkpt>
      <trkpt lat="44.38038" lon="3.84548">
        <ele>1400.3</ele>
        <time>2017-05-17T08:19:01Z</time>
      </trkpt>
      <trkpt lat="44.3804" lon="3.84566">
        <ele>1400.78</ele>
        <time>2017-05-17T08:19:12Z</time>
      </trkpt>
      <trkpt lat="44.38044" lon="3.84582">
        <ele>1402.22</ele>
        <time>2017-05-17T08:19:22Z</time>
      </trkpt>
      <trkpt lat="44.38049" lon="3.84594">
        <ele>1403.66</ele>
        <time>2017-05-17T08:19:31Z</time>
      </trkpt>
      <trkpt lat="44.3806" lon="3.84605">
        <ele>1404.14</ele>
        <time>2017-05-17T08:19:43Z</time>
      </trkpt>
      <trkpt lat="44.38062" lon="3.84609">
        <ele>1403.18</ele>
        <time>2017-05-17T08:19:46Z</time>
      </trkpt>
      <trkpt lat="44.38076" lon="3.84626">
        <ele>1404.14</ele>
        <time>2017-05-17T08:20:01Z</time>
      </trkpt>
      <trkpt lat="44.38083" lon="3.8464">
        <ele>1404.14</ele>
        <time>2017-05-17T08:20:11Z</time>
      </trkpt>
      <trkpt lat="44.38096" lon="3.84658">
        <ele>1404.62</ele>
        <time>2017-05-17T08:20:25Z</time>
      </trkpt>
      <trkpt lat="44.38105" lon="3.84671">
        <ele>1405.1</ele>
        <time>2017-05-17T08:20:37Z</time>
      </trkpt>
      <trkpt lat="44.3811" lon="3.84679">
        <ele>1405.58</ele>
        <time>2017-05-17T08:20:42Z</time>
      </trkpt>
      <trkpt lat="44.38116" lon="3.84689">
        <ele>1406.07</ele>
        <time>2017-05-17T08:20:51Z</time>
      </trkpt>
      <trkpt lat="44.38117" lon="3.84692">
        <ele>1406.07</ele>
        <time>2017-05-17T08:20:53Z</time>
      </trkpt>
      <trkpt lat="44.38128" lon="3.84709">
        <ele>1407.03</ele>
        <time>2017-05-17T08:21:06Z</time>
      </trkpt>
      <trkpt lat="44.38138" lon="3.84728">
        <ele>1407.99</ele>
        <time>2017-05-17T08:21:20Z</time>
      </trkpt>
      <trkpt lat="44.38145" lon="3.84746">
        <ele>1409.43</ele>
        <time>2017-05-17T08:21:33Z</time>
      </trkpt>
      <trkpt lat="44.38146" lon="3.84748">
        <ele>1409.43</ele>
        <time>2017-05-17T08:21:34Z</time>
      </trkpt>
      <trkpt lat="44.3815" lon="3.84774">
        <ele>1410.87</ele>
        <time>2017-05-17T08:21:51Z</time>
      </trkpt>
      <trkpt lat="44.38152" lon="3.84784">
        <ele>1411.35</ele>
        <time>2017-05-17T08:21:57Z</time>
      </trkpt>
      <trkpt lat="44.38149" lon="3.84812">
        <ele>1412.31</ele>
        <time>2017-05-17T08:22:13Z</time>
      </trkpt>
      <trkpt lat="44.38137" lon="3.84836">
        <ele>1412.79</ele>
        <time>2017-05-17T08:22:29Z</time>
      </trkpt>
      <trkpt lat="44.38131" lon="3.84847">
        <ele>1413.28</ele>
        <time>2017-05-17T08:22:37Z</time>
      </trkpt>
      <trkpt lat="44.38125" lon="3.84867">
        <ele>1414.24</ele>
        <time>2017-05-17T08:22:50Z</time>
      </trkpt>
      <trkpt lat="44.38126" lon="3.84896">
        <ele>1414.72</ele>
        <time>2017-05-17T08:23:07Z</time>
      </trkpt>
      <trkpt lat="44.38126" lon="3.84901">
        <ele>1415.2</ele>
        <time>2017-05-17T08:23:10Z</time>
      </trkpt>
      <trkpt lat="44.38127" lon="3.84922">
        <ele>1416.16</ele>
        <time>2017-05-17T08:23:23Z</time>
      </trkpt>
      <trkpt lat="44.38136" lon="3.84948">
        <ele>1416.64</ele>
        <time>2017-05-17T08:23:39Z</time>
      </trkpt>
      <trkpt lat="44.38136" lon="3.84952">
        <ele>1416.64</ele>
        <time>2017-05-17T08:23:42Z</time>
      </trkpt>
      <trkpt lat="44.3814" lon="3.84961">
        <ele>1417.12</ele>
        <time>2017-05-17T08:23:48Z</time>
      </trkpt>
      <trkpt lat="44.38143" lon="3.84974">
        <ele>1417.12</ele>
        <time>2017-05-17T08:23:56Z</time>
      </trkpt>
      <trkpt lat="44.3815" lon="3.84997">
        <ele>1418.08</ele>
        <time>2017-05-17T08:24:10Z</time>
      </trkpt>
      <trkpt lat="44.38158" lon="3.85015">
        <ele>1418.08</ele>
        <time>2017-05-17T08:24:22Z</time>
      </trkpt>
      <trkpt lat="44.38165" lon="3.85033">
        <ele>1419.52</ele>
        <time>2017-05-17T08:24:34Z</time>
      </trkpt>
      <trkpt lat="44.38168" lon="3.85039">
        <ele>1419.52</ele>
        <time>2017-05-17T08:24:38Z</time>
      </trkpt>
      <trkpt lat="44.38174" lon="3.85064">
        <ele>1420</ele>
        <time>2017-05-17T08:24:53Z</time>
      </trkpt>
      <trkpt lat="44.38187" lon="3.85077">
        <ele>1420.49</ele>
        <time>2017-05-17T08:25:07Z</time>
      </trkpt>
      <trkpt lat="44.38199" lon="3.85082">
        <ele>1420.97</ele>
        <time>2017-05-17T08:25:17Z</time>
      </trkpt>
      <trkpt lat="44.38204" lon="3.85084">
        <ele>1421.45</ele>
        <time>2017-05-17T08:25:21Z</time>
      </trkpt>
      <trkpt lat="44.38208" lon="3.85084">
        <ele>1421.45</ele>
        <time>2017-05-17T08:25:24Z</time>
      </trkpt>
      <trkpt lat="44.38223" lon="3.85085">
        <ele>1421.93</ele>
        <time>2017-05-17T08:25:36Z</time>
      </trkpt>
      <trkpt lat="44.38236" lon="3.85085">
        <ele>1421.93</ele>
        <time>2017-05-17T08:25:46Z</time>
      </trkpt>
      <trkpt lat="44.38239" lon="3.85084">
        <ele>1421.93</ele>
        <time>2017-05-17T08:25:48Z</time>
      </trkpt>
      <trkpt lat="44.3825" lon="3.85088">
        <ele>1422.41</ele>
        <time>2017-05-17T08:25:58Z</time>
      </trkpt>
      <trkpt lat="44.38256" lon="3.85088">
        <ele>1422.89</ele>
        <time>2017-05-17T08:26:02Z</time>
      </trkpt>
      <trkpt lat="44.38258" lon="3.8509">
        <ele>1422.41</ele>
        <time>2017-05-17T08:26:04Z</time>
      </trkpt>
      <trkpt lat="44.38267" lon="3.85089">
        <ele>1422.89</ele>
        <time>2017-05-17T08:26:11Z</time>
      </trkpt>
      <trkpt lat="44.38275" lon="3.85084">
        <ele>1422.89</ele>
        <time>2017-05-17T08:26:18Z</time>
      </trkpt>
      <trkpt lat="44.38287" lon="3.85076">
        <ele>1422.89</ele>
        <time>2017-05-17T08:26:27Z</time>
      </trkpt>
      <trkpt lat="44.38304" lon="3.85072">
        <ele>1423.85</ele>
        <time>2017-05-17T08:26:41Z</time>
      </trkpt>
      <trkpt lat="44.38314" lon="3.85076">
        <ele>1423.85</ele>
        <time>2017-05-17T08:26:48Z</time>
      </trkpt>
      <trkpt lat="44.38328" lon="3.85083">
        <ele>1424.33</ele>
        <time>2017-05-17T08:27:00Z</time>
      </trkpt>
      <trkpt lat="44.38332" lon="3.85081">
        <ele>1424.81</ele>
        <time>2017-05-17T08:27:12Z</time>
      </trkpt>
      <trkpt lat="44.38333" lon="3.85081">
        <ele>1424.81</ele>
        <time>2017-05-17T08:27:14Z</time>
      </trkpt>
      <trkpt lat="44.38337" lon="3.85081">
        <ele>1424.81</ele>
        <time>2017-05-17T08:27:17Z</time>
      </trkpt>
      <trkpt lat="44.38342" lon="3.85081">
        <ele>1425.29</ele>
        <time>2017-05-17T08:27:21Z</time>
      </trkpt>
      <trkpt lat="44.38347" lon="3.85082">
        <ele>1424.81</ele>
        <time>2017-05-17T08:27:24Z</time>
      </trkpt>
      <trkpt lat="44.38366" lon="3.85084">
        <ele>1425.77</ele>
        <time>2017-05-17T08:27:38Z</time>
      </trkpt>
      <trkpt lat="44.38381" lon="3.85091">
        <ele>1425.77</ele>
        <time>2017-05-17T08:27:50Z</time>
      </trkpt>
      <trkpt lat="44.38384" lon="3.85093">
        <ele>1425.77</ele>
        <time>2017-05-17T08:27:52Z</time>
      </trkpt>
      <trkpt lat="44.38386" lon="3.85093">
        <ele>1425.77</ele>
        <time>2017-05-17T08:27:54Z</time>
      </trkpt>
      <trkpt lat="44.38403" lon="3.85102">
        <ele>1426.73</ele>
        <time>2017-05-17T08:28:08Z</time>
      </trkpt>
      <trkpt lat="44.38408" lon="3.85107">
        <ele>1426.73</ele>
        <time>2017-05-17T08:28:13Z</time>
      </trkpt>
      <trkpt lat="44.38417" lon="3.85112">
        <ele>1426.73</ele>
        <time>2017-05-17T08:28:20Z</time>
      </trkpt>
      <trkpt lat="44.38429" lon="3.85119">
        <ele>1427.21</ele>
        <time>2017-05-17T08:28:30Z</time>
      </trkpt>
      <trkpt lat="44.38437" lon="3.85122">
        <ele>1427.7</ele>
        <time>2017-05-17T08:28:37Z</time>
      </trkpt>
      <trkpt lat="44.3844" lon="3.85126">
        <ele>1427.7</ele>
        <time>2017-05-17T08:28:40Z</time>
      </trkpt>
      <trkpt lat="44.38452" lon="3.85134">
        <ele>1427.7</ele>
        <time>2017-05-17T08:28:50Z</time>
      </trkpt>
      <trkpt lat="44.38457" lon="3.85135">
        <ele>1428.18</ele>
        <time>2017-05-17T08:28:54Z</time>
      </trkpt>
      <trkpt lat="44.38473" lon="3.8515">
        <ele>1428.66</ele>
        <time>2017-05-17T08:29:09Z</time>
      </trkpt>
      <trkpt lat="44.38483" lon="3.85171">
        <ele>1429.14</ele>
        <time>2017-05-17T08:29:23Z</time>
      </trkpt>
      <trkpt lat="44.38484" lon="3.85197">
        <ele>1429.62</ele>
        <time>2017-05-17T08:29:37Z</time>
      </trkpt>
      <trkpt lat="44.38484" lon="3.85214">
        <ele>1430.1</ele>
        <time>2017-05-17T08:29:46Z</time>
      </trkpt>
      <trkpt lat="44.38475" lon="3.85234">
        <ele>1430.58</ele>
        <time>2017-05-17T08:29:59Z</time>
      </trkpt>
      <trkpt lat="44.3847" lon="3.85239">
        <ele>1430.58</ele>
        <time>2017-05-17T08:30:04Z</time>
      </trkpt>
      <trkpt lat="44.38456" lon="3.85245">
        <ele>1431.54</ele>
        <time>2017-05-17T08:30:15Z</time>
      </trkpt>
      <trkpt lat="44.38442" lon="3.85248">
        <ele>1431.54</ele>
        <time>2017-05-17T08:30:26Z</time>
      </trkpt>
      <trkpt lat="44.38425" lon="3.85258">
        <ele>1432.5</ele>
        <time>2017-05-17T08:30:40Z</time>
      </trkpt>
      <trkpt lat="44.38422" lon="3.85261">
        <ele>1432.5</ele>
        <time>2017-05-17T08:30:43Z</time>
      </trkpt>
      <trkpt lat="44.38409" lon="3.8527">
        <ele>1433.46</ele>
        <time>2017-05-17T08:30:55Z</time>
      </trkpt>
      <trkpt lat="44.38396" lon="3.85279">
        <ele>1434.42</ele>
        <time>2017-05-17T08:31:07Z</time>
      </trkpt>
      <trkpt lat="44.3839" lon="3.85286">
        <ele>1434.91</ele>
        <time>2017-05-17T08:31:13Z</time>
      </trkpt>
      <trkpt lat="44.38386" lon="3.85291">
        <ele>1435.39</ele>
        <time>2017-05-17T08:31:18Z</time>
      </trkpt>
      <trkpt lat="44.38375" lon="3.85301">
        <ele>1435.87</ele>
        <time>2017-05-17T08:31:29Z</time>
      </trkpt>
      <trkpt lat="44.38365" lon="3.85311">
        <ele>1436.83</ele>
        <time>2017-05-17T08:31:42Z</time>
      </trkpt>
      <trkpt lat="44.38358" lon="3.85317">
        <ele>1437.31</ele>
        <time>2017-05-17T08:31:51Z</time>
      </trkpt>
      <trkpt lat="44.38349" lon="3.85328">
        <ele>1438.27</ele>
        <time>2017-05-17T08:32:04Z</time>
      </trkpt>
      <trkpt lat="44.38342" lon="3.85337">
        <ele>1438.75</ele>
        <time>2017-05-17T08:32:16Z</time>
      </trkpt>
      <trkpt lat="44.38339" lon="3.85341">
        <ele>1439.23</ele>
        <time>2017-05-17T08:32:32Z</time>
      </trkpt>
      <trkpt lat="44.38334" lon="3.85348">
        <ele>1439.71</ele>
        <time>2017-05-17T08:32:45Z</time>
      </trkpt>
      <trkpt lat="44.38331" lon="3.85353">
        <ele>1440.19</ele>
        <time>2017-05-17T08:33:06Z</time>
      </trkpt>
      <trkpt lat="44.38329" lon="3.85352">
        <ele>1439.23</ele>
        <time>2017-05-17T08:33:23Z</time>
      </trkpt>
      <trkpt lat="44.38328" lon="3.85351">
        <ele>1439.71</ele>
        <time>2017-05-17T08:33:57Z</time>
      </trkpt>
      <trkpt lat="44.38327" lon="3.85351">
        <ele>1439.71</ele>
        <time>2017-05-17T08:34:29Z</time>
      </trkpt>
      <trkpt lat="44.38327" lon="3.85352">
        <ele>1440.19</ele>
        <time>2017-05-17T08:35:00Z</time>
      </trkpt>
      <trkpt lat="44.38327" lon="3.85353">
        <ele>1440.19</ele>
        <time>2017-05-17T08:35:31Z</time>
      </trkpt>
      <trkpt lat="44.38327" lon="3.85353">
        <ele>1440.19</ele>
        <time>2017-05-17T08:35:58Z</time>
      </trkpt>
      <trkpt lat="44.38326" lon="3.85354">
        <ele>1440.19</ele>
        <time>2017-05-17T08:36:27Z</time>
      </trkpt>
      <trkpt lat="44.38327" lon="3.85355">
        <ele>1440.19</ele>
        <time>2017-05-17T08:37:05Z</time>
      </trkpt>
      <trkpt lat="44.38326" lon="3.85356">
        <ele>1440.19</ele>
        <time>2017-05-17T08:37:45Z</time>
      </trkpt>
      <trkpt lat="44.38326" lon="3.85356">
        <ele>1440.67</ele>
        <time>2017-05-17T08:38:16Z</time>
      </trkpt>
      <trkpt lat="44.38326" lon="3.85356">
        <ele>1440.67</ele>
        <time>2017-05-17T08:38:49Z</time>
      </trkpt>
      <trkpt lat="44.38327" lon="3.85353">
        <ele>1441.15</ele>
        <time>2017-05-17T08:39:09Z</time>
      </trkpt>
      <trkpt lat="44.38327" lon="3.85351">
        <ele>1441.15</ele>
        <time>2017-05-17T08:39:41Z</time>
      </trkpt>
      <trkpt lat="44.38327" lon="3.8535">
        <ele>1441.15</ele>
        <time>2017-05-17T08:40:09Z</time>
      </trkpt>
      <trkpt lat="44.38327" lon="3.8535">
        <ele>1441.15</ele>
        <time>2017-05-17T08:40:41Z</time>
      </trkpt>
      <trkpt lat="44.38327" lon="3.85351">
        <ele>1441.15</ele>
        <time>2017-05-17T08:41:17Z</time>
      </trkpt>
      <trkpt lat="44.38327" lon="3.85351">
        <ele>1441.15</ele>
        <time>2017-05-17T08:41:46Z</time>
      </trkpt>
      <trkpt lat="44.38328" lon="3.85349">
        <ele>1441.63</ele>
        <time>2017-05-17T08:42:08Z</time>
      </trkpt>
      <trkpt lat="44.38327" lon="3.85349">
        <ele>1442.11</ele>
        <time>2017-05-17T08:42:23Z</time>
      </trkpt>
      <trkpt lat="44.38325" lon="3.85351">
        <ele>1442.11</ele>
        <time>2017-05-17T08:42:34Z</time>
      </trkpt>
      <trkpt lat="44.38323" lon="3.85355">
        <ele>1442.6</ele>
        <time>2017-05-17T08:42:39Z</time>
      </trkpt>
      <trkpt lat="44.38313" lon="3.85371">
        <ele>1442.6</ele>
        <time>2017-05-17T08:42:51Z</time>
      </trkpt>
      <trkpt lat="44.38305" lon="3.85388">
        <ele>1443.56</ele>
        <time>2017-05-17T08:43:04Z</time>
      </trkpt>
      <trkpt lat="44.38304" lon="3.85392">
        <ele>1443.08</ele>
        <time>2017-05-17T08:43:07Z</time>
      </trkpt>
      <trkpt lat="44.38303" lon="3.85412">
        <ele>1442.11</ele>
        <time>2017-05-17T08:43:19Z</time>
      </trkpt>
      <trkpt lat="44.38304" lon="3.85416">
        <ele>1442.11</ele>
        <time>2017-05-17T08:43:21Z</time>
      </trkpt>
      <trkpt lat="44.38301" lon="3.85435">
        <ele>1441.15</ele>
        <time>2017-05-17T08:43:32Z</time>
      </trkpt>
      <trkpt lat="44.38305" lon="3.8545">
        <ele>1440.67</ele>
        <time>2017-05-17T08:43:39Z</time>
      </trkpt>
      <trkpt lat="44.38306" lon="3.85459">
        <ele>1440.67</ele>
        <time>2017-05-17T08:43:44Z</time>
      </trkpt>
      <trkpt lat="44.38305" lon="3.85466">
        <ele>1440.19</ele>
        <time>2017-05-17T08:43:48Z</time>
      </trkpt>
      <trkpt lat="44.3831" lon="3.85483">
        <ele>1439.23</ele>
        <time>2017-05-17T08:44:00Z</time>
      </trkpt>
      <trkpt lat="44.3831" lon="3.85487">
        <ele>1439.23</ele>
        <time>2017-05-17T08:44:03Z</time>
      </trkpt>
      <trkpt lat="44.38314" lon="3.85503">
        <ele>1438.27</ele>
        <time>2017-05-17T08:44:11Z</time>
      </trkpt>
      <trkpt lat="44.3832" lon="3.85521">
        <ele>1437.79</ele>
        <time>2017-05-17T08:44:19Z</time>
      </trkpt>
      <trkpt lat="44.38331" lon="3.85553">
        <ele>1436.83</ele>
        <time>2017-05-17T08:44:35Z</time>
      </trkpt>
      <trkpt lat="44.38338" lon="3.85564">
        <ele>1436.35</ele>
        <time>2017-05-17T08:44:43Z</time>
      </trkpt>
      <trkpt lat="44.38345" lon="3.85588">
        <ele>1436.35</ele>
        <time>2017-05-17T08:44:58Z</time>
      </trkpt>
      <trkpt lat="44.38346" lon="3.85591">
        <ele>1436.83</ele>
        <time>2017-05-17T08:45:00Z</time>
      </trkpt>
      <trkpt lat="44.3835" lon="3.85598">
        <ele>1436.35</ele>
        <time>2017-05-17T08:45:04Z</time>
      </trkpt>
      <trkpt lat="44.38359" lon="3.85625">
        <ele>1435.87</ele>
        <time>2017-05-17T08:45:19Z</time>
      </trkpt>
      <trkpt lat="44.3836" lon="3.85631">
        <ele>1435.87</ele>
        <time>2017-05-17T08:45:22Z</time>
      </trkpt>
      <trkpt lat="44.38361" lon="3.85639">
        <ele>1435.87</ele>
        <time>2017-05-17T08:45:26Z</time>
      </trkpt>
      <trkpt lat="44.38365" lon="3.8567">
        <ele>1434.91</ele>
        <time>2017-05-17T08:45:42Z</time>
      </trkpt>
      <trkpt lat="44.38369" lon="3.85697">
        <ele>1434.91</ele>
        <time>2017-05-17T08:45:57Z</time>
      </trkpt>
      <trkpt lat="44.3837" lon="3.85703">
        <ele>1434.91</ele>
        <time>2017-05-17T08:46:00Z</time>
      </trkpt>
      <trkpt lat="44.3837" lon="3.85734">
        <ele>1434.42</ele>
        <time>2017-05-17T08:46:16Z</time>
      </trkpt>
      <trkpt lat="44.38368" lon="3.85761">
        <ele>1434.42</ele>
        <time>2017-05-17T08:46:30Z</time>
      </trkpt>
      <trkpt lat="44.38369" lon="3.85784">
        <ele>1434.91</ele>
        <time>2017-05-17T08:46:43Z</time>
      </trkpt>
      <trkpt lat="44.38367" lon="3.85792">
        <ele>1434.91</ele>
        <time>2017-05-17T08:46:47Z</time>
      </trkpt>
      <trkpt lat="44.38367" lon="3.85805">
        <ele>1434.91</ele>
        <time>2017-05-17T08:46:55Z</time>
      </trkpt>
      <trkpt lat="44.38367" lon="3.85814">
        <ele>1435.39</ele>
        <time>2017-05-17T08:47:00Z</time>
      </trkpt>
      <trkpt lat="44.38367" lon="3.85841">
        <ele>1435.39</ele>
        <time>2017-05-17T08:47:14Z</time>
      </trkpt>
      <trkpt lat="44.38368" lon="3.85865">
        <ele>1435.39</ele>
        <time>2017-05-17T08:47:26Z</time>
      </trkpt>
      <trkpt lat="44.38367" lon="3.85889">
        <ele>1434.91</ele>
        <time>2017-05-17T08:47:39Z</time>
      </trkpt>
      <trkpt lat="44.38366" lon="3.85914">
        <ele>1434.91</ele>
        <time>2017-05-17T08:47:53Z</time>
      </trkpt>
      <trkpt lat="44.38366" lon="3.85941">
        <ele>1434.91</ele>
        <time>2017-05-17T08:48:07Z</time>
      </trkpt>
      <trkpt lat="44.38366" lon="3.85946">
        <ele>1434.91</ele>
        <time>2017-05-17T08:48:10Z</time>
      </trkpt>
      <trkpt lat="44.38364" lon="3.85955">
        <ele>1434.42</ele>
        <time>2017-05-17T08:48:17Z</time>
      </trkpt>
      <trkpt lat="44.38363" lon="3.85957">
        <ele>1434.42</ele>
        <time>2017-05-17T08:48:19Z</time>
      </trkpt>
      <trkpt lat="44.38366" lon="3.85971">
        <ele>1433.94</ele>
        <time>2017-05-17T08:48:25Z</time>
      </trkpt>
      <trkpt lat="44.38367" lon="3.85977">
        <ele>1433.94</ele>
        <time>2017-05-17T08:48:28Z</time>
      </trkpt>
      <trkpt lat="44.38367" lon="3.86001">
        <ele>1434.42</ele>
        <time>2017-05-17T08:48:41Z</time>
      </trkpt>
      <trkpt lat="44.38367" lon="3.86013">
        <ele>1433.94</ele>
        <time>2017-05-17T08:48:48Z</time>
      </trkpt>
      <trkpt lat="44.38367" lon="3.86031">
        <ele>1433.46</ele>
        <time>2017-05-17T08:48:57Z</time>
      </trkpt>
      <trkpt lat="44.38367" lon="3.86039">
        <ele>1433.94</ele>
        <time>2017-05-17T08:49:01Z</time>
      </trkpt>
      <trkpt lat="44.38367" lon="3.86045">
        <ele>1434.42</ele>
        <time>2017-05-17T08:49:05Z</time>
      </trkpt>
      <trkpt lat="44.38366" lon="3.86051">
        <ele>1434.42</ele>
        <time>2017-05-17T08:49:16Z</time>
      </trkpt>
      <trkpt lat="44.38365" lon="3.86055">
        <ele>1433.94</ele>
        <time>2017-05-17T08:49:29Z</time>
      </trkpt>
      <trkpt lat="44.38365" lon="3.86056">
        <ele>1434.91</ele>
        <time>2017-05-17T08:49:31Z</time>
      </trkpt>
      <trkpt lat="44.38365" lon="3.86061">
        <ele>1434.42</ele>
        <time>2017-05-17T08:49:34Z</time>
      </trkpt>
      <trkpt lat="44.38364" lon="3.86083">
        <ele>1434.91</ele>
        <time>2017-05-17T08:49:46Z</time>
      </trkpt>
      <trkpt lat="44.38363" lon="3.86108">
        <ele>1435.87</ele>
        <time>2017-05-17T08:50:00Z</time>
      </trkpt>
      <trkpt lat="44.38362" lon="3.86127">
        <ele>1436.35</ele>
        <time>2017-05-17T08:50:11Z</time>
      </trkpt>
      <trkpt lat="44.3836" lon="3.86134">
        <ele>1436.35</ele>
        <time>2017-05-17T08:50:15Z</time>
      </trkpt>
      <trkpt lat="44.38359" lon="3.8616">
        <ele>1437.79</ele>
        <time>2017-05-17T08:50:31Z</time>
      </trkpt>
      <trkpt lat="44.38355" lon="3.86188">
        <ele>1439.23</ele>
        <time>2017-05-17T08:50:47Z</time>
      </trkpt>
      <trkpt lat="44.38352" lon="3.86194">
        <ele>1440.19</ele>
        <time>2017-05-17T08:50:53Z</time>
      </trkpt>
      <trkpt lat="44.3835" lon="3.86217">
        <ele>1440.19</ele>
        <time>2017-05-17T08:51:05Z</time>
      </trkpt>
      <trkpt lat="44.3835" lon="3.86224">
        <ele>1440.67</ele>
        <time>2017-05-17T08:51:08Z</time>
      </trkpt>
      <trkpt lat="44.3835" lon="3.86229">
        <ele>1440.67</ele>
        <time>2017-05-17T08:51:11Z</time>
      </trkpt>
      <trkpt lat="44.38349" lon="3.86239">
        <ele>1440.67</ele>
        <time>2017-05-17T08:51:18Z</time>
      </trkpt>
      <trkpt lat="44.3835" lon="3.86246">
        <ele>1440.67</ele>
        <time>2017-05-17T08:51:22Z</time>
      </trkpt>
      <trkpt lat="44.38354" lon="3.86263">
        <ele>1441.15</ele>
        <time>2017-05-17T08:51:34Z</time>
      </trkpt>
      <trkpt lat="44.38357" lon="3.86278">
        <ele>1440.67</ele>
        <time>2017-05-17T08:51:46Z</time>
      </trkpt>
      <trkpt lat="44.38359" lon="3.86287">
        <ele>1440.19</ele>
        <time>2017-05-17T08:51:52Z</time>
      </trkpt>
      <trkpt lat="44.38361" lon="3.8629">
        <ele>1440.19</ele>
        <time>2017-05-17T08:51:55Z</time>
      </trkpt>
      <trkpt lat="44.38367" lon="3.86302">
        <ele>1440.19</ele>
        <time>2017-05-17T08:52:01Z</time>
      </trkpt>
      <trkpt lat="44.38368" lon="3.86309">
        <ele>1439.71</ele>
        <time>2017-05-17T08:52:06Z</time>
      </trkpt>
      <trkpt lat="44.38376" lon="3.86328">
        <ele>1438.75</ele>
        <time>2017-05-17T08:52:20Z</time>
      </trkpt>
      <trkpt lat="44.38378" lon="3.86335">
        <ele>1438.75</ele>
        <time>2017-05-17T08:52:25Z</time>
      </trkpt>
      <trkpt lat="44.38383" lon="3.8636">
        <ele>1438.27</ele>
        <time>2017-05-17T08:52:35Z</time>
      </trkpt>
      <trkpt lat="44.38387" lon="3.86371">
        <ele>1438.27</ele>
        <time>2017-05-17T08:52:39Z</time>
      </trkpt>
      <trkpt lat="44.38396" lon="3.86386">
        <ele>1437.31</ele>
        <time>2017-05-17T08:52:49Z</time>
      </trkpt>
      <trkpt lat="44.38396" lon="3.86388">
        <ele>1437.31</ele>
        <time>2017-05-17T08:52:51Z</time>
      </trkpt>
      <trkpt lat="44.38403" lon="3.8641">
        <ele>1436.35</ele>
        <time>2017-05-17T08:53:07Z</time>
      </trkpt>
      <trkpt lat="44.38407" lon="3.86419">
        <ele>1436.35</ele>
        <time>2017-05-17T08:53:15Z</time>
      </trkpt>
      <trkpt lat="44.38412" lon="3.86437">
        <ele>1435.87</ele>
        <time>2017-05-17T08:53:25Z</time>
      </trkpt>
      <trkpt lat="44.38413" lon="3.86439">
        <ele>1435.87</ele>
        <time>2017-05-17T08:53:26Z</time>
      </trkpt>
      <trkpt lat="44.38413" lon="3.86443">
        <ele>1435.87</ele>
        <time>2017-05-17T08:53:28Z</time>
      </trkpt>
      <trkpt lat="44.38407" lon="3.86456">
        <ele>1435.39</ele>
        <time>2017-05-17T08:53:40Z</time>
      </trkpt>
      <trkpt lat="44.38408" lon="3.8646">
        <ele>1434.91</ele>
        <time>2017-05-17T08:53:42Z</time>
      </trkpt>
      <trkpt lat="44.38416" lon="3.86475">
        <ele>1434.91</ele>
        <time>2017-05-17T08:53:45Z</time>
      </trkpt>
      <trkpt lat="44.38422" lon="3.86497">
        <ele>1434.42</ele>
        <time>2017-05-17T08:53:55Z</time>
      </trkpt>
      <trkpt lat="44.38417" lon="3.86523">
        <ele>1433.94</ele>
        <time>2017-05-17T08:54:08Z</time>
      </trkpt>
      <trkpt lat="44.38412" lon="3.86544">
        <ele>1433.94</ele>
        <time>2017-05-17T08:54:19Z</time>
      </trkpt>
      <trkpt lat="44.38412" lon="3.8656">
        <ele>1432.98</ele>
        <time>2017-05-17T08:54:28Z</time>
      </trkpt>
      <trkpt lat="44.38417" lon="3.86576">
        <ele>1432.5</ele>
        <time>2017-05-17T08:54:41Z</time>
      </trkpt>
      <trkpt lat="44.3842" lon="3.86584">
        <ele>1432.02</ele>
        <time>2017-05-17T08:54:50Z</time>
      </trkpt>
      <trkpt lat="44.38422" lon="3.86589">
        <ele>1432.02</ele>
        <time>2017-05-17T08:54:54Z</time>
      </trkpt>
      <trkpt lat="44.3843" lon="3.86605">
        <ele>1432.02</ele>
        <time>2017-05-17T08:55:07Z</time>
      </trkpt>
      <trkpt lat="44.38433" lon="3.86609">
        <ele>1431.54</ele>
        <time>2017-05-17T08:55:13Z</time>
      </trkpt>
      <trkpt lat="44.38437" lon="3.86614">
        <ele>1431.54</ele>
        <time>2017-05-17T08:55:15Z</time>
      </trkpt>
      <trkpt lat="44.38445" lon="3.86626">
        <ele>1431.54</ele>
        <time>2017-05-17T08:55:22Z</time>
      </trkpt>
      <trkpt lat="44.38453" lon="3.86635">
        <ele>1431.54</ele>
        <time>2017-05-17T08:55:30Z</time>
      </trkpt>
      <trkpt lat="44.38464" lon="3.86648">
        <ele>1432.02</ele>
        <time>2017-05-17T08:55:44Z</time>
      </trkpt>
      <trkpt lat="44.38472" lon="3.86654">
        <ele>1432.02</ele>
        <time>2017-05-17T08:55:50Z</time>
      </trkpt>
      <trkpt lat="44.38475" lon="3.86657">
        <ele>1433.46</ele>
        <time>2017-05-17T08:56:03Z</time>
      </trkpt>
      <trkpt lat="44.38473" lon="3.86656">
        <ele>1433.46</ele>
        <time>2017-05-17T08:56:28Z</time>
      </trkpt>
      <trkpt lat="44.38474" lon="3.86661">
        <ele>1433.46</ele>
        <time>2017-05-17T08:56:44Z</time>
      </trkpt>
      <trkpt lat="44.38476" lon="3.86664">
        <ele>1432.5</ele>
        <time>2017-05-17T08:56:56Z</time>
      </trkpt>
      <trkpt lat="44.3848" lon="3.86666">
        <ele>1432.5</ele>
        <time>2017-05-17T08:57:07Z</time>
      </trkpt>
      <trkpt lat="44.38481" lon="3.86666">
        <ele>1432.5</ele>
        <time>2017-05-17T08:57:10Z</time>
      </trkpt>
      <trkpt lat="44.38487" lon="3.86669">
        <ele>1432.5</ele>
        <time>2017-05-17T08:57:20Z</time>
      </trkpt>
      <trkpt lat="44.38496" lon="3.86679">
        <ele>1432.98</ele>
        <time>2017-05-17T08:57:30Z</time>
      </trkpt>
      <trkpt lat="44.38498" lon="3.86681">
        <ele>1432.98</ele>
        <time>2017-05-17T08:57:31Z</time>
      </trkpt>
      <trkpt lat="44.38509" lon="3.86691">
        <ele>1432.98</ele>
        <time>2017-05-17T08:57:40Z</time>
      </trkpt>
      <trkpt lat="44.38518" lon="3.86698">
        <ele>1433.46</ele>
        <time>2017-05-17T08:57:50Z</time>
      </trkpt>
      <trkpt lat="44.38522" lon="3.86701">
        <ele>1432.98</ele>
        <time>2017-05-17T08:57:53Z</time>
      </trkpt>
      <trkpt lat="44.38527" lon="3.86704">
        <ele>1433.46</ele>
        <time>2017-05-17T08:57:58Z</time>
      </trkpt>
      <trkpt lat="44.3853" lon="3.8671">
        <ele>1433.46</ele>
        <time>2017-05-17T08:58:02Z</time>
      </trkpt>
      <trkpt lat="44.38535" lon="3.86719">
        <ele>1433.46</ele>
        <time>2017-05-17T08:58:08Z</time>
      </trkpt>
      <trkpt lat="44.3854" lon="3.86728">
        <ele>1433.46</ele>
        <time>2017-05-17T08:58:14Z</time>
      </trkpt>
      <trkpt lat="44.38542" lon="3.86732">
        <ele>1433.94</ele>
        <time>2017-05-17T08:58:17Z</time>
      </trkpt>
      <trkpt lat="44.38547" lon="3.86743">
        <ele>1434.42</ele>
        <time>2017-05-17T08:58:22Z</time>
      </trkpt>
      <trkpt lat="44.38555" lon="3.86768">
        <ele>1433.94</ele>
        <time>2017-05-17T08:58:30Z</time>
      </trkpt>
      <trkpt lat="44.38556" lon="3.86779">
        <ele>1433.94</ele>
        <time>2017-05-17T08:58:38Z</time>
      </trkpt>
      <trkpt lat="44.38566" lon="3.868">
        <ele>1434.42</ele>
        <time>2017-05-17T08:58:52Z</time>
      </trkpt>
      <trkpt lat="44.38568" lon="3.86806">
        <ele>1433.94</ele>
        <time>2017-05-17T08:58:56Z</time>
      </trkpt>
      <trkpt lat="44.38572" lon="3.86811">
        <ele>1433.94</ele>
        <time>2017-05-17T08:59:01Z</time>
      </trkpt>
      <trkpt lat="44.38576" lon="3.86817">
        <ele>1434.42</ele>
        <time>2017-05-17T08:59:06Z</time>
      </trkpt>
      <trkpt lat="44.3858" lon="3.86829">
        <ele>1434.91</ele>
        <time>2017-05-17T08:59:12Z</time>
      </trkpt>
      <trkpt lat="44.38579" lon="3.86835">
        <ele>1434.91</ele>
        <time>2017-05-17T08:59:16Z</time>
      </trkpt>
      <trkpt lat="44.38579" lon="3.86866">
        <ele>1434.42</ele>
        <time>2017-05-17T08:59:29Z</time>
      </trkpt>
      <trkpt lat="44.38578" lon="3.86885">
        <ele>1434.91</ele>
        <time>2017-05-17T08:59:39Z</time>
      </trkpt>
      <trkpt lat="44.38579" lon="3.869">
        <ele>1435.87</ele>
        <time>2017-05-17T08:59:49Z</time>
      </trkpt>
      <trkpt lat="44.38579" lon="3.86907">
        <ele>1436.83</ele>
        <time>2017-05-17T08:59:54Z</time>
      </trkpt>
      <trkpt lat="44.3858" lon="3.86922">
        <ele>1437.79</ele>
        <time>2017-05-17T09:00:03Z</time>
      </trkpt>
      <trkpt lat="44.38581" lon="3.86927">
        <ele>1438.27</ele>
        <time>2017-05-17T09:00:07Z</time>
      </trkpt>
      <trkpt lat="44.38582" lon="3.86931">
        <ele>1438.27</ele>
        <time>2017-05-17T09:00:09Z</time>
      </trkpt>
      <trkpt lat="44.38583" lon="3.86941">
        <ele>1438.75</ele>
        <time>2017-05-17T09:00:16Z</time>
      </trkpt>
      <trkpt lat="44.38583" lon="3.86951">
        <ele>1438.75</ele>
        <time>2017-05-17T09:00:29Z</time>
      </trkpt>
      <trkpt lat="44.38582" lon="3.86949">
        <ele>1439.23</ele>
        <time>2017-05-17T09:00:50Z</time>
      </trkpt>
      <trkpt lat="44.38582" lon="3.8695">
        <ele>1439.23</ele>
        <time>2017-05-17T09:01:18Z</time>
      </trkpt>
      <trkpt lat="44.3858" lon="3.86969">
        <ele>1437.79</ele>
        <time>2017-05-17T09:01:31Z</time>
      </trkpt>
      <trkpt lat="44.38581" lon="3.86974">
        <ele>1437.31</ele>
        <time>2017-05-17T09:01:34Z</time>
      </trkpt>
      <trkpt lat="44.38581" lon="3.86991">
        <ele>1435.87</ele>
        <time>2017-05-17T09:01:44Z</time>
      </trkpt>
      <trkpt lat="44.38586" lon="3.87007">
        <ele>1434.91</ele>
        <time>2017-05-17T09:01:55Z</time>
      </trkpt>
      <trkpt lat="44.38586" lon="3.87012">
        <ele>1434.91</ele>
        <time>2017-05-17T09:01:58Z</time>
      </trkpt>
      <trkpt lat="44.38592" lon="3.87022">
        <ele>1434.42</ele>
        <time>2017-05-17T09:02:05Z</time>
      </trkpt>
      <trkpt lat="44.38593" lon="3.87037">
        <ele>1433.94</ele>
        <time>2017-05-17T09:02:13Z</time>
      </trkpt>
      <trkpt lat="44.38596" lon="3.87047">
        <ele>1433.46</ele>
        <time>2017-05-17T09:02:20Z</time>
      </trkpt>
      <trkpt lat="44.38598" lon="3.87063">
        <ele>1432.98</ele>
        <time>2017-05-17T09:02:29Z</time>
      </trkpt>
      <trkpt lat="44.38598" lon="3.87085">
        <ele>1432.98</ele>
        <time>2017-05-17T09:02:44Z</time>
      </trkpt>
      <trkpt lat="44.38599" lon="3.87095">
        <ele>1432.98</ele>
        <time>2017-05-17T09:02:53Z</time>
      </trkpt>
      <trkpt lat="44.38601" lon="3.87111">
        <ele>1432.98</ele>
        <time>2017-05-17T09:03:03Z</time>
      </trkpt>
      <trkpt lat="44.38604" lon="3.87118">
        <ele>1432.5</ele>
        <time>2017-05-17T09:03:09Z</time>
      </trkpt>
      <trkpt lat="44.38611" lon="3.87127">
        <ele>1432.98</ele>
        <time>2017-05-17T09:03:18Z</time>
      </trkpt>
      <trkpt lat="44.38614" lon="3.87128">
        <ele>1432.98</ele>
        <time>2017-05-17T09:03:21Z</time>
      </trkpt>
      <trkpt lat="44.38621" lon="3.87134">
        <ele>1433.46</ele>
        <time>2017-05-17T09:03:30Z</time>
      </trkpt>
      <trkpt lat="44.38623" lon="3.87136">
        <ele>1432.98</ele>
        <time>2017-05-17T09:03:32Z</time>
      </trkpt>
      <trkpt lat="44.38627" lon="3.87138">
        <ele>1432.98</ele>
        <time>2017-05-17T09:03:36Z</time>
      </trkpt>
      <trkpt lat="44.38631" lon="3.8714">
        <ele>1432.98</ele>
        <time>2017-05-17T09:03:39Z</time>
      </trkpt>
      <trkpt lat="44.38634" lon="3.87144">
        <ele>1432.98</ele>
        <time>2017-05-17T09:03:44Z</time>
      </trkpt>
      <trkpt lat="44.38642" lon="3.87157">
        <ele>1432.5</ele>
        <time>2017-05-17T09:03:57Z</time>
      </trkpt>
      <trkpt lat="44.38644" lon="3.87165">
        <ele>1432.02</ele>
        <time>2017-05-17T09:04:00Z</time>
      </trkpt>
      <trkpt lat="44.38649" lon="3.87189">
        <ele>1431.06</ele>
        <time>2017-05-17T09:04:08Z</time>
      </trkpt>
      <trkpt lat="44.38649" lon="3.87211">
        <ele>1430.1</ele>
        <time>2017-05-17T09:04:19Z</time>
      </trkpt>
      <trkpt lat="44.38649" lon="3.87217">
        <ele>1430.1</ele>
        <time>2017-05-17T09:04:23Z</time>
      </trkpt>
      <trkpt lat="44.38648" lon="3.8722">
        <ele>1430.1</ele>
        <time>2017-05-17T09:04:26Z</time>
      </trkpt>
      <trkpt lat="44.38651" lon="3.87245">
        <ele>1430.1</ele>
        <time>2017-05-17T09:04:39Z</time>
      </trkpt>
      <trkpt lat="44.38651" lon="3.87272">
        <ele>1430.1</ele>
        <time>2017-05-17T09:04:51Z</time>
      </trkpt>
      <trkpt lat="44.38651" lon="3.87283">
        <ele>1430.58</ele>
        <time>2017-05-17T09:04:57Z</time>
      </trkpt>
      <trkpt lat="44.38645" lon="3.87307">
        <ele>1430.58</ele>
        <time>2017-05-17T09:05:11Z</time>
      </trkpt>
      <trkpt lat="44.38643" lon="3.87318">
        <ele>1431.06</ele>
        <time>2017-05-17T09:05:17Z</time>
      </trkpt>
      <trkpt lat="44.38639" lon="3.87319">
        <ele>1431.06</ele>
        <time>2017-05-17T09:05:20Z</time>
      </trkpt>
      <trkpt lat="44.38634" lon="3.87318">
        <ele>1430.1</ele>
        <time>2017-05-17T09:05:32Z</time>
      </trkpt>
      <trkpt lat="44.38637" lon="3.87321">
        <ele>1431.06</ele>
        <time>2017-05-17T09:05:46Z</time>
      </trkpt>
      <trkpt lat="44.38637" lon="3.87321">
        <ele>1431.54</ele>
        <time>2017-05-17T09:05:47Z</time>
      </trkpt>
      <trkpt lat="44.38637" lon="3.87325">
        <ele>1431.54</ele>
        <time>2017-05-17T09:05:51Z</time>
      </trkpt>
      <trkpt lat="44.38635" lon="3.87339">
        <ele>1431.06</ele>
        <time>2017-05-17T09:05:59Z</time>
      </trkpt>
      <trkpt lat="44.38628" lon="3.87362">
        <ele>1431.54</ele>
        <time>2017-05-17T09:06:13Z</time>
      </trkpt>
      <trkpt lat="44.38619" lon="3.87385">
        <ele>1431.54</ele>
        <time>2017-05-17T09:06:29Z</time>
      </trkpt>
      <trkpt lat="44.38615" lon="3.87403">
        <ele>1431.06</ele>
        <time>2017-05-17T09:06:42Z</time>
      </trkpt>
      <trkpt lat="44.38613" lon="3.87421">
        <ele>1431.06</ele>
        <time>2017-05-17T09:06:53Z</time>
      </trkpt>
      <trkpt lat="44.38612" lon="3.87426">
        <ele>1431.06</ele>
        <time>2017-05-17T09:06:56Z</time>
      </trkpt>
      <trkpt lat="44.3861" lon="3.87438">
        <ele>1431.06</ele>
        <time>2017-05-17T09:07:05Z</time>
      </trkpt>
      <trkpt lat="44.38609" lon="3.87446">
        <ele>1431.06</ele>
        <time>2017-05-17T09:07:10Z</time>
      </trkpt>
      <trkpt lat="44.38608" lon="3.8746">
        <ele>1431.06</ele>
        <time>2017-05-17T09:07:20Z</time>
      </trkpt>
      <trkpt lat="44.38608" lon="3.87467">
        <ele>1431.06</ele>
        <time>2017-05-17T09:07:24Z</time>
      </trkpt>
      <trkpt lat="44.38603" lon="3.87483">
        <ele>1431.06</ele>
        <time>2017-05-17T09:07:38Z</time>
      </trkpt>
      <trkpt lat="44.38598" lon="3.87481">
        <ele>1431.06</ele>
        <time>2017-05-17T09:07:52Z</time>
      </trkpt>
      <trkpt lat="44.38599" lon="3.87479">
        <ele>1430.58</ele>
        <time>2017-05-17T09:08:14Z</time>
      </trkpt>
      <trkpt lat="44.38597" lon="3.8748">
        <ele>1431.06</ele>
        <time>2017-05-17T09:08:36Z</time>
      </trkpt>
      <trkpt lat="44.38597" lon="3.87481">
        <ele>1431.06</ele>
        <time>2017-05-17T09:08:54Z</time>
      </trkpt>
      <trkpt lat="44.38598" lon="3.87481">
        <ele>1431.06</ele>
        <time>2017-05-17T09:09:14Z</time>
      </trkpt>
      <trkpt lat="44.38601" lon="3.87482">
        <ele>1430.58</ele>
        <time>2017-05-17T09:09:29Z</time>
      </trkpt>
      <trkpt lat="44.38601" lon="3.87482">
        <ele>1430.58</ele>
        <time>2017-05-17T09:09:54Z</time>
      </trkpt>
      <trkpt lat="44.38602" lon="3.87484">
        <ele>1431.06</ele>
        <time>2017-05-17T09:10:24Z</time>
      </trkpt>
      <trkpt lat="44.38603" lon="3.87483">
        <ele>1430.58</ele>
        <time>2017-05-17T09:10:55Z</time>
      </trkpt>
      <trkpt lat="44.38601" lon="3.87484">
        <ele>1431.06</ele>
        <time>2017-05-17T09:11:01Z</time>
      </trkpt>
      <trkpt lat="44.38599" lon="3.87485">
        <ele>1430.58</ele>
        <time>2017-05-17T09:11:03Z</time>
      </trkpt>
      <trkpt lat="44.38589" lon="3.87494">
        <ele>1429.14</ele>
        <time>2017-05-17T09:11:14Z</time>
      </trkpt>
      <trkpt lat="44.38584" lon="3.87498">
        <ele>1430.1</ele>
        <time>2017-05-17T09:11:20Z</time>
      </trkpt>
      <trkpt lat="44.38581" lon="3.875">
        <ele>1428.18</ele>
        <time>2017-05-17T09:11:22Z</time>
      </trkpt>
      <trkpt lat="44.38579" lon="3.87501">
        <ele>1429.14</ele>
        <time>2017-05-17T09:11:24Z</time>
      </trkpt>
      <trkpt lat="44.38568" lon="3.8751">
        <ele>1428.66</ele>
        <time>2017-05-17T09:11:35Z</time>
      </trkpt>
      <trkpt lat="44.38563" lon="3.87513">
        <ele>1428.18</ele>
        <time>2017-05-17T09:11:39Z</time>
      </trkpt>
      <trkpt lat="44.38553" lon="3.87525">
        <ele>1426.73</ele>
        <time>2017-05-17T09:11:53Z</time>
      </trkpt>
      <trkpt lat="44.38553" lon="3.87529">
        <ele>1427.21</ele>
        <time>2017-05-17T09:12:05Z</time>
      </trkpt>
      <trkpt lat="44.38553" lon="3.8753">
        <ele>1428.18</ele>
        <time>2017-05-17T09:12:20Z</time>
      </trkpt>
      <trkpt lat="44.38553" lon="3.87529">
        <ele>1427.21</ele>
        <time>2017-05-17T09:12:49Z</time>
      </trkpt>
      <trkpt lat="44.38552" lon="3.87529">
        <ele>1426.73</ele>
        <time>2017-05-17T09:13:21Z</time>
      </trkpt>
      <trkpt lat="44.38552" lon="3.8753">
        <ele>1426.73</ele>
        <time>2017-05-17T09:13:39Z</time>
      </trkpt>
      <trkpt lat="44.38552" lon="3.8753">
        <ele>1426.25</ele>
        <time>2017-05-17T09:14:03Z</time>
      </trkpt>
      <trkpt lat="44.38552" lon="3.87532">
        <ele>1426.25</ele>
        <time>2017-05-17T09:14:19Z</time>
      </trkpt>
      <trkpt lat="44.38553" lon="3.87533">
        <ele>1426.25</ele>
        <time>2017-05-17T09:14:38Z</time>
      </trkpt>
      <trkpt lat="44.38553" lon="3.87533">
        <ele>1425.29</ele>
        <time>2017-05-17T09:14:44Z</time>
      </trkpt>
      <trkpt lat="44.38554" lon="3.87535">
        <ele>1426.25</ele>
        <time>2017-05-17T09:15:05Z</time>
      </trkpt>
      <trkpt lat="44.38555" lon="3.87536">
        <ele>1424.81</ele>
        <time>2017-05-17T09:15:25Z</time>
      </trkpt>
      <trkpt lat="44.38556" lon="3.87537">
        <ele>1426.25</ele>
        <time>2017-05-17T09:15:50Z</time>
      </trkpt>
      <trkpt lat="44.38556" lon="3.87538">
        <ele>1425.77</ele>
        <time>2017-05-17T09:16:17Z</time>
      </trkpt>
      <trkpt lat="44.38555" lon="3.87539">
        <ele>1426.25</ele>
        <time>2017-05-17T09:16:40Z</time>
      </trkpt>
      <trkpt lat="44.38556" lon="3.8754">
        <ele>1425.77</ele>
        <time>2017-05-17T09:17:08Z</time>
      </trkpt>
      <trkpt lat="44.38557" lon="3.87541">
        <ele>1426.25</ele>
        <time>2017-05-17T09:17:35Z</time>
      </trkpt>
      <trkpt lat="44.38557" lon="3.87542">
        <ele>1426.25</ele>
        <time>2017-05-17T09:18:03Z</time>
      </trkpt>
      <trkpt lat="44.38556" lon="3.87543">
        <ele>1426.25</ele>
        <time>2017-05-17T09:18:25Z</time>
      </trkpt>
      <trkpt lat="44.38554" lon="3.8754">
        <ele>1425.77</ele>
        <time>2017-05-17T09:18:42Z</time>
      </trkpt>
      <trkpt lat="44.38554" lon="3.87536">
        <ele>1426.25</ele>
        <time>2017-05-17T09:18:46Z</time>
      </trkpt>
      <trkpt lat="44.38555" lon="3.87531">
        <ele>1425.77</ele>
        <time>2017-05-17T09:18:59Z</time>
      </trkpt>
      <trkpt lat="44.38554" lon="3.87531">
        <ele>1425.77</ele>
        <time>2017-05-17T09:19:00Z</time>
      </trkpt>
      <trkpt lat="44.38554" lon="3.87524">
        <ele>1425.77</ele>
        <time>2017-05-17T09:19:03Z</time>
      </trkpt>
      <trkpt lat="44.38555" lon="3.87516">
        <ele>1426.25</ele>
        <time>2017-05-17T09:19:08Z</time>
      </trkpt>
      <trkpt lat="44.38558" lon="3.87516">
        <ele>1426.73</ele>
        <time>2017-05-17T09:19:11Z</time>
      </trkpt>
      <trkpt lat="44.38566" lon="3.87508">
        <ele>1427.21</ele>
        <time>2017-05-17T09:19:23Z</time>
      </trkpt>
      <trkpt lat="44.38578" lon="3.87501">
        <ele>1428.18</ele>
        <time>2017-05-17T09:19:36Z</time>
      </trkpt>
      <trkpt lat="44.38587" lon="3.875">
        <ele>1429.14</ele>
        <time>2017-05-17T09:19:44Z</time>
      </trkpt>
      <trkpt lat="44.3859" lon="3.87497">
        <ele>1428.66</ele>
        <time>2017-05-17T09:19:47Z</time>
      </trkpt>
      <trkpt lat="44.38594" lon="3.87496">
        <ele>1429.14</ele>
        <time>2017-05-17T09:19:51Z</time>
      </trkpt>
      <trkpt lat="44.38603" lon="3.87489">
        <ele>1430.1</ele>
        <time>2017-05-17T09:20:02Z</time>
      </trkpt>
      <trkpt lat="44.3861" lon="3.87484">
        <ele>1431.06</ele>
        <time>2017-05-17T09:20:10Z</time>
      </trkpt>
      <trkpt lat="44.38618" lon="3.87478">
        <ele>1431.06</ele>
        <time>2017-05-17T09:20:18Z</time>
      </trkpt>
      <trkpt lat="44.38629" lon="3.87468">
        <ele>1432.5</ele>
        <time>2017-05-17T09:20:31Z</time>
      </trkpt>
      <trkpt lat="44.38641" lon="3.8746">
        <ele>1433.46</ele>
        <time>2017-05-17T09:20:43Z</time>
      </trkpt>
      <trkpt lat="44.38648" lon="3.87453">
        <ele>1434.42</ele>
        <time>2017-05-17T09:20:50Z</time>
      </trkpt>
      <trkpt lat="44.38652" lon="3.87445">
        <ele>1435.87</ele>
        <time>2017-05-17T09:20:59Z</time>
      </trkpt>
      <trkpt lat="44.38653" lon="3.87442">
        <ele>1435.39</ele>
        <time>2017-05-17T09:21:02Z</time>
      </trkpt>
      <trkpt lat="44.38659" lon="3.87426">
        <ele>1437.31</ele>
        <time>2017-05-17T09:21:14Z</time>
      </trkpt>
      <trkpt lat="44.38668" lon="3.87412">
        <ele>1438.27</ele>
        <time>2017-05-17T09:21:26Z</time>
      </trkpt>
      <trkpt lat="44.38669" lon="3.87409">
        <ele>1439.23</ele>
        <time>2017-05-17T09:21:29Z</time>
      </trkpt>
      <trkpt lat="44.38679" lon="3.87393">
        <ele>1439.71</ele>
        <time>2017-05-17T09:21:42Z</time>
      </trkpt>
      <trkpt lat="44.3868" lon="3.87391">
        <ele>1440.67</ele>
        <time>2017-05-17T09:21:44Z</time>
      </trkpt>
      <trkpt lat="44.38683" lon="3.87389">
        <ele>1440.67</ele>
        <time>2017-05-17T09:21:47Z</time>
      </trkpt>
      <trkpt lat="44.38688" lon="3.87382">
        <ele>1440.67</ele>
        <time>2017-05-17T09:21:53Z</time>
      </trkpt>
      <trkpt lat="44.38698" lon="3.87368">
        <ele>1442.6</ele>
        <time>2017-05-17T09:22:06Z</time>
      </trkpt>
      <trkpt lat="44.387" lon="3.87365">
        <ele>1443.08</ele>
        <time>2017-05-17T09:22:09Z</time>
      </trkpt>
      <trkpt lat="44.38703" lon="3.8736">
        <ele>1443.56</ele>
        <time>2017-05-17T09:22:13Z</time>
      </trkpt>
      <trkpt lat="44.38704" lon="3.87357">
        <ele>1444.04</ele>
        <time>2017-05-17T09:22:16Z</time>
      </trkpt>
      <trkpt lat="44.38706" lon="3.87355">
        <ele>1444.52</ele>
        <time>2017-05-17T09:22:18Z</time>
      </trkpt>
      <trkpt lat="44.38713" lon="3.87345">
        <ele>1445.96</ele>
        <time>2017-05-17T09:22:28Z</time>
      </trkpt>
      <trkpt lat="44.38717" lon="3.87343">
        <ele>1445.96</ele>
        <time>2017-05-17T09:22:31Z</time>
      </trkpt>
      <trkpt lat="44.38723" lon="3.87333">
        <ele>1446.92</ele>
        <time>2017-05-17T09:22:40Z</time>
      </trkpt>
      <trkpt lat="44.38725" lon="3.87332">
        <ele>1447.4</ele>
        <time>2017-05-17T09:22:42Z</time>
      </trkpt>
      <trkpt lat="44.3873" lon="3.87321">
        <ele>1447.4</ele>
        <time>2017-05-17T09:22:51Z</time>
      </trkpt>
      <trkpt lat="44.38738" lon="3.87315">
        <ele>1449.32</ele>
        <time>2017-05-17T09:23:01Z</time>
      </trkpt>
      <trkpt lat="44.38746" lon="3.87305">
        <ele>1451.25</ele>
        <time>2017-05-17T09:23:13Z</time>
      </trkpt>
      <trkpt lat="44.3875" lon="3.87301">
        <ele>1451.73</ele>
        <time>2017-05-17T09:23:20Z</time>
      </trkpt>
      <trkpt lat="44.38758" lon="3.87293">
        <ele>1452.69</ele>
        <time>2017-05-17T09:23:32Z</time>
      </trkpt>
      <trkpt lat="44.38762" lon="3.87289">
        <ele>1453.17</ele>
        <time>2017-05-17T09:23:36Z</time>
      </trkpt>
      <trkpt lat="44.38765" lon="3.87288">
        <ele>1453.65</ele>
        <time>2017-05-17T09:23:39Z</time>
      </trkpt>
      <trkpt lat="44.38769" lon="3.87284">
        <ele>1454.13</ele>
        <time>2017-05-17T09:23:43Z</time>
      </trkpt>
      <trkpt lat="44.3877" lon="3.87282">
        <ele>1454.61</ele>
        <time>2017-05-17T09:23:45Z</time>
      </trkpt>
      <trkpt lat="44.38775" lon="3.87276">
        <ele>1455.09</ele>
        <time>2017-05-17T09:23:50Z</time>
      </trkpt>
      <trkpt lat="44.3878" lon="3.87273">
        <ele>1455.57</ele>
        <time>2017-05-17T09:23:56Z</time>
      </trkpt>
      <trkpt lat="44.38785" lon="3.87271">
        <ele>1455.09</ele>
        <time>2017-05-17T09:24:00Z</time>
      </trkpt>
      <trkpt lat="44.38793" lon="3.87268">
        <ele>1456.05</ele>
        <time>2017-05-17T09:24:06Z</time>
      </trkpt>
      <trkpt lat="44.38801" lon="3.87263">
        <ele>1457.5</ele>
        <time>2017-05-17T09:24:17Z</time>
      </trkpt>
      <trkpt lat="44.38803" lon="3.87262">
        <ele>1457.98</ele>
        <time>2017-05-17T09:24:19Z</time>
      </trkpt>
      <trkpt lat="44.3881" lon="3.87258">
        <ele>1458.46</ele>
        <time>2017-05-17T09:24:27Z</time>
      </trkpt>
      <trkpt lat="44.38813" lon="3.87257">
        <ele>1458.46</ele>
        <time>2017-05-17T09:24:29Z</time>
      </trkpt>
      <trkpt lat="44.38824" lon="3.87251">
        <ele>1459.9</ele>
        <time>2017-05-17T09:24:40Z</time>
      </trkpt>
      <trkpt lat="44.38833" lon="3.87248">
        <ele>1460.38</ele>
        <time>2017-05-17T09:24:47Z</time>
      </trkpt>
      <trkpt lat="44.38844" lon="3.87244">
        <ele>1461.34</ele>
        <time>2017-05-17T09:24:58Z</time>
      </trkpt>
      <trkpt lat="44.38848" lon="3.87241">
        <ele>1461.34</ele>
        <time>2017-05-17T09:25:02Z</time>
      </trkpt>
      <trkpt lat="44.38862" lon="3.87239">
        <ele>1462.78</ele>
        <time>2017-05-17T09:25:13Z</time>
      </trkpt>
      <trkpt lat="44.38875" lon="3.87235">
        <ele>1463.26</ele>
        <time>2017-05-17T09:25:25Z</time>
      </trkpt>
      <trkpt lat="44.38889" lon="3.87231">
        <ele>1465.19</ele>
        <time>2017-05-17T09:25:36Z</time>
      </trkpt>
      <trkpt lat="44.38891" lon="3.8723">
        <ele>1465.19</ele>
        <time>2017-05-17T09:25:38Z</time>
      </trkpt>
      <trkpt lat="44.38893" lon="3.8723">
        <ele>1464.71</ele>
        <time>2017-05-17T09:25:40Z</time>
      </trkpt>
      <trkpt lat="44.38901" lon="3.87231">
        <ele>1466.15</ele>
        <time>2017-05-17T09:25:46Z</time>
      </trkpt>
      <trkpt lat="44.38905" lon="3.8723">
        <ele>1466.15</ele>
        <time>2017-05-17T09:25:50Z</time>
      </trkpt>
      <trkpt lat="44.38909" lon="3.87228">
        <ele>1466.15</ele>
        <time>2017-05-17T09:25:54Z</time>
      </trkpt>
      <trkpt lat="44.38919" lon="3.87222">
        <ele>1467.11</ele>
        <time>2017-05-17T09:26:05Z</time>
      </trkpt>
      <trkpt lat="44.38921" lon="3.87223">
        <ele>1468.07</ele>
        <time>2017-05-17T09:26:07Z</time>
      </trkpt>
      <trkpt lat="44.38932" lon="3.87221">
        <ele>1468.07</ele>
        <time>2017-05-17T09:26:16Z</time>
      </trkpt>
      <trkpt lat="44.38936" lon="3.87221">
        <ele>1468.55</ele>
        <time>2017-05-17T09:26:20Z</time>
      </trkpt>
      <trkpt lat="44.38949" lon="3.87217">
        <ele>1469.03</ele>
        <time>2017-05-17T09:26:32Z</time>
      </trkpt>
      <trkpt lat="44.38951" lon="3.87217">
        <ele>1470.47</ele>
        <time>2017-05-17T09:26:35Z</time>
      </trkpt>
      <trkpt lat="44.38954" lon="3.87216">
        <ele>1470.47</ele>
        <time>2017-05-17T09:26:37Z</time>
      </trkpt>
      <trkpt lat="44.38961" lon="3.87213">
        <ele>1469.99</ele>
        <time>2017-05-17T09:26:44Z</time>
      </trkpt>
      <trkpt lat="44.38963" lon="3.87212">
        <ele>1469.51</ele>
        <time>2017-05-17T09:26:46Z</time>
      </trkpt>
      <trkpt lat="44.38974" lon="3.87211">
        <ele>1470.95</ele>
        <time>2017-05-17T09:26:58Z</time>
      </trkpt>
      <trkpt lat="44.38978" lon="3.8721">
        <ele>1471.92</ele>
        <time>2017-05-17T09:27:02Z</time>
      </trkpt>
      <trkpt lat="44.3899" lon="3.87203">
        <ele>1472.4</ele>
        <time>2017-05-17T09:27:14Z</time>
      </trkpt>
      <trkpt lat="44.38995" lon="3.87199">
        <ele>1473.84</ele>
        <time>2017-05-17T09:27:20Z</time>
      </trkpt>
      <trkpt lat="44.39007" lon="3.87191">
        <ele>1474.8</ele>
        <time>2017-05-17T09:27:33Z</time>
      </trkpt>
      <trkpt lat="44.39013" lon="3.87186">
        <ele>1475.76</ele>
        <time>2017-05-17T09:27:40Z</time>
      </trkpt>
      <trkpt lat="44.39018" lon="3.87182">
        <ele>1476.72</ele>
        <time>2017-05-17T09:27:45Z</time>
      </trkpt>
      <trkpt lat="44.39027" lon="3.87176">
        <ele>1476.72</ele>
        <time>2017-05-17T09:27:51Z</time>
      </trkpt>
      <trkpt lat="44.39031" lon="3.87171">
        <ele>1476.24</ele>
        <time>2017-05-17T09:27:56Z</time>
      </trkpt>
      <trkpt lat="44.39035" lon="3.8717">
        <ele>1476.72</ele>
        <time>2017-05-17T09:27:59Z</time>
      </trkpt>
      <trkpt lat="44.3904" lon="3.87166">
        <ele>1477.2</ele>
        <time>2017-05-17T09:28:04Z</time>
      </trkpt>
      <trkpt lat="44.39048" lon="3.8716">
        <ele>1477.68</ele>
        <time>2017-05-17T09:28:12Z</time>
      </trkpt>
      <trkpt lat="44.39059" lon="3.87149">
        <ele>1478.65</ele>
        <time>2017-05-17T09:28:23Z</time>
      </trkpt>
      <trkpt lat="44.39063" lon="3.87145">
        <ele>1479.13</ele>
        <time>2017-05-17T09:28:27Z</time>
      </trkpt>
      <trkpt lat="44.39075" lon="3.87136">
        <ele>1479.13</ele>
        <time>2017-05-17T09:28:38Z</time>
      </trkpt>
      <trkpt lat="44.39082" lon="3.87128">
        <ele>1480.09</ele>
        <time>2017-05-17T09:28:46Z</time>
      </trkpt>
      <trkpt lat="44.39084" lon="3.87127">
        <ele>1480.09</ele>
        <time>2017-05-17T09:28:48Z</time>
      </trkpt>
      <trkpt lat="44.39087" lon="3.87122">
        <ele>1481.05</ele>
        <time>2017-05-17T09:28:52Z</time>
      </trkpt>
      <trkpt lat="44.39089" lon="3.87118">
        <ele>1481.05</ele>
        <time>2017-05-17T09:28:56Z</time>
      </trkpt>
      <trkpt lat="44.39098" lon="3.87106">
        <ele>1482.01</ele>
        <time>2017-05-17T09:29:09Z</time>
      </trkpt>
      <trkpt lat="44.391" lon="3.87102">
        <ele>1482.97</ele>
        <time>2017-05-17T09:29:12Z</time>
      </trkpt>
      <trkpt lat="44.39108" lon="3.87094">
        <ele>1483.45</ele>
        <time>2017-05-17T09:29:21Z</time>
      </trkpt>
      <trkpt lat="44.39117" lon="3.87085">
        <ele>1484.41</ele>
        <time>2017-05-17T09:29:31Z</time>
      </trkpt>
      <trkpt lat="44.3912" lon="3.87083">
        <ele>1484.89</ele>
        <time>2017-05-17T09:29:34Z</time>
      </trkpt>
      <trkpt lat="44.39124" lon="3.87076">
        <ele>1485.37</ele>
        <time>2017-05-17T09:29:40Z</time>
      </trkpt>
      <trkpt lat="44.39126" lon="3.87072">
        <ele>1486.34</ele>
        <time>2017-05-17T09:29:44Z</time>
      </trkpt>
      <trkpt lat="44.39134" lon="3.8706">
        <ele>1486.82</ele>
        <time>2017-05-17T09:29:56Z</time>
      </trkpt>
      <trkpt lat="44.39139" lon="3.8705">
        <ele>1487.78</ele>
        <time>2017-05-17T09:30:05Z</time>
      </trkpt>
      <trkpt lat="44.39141" lon="3.87034">
        <ele>1489.22</ele>
        <time>2017-05-17T09:30:17Z</time>
      </trkpt>
      <trkpt lat="44.39143" lon="3.87016">
        <ele>1490.66</ele>
        <time>2017-05-17T09:30:28Z</time>
      </trkpt>
      <trkpt lat="44.39143" lon="3.87014">
        <ele>1490.18</ele>
        <time>2017-05-17T09:30:29Z</time>
      </trkpt>
      <trkpt lat="44.39144" lon="3.87008">
        <ele>1490.66</ele>
        <time>2017-05-17T09:30:33Z</time>
      </trkpt>
      <trkpt lat="44.39147" lon="3.86997">
        <ele>1491.14</ele>
        <time>2017-05-17T09:30:41Z</time>
      </trkpt>
      <trkpt lat="44.39151" lon="3.86981">
        <ele>1492.1</ele>
        <time>2017-05-17T09:30:52Z</time>
      </trkpt>
      <trkpt lat="44.39152" lon="3.86977">
        <ele>1491.62</ele>
        <time>2017-05-17T09:30:55Z</time>
      </trkpt>
      <trkpt lat="44.39155" lon="3.86972">
        <ele>1492.58</ele>
        <time>2017-05-17T09:30:59Z</time>
      </trkpt>
      <trkpt lat="44.39159" lon="3.86962">
        <ele>1493.06</ele>
        <time>2017-05-17T09:31:06Z</time>
      </trkpt>
      <trkpt lat="44.39161" lon="3.86954">
        <ele>1493.55</ele>
        <time>2017-05-17T09:31:11Z</time>
      </trkpt>
      <trkpt lat="44.39164" lon="3.86939">
        <ele>1494.51</ele>
        <time>2017-05-17T09:31:21Z</time>
      </trkpt>
      <trkpt lat="44.39167" lon="3.86931">
        <ele>1494.99</ele>
        <time>2017-05-17T09:31:26Z</time>
      </trkpt>
      <trkpt lat="44.39168" lon="3.86924">
        <ele>1494.51</ele>
        <time>2017-05-17T09:31:30Z</time>
      </trkpt>
      <trkpt lat="44.39172" lon="3.8691">
        <ele>1495.47</ele>
        <time>2017-05-17T09:31:42Z</time>
      </trkpt>
      <trkpt lat="44.39174" lon="3.86908">
        <ele>1496.43</ele>
        <time>2017-05-17T09:31:56Z</time>
      </trkpt>
      <trkpt lat="44.39174" lon="3.86908">
        <ele>1496.43</ele>
        <time>2017-05-17T09:32:17Z</time>
      </trkpt>
      <trkpt lat="44.39176" lon="3.86908">
        <ele>1496.91</ele>
        <time>2017-05-17T09:32:41Z</time>
      </trkpt>
      <trkpt lat="44.39176" lon="3.86907">
        <ele>1496.43</ele>
        <time>2017-05-17T09:33:09Z</time>
      </trkpt>
      <trkpt lat="44.39175" lon="3.86907">
        <ele>1495.95</ele>
        <time>2017-05-17T09:33:31Z</time>
      </trkpt>
      <trkpt lat="44.39175" lon="3.86905">
        <ele>1496.43</ele>
        <time>2017-05-17T09:33:49Z</time>
      </trkpt>
      <trkpt lat="44.39175" lon="3.86906">
        <ele>1496.43</ele>
        <time>2017-05-17T09:34:19Z</time>
      </trkpt>
      <trkpt lat="44.39175" lon="3.86906">
        <ele>1496.43</ele>
        <time>2017-05-17T09:34:44Z</time>
      </trkpt>
      <trkpt lat="44.39174" lon="3.86905">
        <ele>1496.91</ele>
        <time>2017-05-17T09:35:06Z</time>
      </trkpt>
      <trkpt lat="44.39177" lon="3.86896">
        <ele>1495.95</ele>
        <time>2017-05-17T09:35:16Z</time>
      </trkpt>
      <trkpt lat="44.39177" lon="3.86895">
        <ele>1496.43</ele>
        <time>2017-05-17T09:35:17Z</time>
      </trkpt>
      <trkpt lat="44.39176" lon="3.86889">
        <ele>1496.91</ele>
        <time>2017-05-17T09:35:22Z</time>
      </trkpt>
      <trkpt lat="44.3918" lon="3.86874">
        <ele>1498.35</ele>
        <time>2017-05-17T09:35:34Z</time>
      </trkpt>
      <trkpt lat="44.39183" lon="3.86868">
        <ele>1500.27</ele>
        <time>2017-05-17T09:35:41Z</time>
      </trkpt>
      <trkpt lat="44.39184" lon="3.86867">
        <ele>1500.27</ele>
        <time>2017-05-17T09:35:44Z</time>
      </trkpt>
      <trkpt lat="44.39187" lon="3.86853">
        <ele>1501.72</ele>
        <time>2017-05-17T09:35:57Z</time>
      </trkpt>
      <trkpt lat="44.39192" lon="3.86845">
        <ele>1500.76</ele>
        <time>2017-05-17T09:36:04Z</time>
      </trkpt>
      <trkpt lat="44.39194" lon="3.8684">
        <ele>1501.72</ele>
        <time>2017-05-17T09:36:08Z</time>
      </trkpt>
      <trkpt lat="44.39198" lon="3.86831">
        <ele>1501.72</ele>
        <time>2017-05-17T09:36:15Z</time>
      </trkpt>
      <trkpt lat="44.39204" lon="3.86821">
        <ele>1500.76</ele>
        <time>2017-05-17T09:36:24Z</time>
      </trkpt>
      <trkpt lat="44.39211" lon="3.86816">
        <ele>1501.72</ele>
        <time>2017-05-17T09:36:31Z</time>
      </trkpt>
      <trkpt lat="44.39215" lon="3.86814">
        <ele>1501.72</ele>
        <time>2017-05-17T09:36:34Z</time>
      </trkpt>
      <trkpt lat="44.39227" lon="3.8681">
        <ele>1502.2</ele>
        <time>2017-05-17T09:36:45Z</time>
      </trkpt>
      <trkpt lat="44.39231" lon="3.8681">
        <ele>1503.16</ele>
        <time>2017-05-17T09:36:49Z</time>
      </trkpt>
      <trkpt lat="44.3924" lon="3.86812">
        <ele>1503.16</ele>
        <time>2017-05-17T09:36:57Z</time>
      </trkpt>
      <trkpt lat="44.39245" lon="3.86812">
        <ele>1504.12</ele>
        <time>2017-05-17T09:37:01Z</time>
      </trkpt>
      <trkpt lat="44.39256" lon="3.86818">
        <ele>1505.56</ele>
        <time>2017-05-17T09:37:12Z</time>
      </trkpt>
      <trkpt lat="44.39266" lon="3.8682">
        <ele>1506.04</ele>
        <time>2017-05-17T09:37:23Z</time>
      </trkpt>
      <trkpt lat="44.39279" lon="3.86828">
        <ele>1507.97</ele>
        <time>2017-05-17T09:37:36Z</time>
      </trkpt>
      <trkpt lat="44.39284" lon="3.86832">
        <ele>1509.41</ele>
        <time>2017-05-17T09:37:42Z</time>
      </trkpt>
      <trkpt lat="44.39292" lon="3.86837">
        <ele>1511.33</ele>
        <time>2017-05-17T09:37:53Z</time>
      </trkpt>
      <trkpt lat="44.39295" lon="3.8684">
        <ele>1512.29</ele>
        <time>2017-05-17T09:37:57Z</time>
      </trkpt>
      <trkpt lat="44.393" lon="3.8684">
        <ele>1513.25</ele>
        <time>2017-05-17T09:38:03Z</time>
      </trkpt>
      <trkpt lat="44.39313" lon="3.86842">
        <ele>1514.69</ele>
        <time>2017-05-17T09:38:16Z</time>
      </trkpt>
      <trkpt lat="44.39314" lon="3.86843">
        <ele>1514.69</ele>
        <time>2017-05-17T09:38:17Z</time>
      </trkpt>
      <trkpt lat="44.39325" lon="3.86846">
        <ele>1516.14</ele>
        <time>2017-05-17T09:38:30Z</time>
      </trkpt>
      <trkpt lat="44.39331" lon="3.86849">
        <ele>1519.02</ele>
        <time>2017-05-17T09:38:38Z</time>
      </trkpt>
      <trkpt lat="44.39341" lon="3.86855">
        <ele>1520.46</ele>
        <time>2017-05-17T09:38:52Z</time>
      </trkpt>
      <trkpt lat="44.39348" lon="3.86856">
        <ele>1521.9</ele>
        <time>2017-05-17T09:39:02Z</time>
      </trkpt>
      <trkpt lat="44.39352" lon="3.86858">
        <ele>1522.39</ele>
        <time>2017-05-17T09:39:07Z</time>
      </trkpt>
      <trkpt lat="44.39354" lon="3.86859">
        <ele>1523.35</ele>
        <time>2017-05-17T09:39:09Z</time>
      </trkpt>
      <trkpt lat="44.39363" lon="3.86866">
        <ele>1525.75</ele>
        <time>2017-05-17T09:39:20Z</time>
      </trkpt>
      <trkpt lat="44.39369" lon="3.86871">
        <ele>1526.23</ele>
        <time>2017-05-17T09:39:29Z</time>
      </trkpt>
      <trkpt lat="44.39371" lon="3.86869">
        <ele>1525.27</ele>
        <time>2017-05-17T09:39:33Z</time>
      </trkpt>
      <trkpt lat="44.39375" lon="3.86866">
        <ele>1526.71</ele>
        <time>2017-05-17T09:39:38Z</time>
      </trkpt>
      <trkpt lat="44.39383" lon="3.86854">
        <ele>1527.67</ele>
        <time>2017-05-17T09:39:51Z</time>
      </trkpt>
      <trkpt lat="44.39388" lon="3.86845">
        <ele>1527.67</ele>
        <time>2017-05-17T09:39:58Z</time>
      </trkpt>
      <trkpt lat="44.39394" lon="3.86836">
        <ele>1528.15</ele>
        <time>2017-05-17T09:40:06Z</time>
      </trkpt>
      <trkpt lat="44.39396" lon="3.86834">
        <ele>1528.63</ele>
        <time>2017-05-17T09:40:08Z</time>
      </trkpt>
      <trkpt lat="44.39403" lon="3.86824">
        <ele>1528.15</ele>
        <time>2017-05-17T09:40:16Z</time>
      </trkpt>
      <trkpt lat="44.39406" lon="3.86819">
        <ele>1529.59</ele>
        <time>2017-05-17T09:40:20Z</time>
      </trkpt>
      <trkpt lat="44.39412" lon="3.86807">
        <ele>1530.08</ele>
        <time>2017-05-17T09:40:30Z</time>
      </trkpt>
      <trkpt lat="44.39412" lon="3.86801">
        <ele>1531.04</ele>
        <time>2017-05-17T09:40:34Z</time>
      </trkpt>
      <trkpt lat="44.39415" lon="3.86797">
        <ele>1531.04</ele>
        <time>2017-05-17T09:40:37Z</time>
      </trkpt>
      <trkpt lat="44.39417" lon="3.86791">
        <ele>1531.52</ele>
        <time>2017-05-17T09:40:41Z</time>
      </trkpt>
      <trkpt lat="44.39419" lon="3.86781">
        <ele>1531.52</ele>
        <time>2017-05-17T09:40:48Z</time>
      </trkpt>
      <trkpt lat="44.39423" lon="3.86764">
        <ele>1532</ele>
        <time>2017-05-17T09:41:00Z</time>
      </trkpt>
      <trkpt lat="44.39427" lon="3.86758">
        <ele>1532.48</ele>
        <time>2017-05-17T09:41:05Z</time>
      </trkpt>
      <trkpt lat="44.39431" lon="3.8675">
        <ele>1532.48</ele>
        <time>2017-05-17T09:41:11Z</time>
      </trkpt>
      <trkpt lat="44.39436" lon="3.86737">
        <ele>1534.4</ele>
        <time>2017-05-17T09:41:20Z</time>
      </trkpt>
      <trkpt lat="44.39436" lon="3.86734">
        <ele>1533.92</ele>
        <time>2017-05-17T09:41:22Z</time>
      </trkpt>
      <trkpt lat="44.39443" lon="3.86724">
        <ele>1534.4</ele>
        <time>2017-05-17T09:41:31Z</time>
      </trkpt>
      <trkpt lat="44.39448" lon="3.86718">
        <ele>1534.88</ele>
        <time>2017-05-17T09:41:36Z</time>
      </trkpt>
      <trkpt lat="44.3945" lon="3.86712">
        <ele>1534.88</ele>
        <time>2017-05-17T09:41:41Z</time>
      </trkpt>
      <trkpt lat="44.3946" lon="3.86699">
        <ele>1536.8</ele>
        <time>2017-05-17T09:41:52Z</time>
      </trkpt>
      <trkpt lat="44.39473" lon="3.86685">
        <ele>1538.25</ele>
        <time>2017-05-17T09:42:05Z</time>
      </trkpt>
      <trkpt lat="44.39478" lon="3.86679">
        <ele>1539.21</ele>
        <time>2017-05-17T09:42:11Z</time>
      </trkpt>
      <trkpt lat="44.39487" lon="3.86668">
        <ele>1539.21</ele>
        <time>2017-05-17T09:42:23Z</time>
      </trkpt>
      <trkpt lat="44.39489" lon="3.86666">
        <ele>1539.69</ele>
        <time>2017-05-17T09:42:25Z</time>
      </trkpt>
      <trkpt lat="44.39492" lon="3.8666">
        <ele>1540.65</ele>
        <time>2017-05-17T09:42:30Z</time>
      </trkpt>
      <trkpt lat="44.39497" lon="3.86654">
        <ele>1540.65</ele>
        <time>2017-05-17T09:42:36Z</time>
      </trkpt>
      <trkpt lat="44.395" lon="3.86651">
        <ele>1541.13</ele>
        <time>2017-05-17T09:42:40Z</time>
      </trkpt>
      <trkpt lat="44.39503" lon="3.86648">
        <ele>1542.57</ele>
        <time>2017-05-17T09:42:44Z</time>
      </trkpt>
      <trkpt lat="44.39512" lon="3.86634">
        <ele>1542.09</ele>
        <time>2017-05-17T09:42:57Z</time>
      </trkpt>
      <trkpt lat="44.39516" lon="3.86626">
        <ele>1544.01</ele>
        <time>2017-05-17T09:43:04Z</time>
      </trkpt>
      <trkpt lat="44.39518" lon="3.86624">
        <ele>1543.53</ele>
        <time>2017-05-17T09:43:06Z</time>
      </trkpt>
      <trkpt lat="44.39519" lon="3.86621">
        <ele>1544.5</ele>
        <time>2017-05-17T09:43:09Z</time>
      </trkpt>
      <trkpt lat="44.39527" lon="3.86608">
        <ele>1544.98</ele>
        <time>2017-05-17T09:43:21Z</time>
      </trkpt>
      <trkpt lat="44.39528" lon="3.86607">
        <ele>1544.98</ele>
        <time>2017-05-17T09:43:22Z</time>
      </trkpt>
      <trkpt lat="44.39539" lon="3.86593">
        <ele>1546.42</ele>
        <time>2017-05-17T09:43:35Z</time>
      </trkpt>
      <trkpt lat="44.39544" lon="3.86583">
        <ele>1545.94</ele>
        <time>2017-05-17T09:43:43Z</time>
      </trkpt>
      <trkpt lat="44.39547" lon="3.86579">
        <ele>1547.38</ele>
        <time>2017-05-17T09:43:47Z</time>
      </trkpt>
      <trkpt lat="44.3955" lon="3.86575">
        <ele>1547.86</ele>
        <time>2017-05-17T09:43:51Z</time>
      </trkpt>
      <trkpt lat="44.39559" lon="3.86559">
        <ele>1548.82</ele>
        <time>2017-05-17T09:44:05Z</time>
      </trkpt>
      <trkpt lat="44.3956" lon="3.86558">
        <ele>1549.3</ele>
        <time>2017-05-17T09:44:06Z</time>
      </trkpt>
      <trkpt lat="44.39561" lon="3.86555">
        <ele>1549.78</ele>
        <time>2017-05-17T09:44:09Z</time>
      </trkpt>
      <trkpt lat="44.39564" lon="3.86552">
        <ele>1550.74</ele>
        <time>2017-05-17T09:44:12Z</time>
      </trkpt>
      <trkpt lat="44.39568" lon="3.86538">
        <ele>1550.26</ele>
        <time>2017-05-17T09:44:23Z</time>
      </trkpt>
      <trkpt lat="44.3957" lon="3.86533">
        <ele>1550.26</ele>
        <time>2017-05-17T09:44:27Z</time>
      </trkpt>
      <trkpt lat="44.39572" lon="3.86525">
        <ele>1551.22</ele>
        <time>2017-05-17T09:44:33Z</time>
      </trkpt>
      <trkpt lat="44.39575" lon="3.86509">
        <ele>1552.67</ele>
        <time>2017-05-17T09:44:44Z</time>
      </trkpt>
      <trkpt lat="44.39576" lon="3.86504">
        <ele>1552.19</ele>
        <time>2017-05-17T09:44:48Z</time>
      </trkpt>
      <trkpt lat="44.39577" lon="3.86496">
        <ele>1553.63</ele>
        <time>2017-05-17T09:44:54Z</time>
      </trkpt>
      <trkpt lat="44.39578" lon="3.8649">
        <ele>1554.11</ele>
        <time>2017-05-17T09:44:58Z</time>
      </trkpt>
      <trkpt lat="44.39579" lon="3.86476">
        <ele>1553.63</ele>
        <time>2017-05-17T09:45:08Z</time>
      </trkpt>
      <trkpt lat="44.39578" lon="3.8647">
        <ele>1554.59</ele>
        <time>2017-05-17T09:45:13Z</time>
      </trkpt>
      <trkpt lat="44.39574" lon="3.86458">
        <ele>1556.03</ele>
        <time>2017-05-17T09:45:21Z</time>
      </trkpt>
      <trkpt lat="44.39574" lon="3.8645">
        <ele>1556.51</ele>
        <time>2017-05-17T09:45:28Z</time>
      </trkpt>
      <trkpt lat="44.39572" lon="3.86443">
        <ele>1556.99</ele>
        <time>2017-05-17T09:45:33Z</time>
      </trkpt>
      <trkpt lat="44.39569" lon="3.86421">
        <ele>1556.51</ele>
        <time>2017-05-17T09:45:47Z</time>
      </trkpt>
      <trkpt lat="44.39565" lon="3.86401">
        <ele>1558.43</ele>
        <time>2017-05-17T09:45:59Z</time>
      </trkpt>
      <trkpt lat="44.39566" lon="3.86398">
        <ele>1558.43</ele>
        <time>2017-05-17T09:46:02Z</time>
      </trkpt>
      <trkpt lat="44.39566" lon="3.86394">
        <ele>1558.43</ele>
        <time>2017-05-17T09:46:05Z</time>
      </trkpt>
      <trkpt lat="44.39564" lon="3.86388">
        <ele>1557.95</ele>
        <time>2017-05-17T09:46:10Z</time>
      </trkpt>
      <trkpt lat="44.39564" lon="3.86383">
        <ele>1558.92</ele>
        <time>2017-05-17T09:46:16Z</time>
      </trkpt>
      <trkpt lat="44.39563" lon="3.8638">
        <ele>1558.43</ele>
        <time>2017-05-17T09:46:19Z</time>
      </trkpt>
      <trkpt lat="44.39562" lon="3.86377">
        <ele>1558.92</ele>
        <time>2017-05-17T09:46:21Z</time>
      </trkpt>
      <trkpt lat="44.39561" lon="3.8637">
        <ele>1559.88</ele>
        <time>2017-05-17T09:46:25Z</time>
      </trkpt>
      <trkpt lat="44.3956" lon="3.86355">
        <ele>1559.4</ele>
        <time>2017-05-17T09:46:34Z</time>
      </trkpt>
      <trkpt lat="44.39561" lon="3.86352">
        <ele>1558.92</ele>
        <time>2017-05-17T09:46:36Z</time>
      </trkpt>
      <trkpt lat="44.3956" lon="3.86343">
        <ele>1560.36</ele>
        <time>2017-05-17T09:46:41Z</time>
      </trkpt>
      <trkpt lat="44.39561" lon="3.86338">
        <ele>1560.84</ele>
        <time>2017-05-17T09:46:44Z</time>
      </trkpt>
      <trkpt lat="44.39559" lon="3.8633">
        <ele>1560.84</ele>
        <time>2017-05-17T09:46:49Z</time>
      </trkpt>
      <trkpt lat="44.39559" lon="3.86327">
        <ele>1561.32</ele>
        <time>2017-05-17T09:46:51Z</time>
      </trkpt>
      <trkpt lat="44.39558" lon="3.8632">
        <ele>1561.8</ele>
        <time>2017-05-17T09:46:55Z</time>
      </trkpt>
      <trkpt lat="44.39558" lon="3.86315">
        <ele>1561.32</ele>
        <time>2017-05-17T09:46:58Z</time>
      </trkpt>
      <trkpt lat="44.39558" lon="3.86307">
        <ele>1561.32</ele>
        <time>2017-05-17T09:47:03Z</time>
      </trkpt>
      <trkpt lat="44.39558" lon="3.86284">
        <ele>1563.24</ele>
        <time>2017-05-17T09:47:17Z</time>
      </trkpt>
      <trkpt lat="44.39558" lon="3.86276">
        <ele>1562.76</ele>
        <time>2017-05-17T09:47:22Z</time>
      </trkpt>
      <trkpt lat="44.39559" lon="3.86268">
        <ele>1564.68</ele>
        <time>2017-05-17T09:47:27Z</time>
      </trkpt>
      <trkpt lat="44.3956" lon="3.86248">
        <ele>1565.16</ele>
        <time>2017-05-17T09:47:41Z</time>
      </trkpt>
      <trkpt lat="44.39561" lon="3.86238">
        <ele>1565.16</ele>
        <time>2017-05-17T09:47:48Z</time>
      </trkpt>
      <trkpt lat="44.39562" lon="3.8623">
        <ele>1565.64</ele>
        <time>2017-05-17T09:47:54Z</time>
      </trkpt>
      <trkpt lat="44.39563" lon="3.86226">
        <ele>1567.09</ele>
        <time>2017-05-17T09:47:57Z</time>
      </trkpt>
      <trkpt lat="44.39563" lon="3.8622">
        <ele>1566.12</ele>
        <time>2017-05-17T09:48:01Z</time>
      </trkpt>
      <trkpt lat="44.39566" lon="3.86205">
        <ele>1567.09</ele>
        <time>2017-05-17T09:48:10Z</time>
      </trkpt>
      <trkpt lat="44.39565" lon="3.86198">
        <ele>1567.57</ele>
        <time>2017-05-17T09:48:14Z</time>
      </trkpt>
      <trkpt lat="44.39566" lon="3.86194">
        <ele>1568.53</ele>
        <time>2017-05-17T09:48:16Z</time>
      </trkpt>
      <trkpt lat="44.3957" lon="3.86177">
        <ele>1569.01</ele>
        <time>2017-05-17T09:48:28Z</time>
      </trkpt>
      <trkpt lat="44.39571" lon="3.86166">
        <ele>1569.97</ele>
        <time>2017-05-17T09:48:38Z</time>
      </trkpt>
      <trkpt lat="44.39571" lon="3.86155">
        <ele>1570.45</ele>
        <time>2017-05-17T09:48:45Z</time>
      </trkpt>
      <trkpt lat="44.39572" lon="3.86149">
        <ele>1570.93</ele>
        <time>2017-05-17T09:48:49Z</time>
      </trkpt>
      <trkpt lat="44.39578" lon="3.86128">
        <ele>1572.37</ele>
        <time>2017-05-17T09:49:02Z</time>
      </trkpt>
      <trkpt lat="44.39578" lon="3.86127">
        <ele>1571.89</ele>
        <time>2017-05-17T09:49:03Z</time>
      </trkpt>
      <trkpt lat="44.39577" lon="3.86121">
        <ele>1572.37</ele>
        <time>2017-05-17T09:49:07Z</time>
      </trkpt>
      <trkpt lat="44.3958" lon="3.86101">
        <ele>1572.85</ele>
        <time>2017-05-17T09:49:20Z</time>
      </trkpt>
      <trkpt lat="44.3958" lon="3.86094">
        <ele>1572.85</ele>
        <time>2017-05-17T09:49:24Z</time>
      </trkpt>
      <trkpt lat="44.39585" lon="3.86081">
        <ele>1573.82</ele>
        <time>2017-05-17T09:49:35Z</time>
      </trkpt>
      <trkpt lat="44.39587" lon="3.86066">
        <ele>1575.26</ele>
        <time>2017-05-17T09:49:48Z</time>
      </trkpt>
      <trkpt lat="44.3959" lon="3.86054">
        <ele>1575.74</ele>
        <time>2017-05-17T09:49:56Z</time>
      </trkpt>
      <trkpt lat="44.39591" lon="3.86044">
        <ele>1577.18</ele>
        <time>2017-05-17T09:50:03Z</time>
      </trkpt>
      <trkpt lat="44.39593" lon="3.86034">
        <ele>1577.18</ele>
        <time>2017-05-17T09:50:10Z</time>
      </trkpt>
      <trkpt lat="44.39589" lon="3.86027">
        <ele>1578.14</ele>
        <time>2017-05-17T09:50:17Z</time>
      </trkpt>
      <trkpt lat="44.39584" lon="3.8602">
        <ele>1578.62</ele>
        <time>2017-05-17T09:50:28Z</time>
      </trkpt>
      <trkpt lat="44.39581" lon="3.86011">
        <ele>1579.1</ele>
        <time>2017-05-17T09:50:38Z</time>
      </trkpt>
      <trkpt lat="44.39577" lon="3.85998">
        <ele>1579.58</ele>
        <time>2017-05-17T09:50:49Z</time>
      </trkpt>
      <trkpt lat="44.39574" lon="3.85991">
        <ele>1580.54</ele>
        <time>2017-05-17T09:50:53Z</time>
      </trkpt>
      <trkpt lat="44.3957" lon="3.85973">
        <ele>1581.51</ele>
        <time>2017-05-17T09:51:04Z</time>
      </trkpt>
      <trkpt lat="44.39567" lon="3.85961">
        <ele>1581.99</ele>
        <time>2017-05-17T09:51:14Z</time>
      </trkpt>
      <trkpt lat="44.39566" lon="3.85957">
        <ele>1582.47</ele>
        <time>2017-05-17T09:51:16Z</time>
      </trkpt>
      <trkpt lat="44.39564" lon="3.85952">
        <ele>1582.95</ele>
        <time>2017-05-17T09:51:20Z</time>
      </trkpt>
      <trkpt lat="44.39559" lon="3.85943">
        <ele>1582.95</ele>
        <time>2017-05-17T09:51:26Z</time>
      </trkpt>
      <trkpt lat="44.39552" lon="3.85929">
        <ele>1583.43</ele>
        <time>2017-05-17T09:51:39Z</time>
      </trkpt>
      <trkpt lat="44.39548" lon="3.85919">
        <ele>1585.35</ele>
        <time>2017-05-17T09:51:48Z</time>
      </trkpt>
      <trkpt lat="44.39545" lon="3.8591">
        <ele>1585.83</ele>
        <time>2017-05-17T09:51:53Z</time>
      </trkpt>
      <trkpt lat="44.39539" lon="3.85892">
        <ele>1586.31</ele>
        <time>2017-05-17T09:52:05Z</time>
      </trkpt>
      <trkpt lat="44.39535" lon="3.85885">
        <ele>1586.79</ele>
        <time>2017-05-17T09:52:10Z</time>
      </trkpt>
      <trkpt lat="44.39532" lon="3.85879">
        <ele>1586.31</ele>
        <time>2017-05-17T09:52:14Z</time>
      </trkpt>
      <trkpt lat="44.39531" lon="3.85874">
        <ele>1587.27</ele>
        <time>2017-05-17T09:52:17Z</time>
      </trkpt>
      <trkpt lat="44.39527" lon="3.85864">
        <ele>1587.27</ele>
        <time>2017-05-17T09:52:24Z</time>
      </trkpt>
      <trkpt lat="44.39524" lon="3.85859">
        <ele>1587.27</ele>
        <time>2017-05-17T09:52:28Z</time>
      </trkpt>
      <trkpt lat="44.39522" lon="3.85853">
        <ele>1588.24</ele>
        <time>2017-05-17T09:52:32Z</time>
      </trkpt>
      <trkpt lat="44.39515" lon="3.85841">
        <ele>1587.75</ele>
        <time>2017-05-17T09:52:42Z</time>
      </trkpt>
      <trkpt lat="44.39513" lon="3.85837">
        <ele>1588.72</ele>
        <time>2017-05-17T09:52:45Z</time>
      </trkpt>
      <trkpt lat="44.39511" lon="3.85827">
        <ele>1588.72</ele>
        <time>2017-05-17T09:52:58Z</time>
      </trkpt>
      <trkpt lat="44.39506" lon="3.85819">
        <ele>1590.16</ele>
        <time>2017-05-17T09:53:05Z</time>
      </trkpt>
      <trkpt lat="44.39504" lon="3.85814">
        <ele>1589.68</ele>
        <time>2017-05-17T09:53:09Z</time>
      </trkpt>
      <trkpt lat="44.39498" lon="3.85803">
        <ele>1591.12</ele>
        <time>2017-05-17T09:53:19Z</time>
      </trkpt>
      <trkpt lat="44.39493" lon="3.85789">
        <ele>1591.12</ele>
        <time>2017-05-17T09:53:28Z</time>
      </trkpt>
      <trkpt lat="44.39491" lon="3.85782">
        <ele>1592.08</ele>
        <time>2017-05-17T09:53:33Z</time>
      </trkpt>
      <trkpt lat="44.3949" lon="3.85776">
        <ele>1592.08</ele>
        <time>2017-05-17T09:53:37Z</time>
      </trkpt>
      <trkpt lat="44.39488" lon="3.85772">
        <ele>1592.08</ele>
        <time>2017-05-17T09:53:41Z</time>
      </trkpt>
      <trkpt lat="44.39487" lon="3.85765">
        <ele>1593.52</ele>
        <time>2017-05-17T09:53:45Z</time>
      </trkpt>
      <trkpt lat="44.39484" lon="3.85754">
        <ele>1593.52</ele>
        <time>2017-05-17T09:53:52Z</time>
      </trkpt>
      <trkpt lat="44.39482" lon="3.85739">
        <ele>1594</ele>
        <time>2017-05-17T09:54:00Z</time>
      </trkpt>
      <trkpt lat="44.39481" lon="3.85732">
        <ele>1594.48</ele>
        <time>2017-05-17T09:54:04Z</time>
      </trkpt>
      <trkpt lat="44.39481" lon="3.85721">
        <ele>1594.96</ele>
        <time>2017-05-17T09:54:10Z</time>
      </trkpt>
      <trkpt lat="44.39484" lon="3.85707">
        <ele>1594.96</ele>
        <time>2017-05-17T09:54:23Z</time>
      </trkpt>
      <trkpt lat="44.39484" lon="3.85706">
        <ele>1594.48</ele>
        <time>2017-05-17T09:54:27Z</time>
      </trkpt>
      <trkpt lat="44.39487" lon="3.85704">
        <ele>1594.48</ele>
        <time>2017-05-17T09:54:30Z</time>
      </trkpt>
      <trkpt lat="44.39497" lon="3.85698">
        <ele>1595.45</ele>
        <time>2017-05-17T09:54:40Z</time>
      </trkpt>
      <trkpt lat="44.39502" lon="3.85697">
        <ele>1594.96</ele>
        <time>2017-05-17T09:54:44Z</time>
      </trkpt>
      <trkpt lat="44.39515" lon="3.85694">
        <ele>1594.48</ele>
        <time>2017-05-17T09:54:56Z</time>
      </trkpt>
      <trkpt lat="44.39521" lon="3.85694">
        <ele>1594.96</ele>
        <time>2017-05-17T09:55:01Z</time>
      </trkpt>
      <trkpt lat="44.39527" lon="3.85693">
        <ele>1594.96</ele>
        <time>2017-05-17T09:55:07Z</time>
      </trkpt>
      <trkpt lat="44.39535" lon="3.85692">
        <ele>1595.45</ele>
        <time>2017-05-17T09:55:15Z</time>
      </trkpt>
      <trkpt lat="44.39539" lon="3.85692">
        <ele>1595.93</ele>
        <time>2017-05-17T09:55:18Z</time>
      </trkpt>
      <trkpt lat="44.39558" lon="3.85689">
        <ele>1596.41</ele>
        <time>2017-05-17T09:55:32Z</time>
      </trkpt>
      <trkpt lat="44.39559" lon="3.85689">
        <ele>1596.41</ele>
        <time>2017-05-17T09:55:33Z</time>
      </trkpt>
      <trkpt lat="44.39574" lon="3.85685">
        <ele>1596.89</ele>
        <time>2017-05-17T09:55:45Z</time>
      </trkpt>
      <trkpt lat="44.39579" lon="3.85683">
        <ele>1596.41</ele>
        <time>2017-05-17T09:55:49Z</time>
      </trkpt>
      <trkpt lat="44.39583" lon="3.85683">
        <ele>1596.89</ele>
        <time>2017-05-17T09:55:53Z</time>
      </trkpt>
      <trkpt lat="44.39598" lon="3.85683">
        <ele>1597.37</ele>
        <time>2017-05-17T09:56:06Z</time>
      </trkpt>
      <trkpt lat="44.39608" lon="3.85681">
        <ele>1597.37</ele>
        <time>2017-05-17T09:56:16Z</time>
      </trkpt>
      <trkpt lat="44.39613" lon="3.85679">
        <ele>1597.85</ele>
        <time>2017-05-17T09:56:21Z</time>
      </trkpt>
      <trkpt lat="44.39629" lon="3.85676">
        <ele>1598.33</ele>
        <time>2017-05-17T09:56:34Z</time>
      </trkpt>
      <trkpt lat="44.39643" lon="3.85673">
        <ele>1598.33</ele>
        <time>2017-05-17T09:56:46Z</time>
      </trkpt>
      <trkpt lat="44.3965" lon="3.85673">
        <ele>1599.29</ele>
        <time>2017-05-17T09:56:51Z</time>
      </trkpt>
      <trkpt lat="44.39661" lon="3.85676">
        <ele>1599.29</ele>
        <time>2017-05-17T09:56:59Z</time>
      </trkpt>
      <trkpt lat="44.39671" lon="3.85678">
        <ele>1600.25</ele>
        <time>2017-05-17T09:57:07Z</time>
      </trkpt>
      <trkpt lat="44.39674" lon="3.85679">
        <ele>1600.25</ele>
        <time>2017-05-17T09:57:09Z</time>
      </trkpt>
      <trkpt lat="44.3969" lon="3.85684">
        <ele>1601.21</ele>
        <time>2017-05-17T09:57:22Z</time>
      </trkpt>
      <trkpt lat="44.39705" lon="3.85691">
        <ele>1601.69</ele>
        <time>2017-05-17T09:57:35Z</time>
      </trkpt>
      <trkpt lat="44.3971" lon="3.85691">
        <ele>1600.73</ele>
        <time>2017-05-17T09:57:40Z</time>
      </trkpt>
      <trkpt lat="44.3972" lon="3.85694">
        <ele>1600.73</ele>
        <time>2017-05-17T09:57:49Z</time>
      </trkpt>
      <trkpt lat="44.39732" lon="3.85698">
        <ele>1601.69</ele>
        <time>2017-05-17T09:58:00Z</time>
      </trkpt>
      <trkpt lat="44.39743" lon="3.85701">
        <ele>1601.69</ele>
        <time>2017-05-17T09:58:10Z</time>
      </trkpt>
      <trkpt lat="44.39757" lon="3.85708">
        <ele>1603.14</ele>
        <time>2017-05-17T09:58:22Z</time>
      </trkpt>
      <trkpt lat="44.39758" lon="3.85708">
        <ele>1602.66</ele>
        <time>2017-05-17T09:58:23Z</time>
      </trkpt>
      <trkpt lat="44.39763" lon="3.8571">
        <ele>1602.66</ele>
        <time>2017-05-17T09:58:27Z</time>
      </trkpt>
      <trkpt lat="44.39779" lon="3.85715">
        <ele>1602.66</ele>
        <time>2017-05-17T09:58:39Z</time>
      </trkpt>
      <trkpt lat="44.39783" lon="3.85716">
        <ele>1603.62</ele>
        <time>2017-05-17T09:58:43Z</time>
      </trkpt>
      <trkpt lat="44.39786" lon="3.85716">
        <ele>1603.14</ele>
        <time>2017-05-17T09:58:47Z</time>
      </trkpt>
      <trkpt lat="44.39791" lon="3.85716">
        <ele>1603.14</ele>
        <time>2017-05-17T09:59:00Z</time>
      </trkpt>
      <trkpt lat="44.39791" lon="3.85717">
        <ele>1604.1</ele>
        <time>2017-05-17T09:59:15Z</time>
      </trkpt>
      <trkpt lat="44.39792" lon="3.85722">
        <ele>1604.1</ele>
        <time>2017-05-17T09:59:47Z</time>
      </trkpt>
      <trkpt lat="44.39795" lon="3.85726">
        <ele>1604.1</ele>
        <time>2017-05-17T09:59:58Z</time>
      </trkpt>
      <trkpt lat="44.39799" lon="3.85728">
        <ele>1603.62</ele>
        <time>2017-05-17T10:00:22Z</time>
      </trkpt>
      <trkpt lat="44.39798" lon="3.85729">
        <ele>1603.14</ele>
        <time>2017-05-17T10:00:46Z</time>
      </trkpt>
      <trkpt lat="44.39798" lon="3.85729">
        <ele>1603.14</ele>
        <time>2017-05-17T10:01:13Z</time>
      </trkpt>
      <trkpt lat="44.39798" lon="3.85729">
        <ele>1604.1</ele>
        <time>2017-05-17T10:01:40Z</time>
      </trkpt>
      <trkpt lat="44.39798" lon="3.8573">
        <ele>1603.62</ele>
        <time>2017-05-17T10:02:08Z</time>
      </trkpt>
      <trkpt lat="44.39799" lon="3.85731">
        <ele>1603.14</ele>
        <time>2017-05-17T10:02:36Z</time>
      </trkpt>
      <trkpt lat="44.39799" lon="3.85731">
        <ele>1603.62</ele>
        <time>2017-05-17T10:03:00Z</time>
      </trkpt>
      <trkpt lat="44.39799" lon="3.85731">
        <ele>1603.62</ele>
        <time>2017-05-17T10:03:28Z</time>
      </trkpt>
      <trkpt lat="44.398" lon="3.85732">
        <ele>1604.1</ele>
        <time>2017-05-17T10:03:57Z</time>
      </trkpt>
      <trkpt lat="44.398" lon="3.85732">
        <ele>1604.1</ele>
        <time>2017-05-17T10:04:18Z</time>
      </trkpt>
      <trkpt lat="44.398" lon="3.85732">
        <ele>1603.62</ele>
        <time>2017-05-17T10:04:40Z</time>
      </trkpt>
      <trkpt lat="44.39798" lon="3.85731">
        <ele>1604.1</ele>
        <time>2017-05-17T10:04:52Z</time>
      </trkpt>
      <trkpt lat="44.39798" lon="3.85728">
        <ele>1604.1</ele>
        <time>2017-05-17T10:05:13Z</time>
      </trkpt>
      <trkpt lat="44.39803" lon="3.85725">
        <ele>1604.58</ele>
        <time>2017-05-17T10:05:30Z</time>
      </trkpt>
      <trkpt lat="44.39805" lon="3.85723">
        <ele>1604.1</ele>
        <time>2017-05-17T10:05:32Z</time>
      </trkpt>
      <trkpt lat="44.39817" lon="3.85714">
        <ele>1604.1</ele>
        <time>2017-05-17T10:05:45Z</time>
      </trkpt>
      <trkpt lat="44.39836" lon="3.85704">
        <ele>1604.58</ele>
        <time>2017-05-17T10:06:00Z</time>
      </trkpt>
      <trkpt lat="44.3985" lon="3.85697">
        <ele>1604.1</ele>
        <time>2017-05-17T10:06:14Z</time>
      </trkpt>
      <trkpt lat="44.39857" lon="3.85694">
        <ele>1604.1</ele>
        <time>2017-05-17T10:06:21Z</time>
      </trkpt>
      <trkpt lat="44.39869" lon="3.85687">
        <ele>1604.1</ele>
        <time>2017-05-17T10:06:33Z</time>
      </trkpt>
      <trkpt lat="44.39879" lon="3.8568">
        <ele>1604.58</ele>
        <time>2017-05-17T10:06:42Z</time>
      </trkpt>
      <trkpt lat="44.3989" lon="3.8567">
        <ele>1605.06</ele>
        <time>2017-05-17T10:06:50Z</time>
      </trkpt>
      <trkpt lat="44.39896" lon="3.85668">
        <ele>1605.06</ele>
        <time>2017-05-17T10:06:55Z</time>
      </trkpt>
      <trkpt lat="44.39909" lon="3.85653">
        <ele>1605.06</ele>
        <time>2017-05-17T10:07:09Z</time>
      </trkpt>
      <trkpt lat="44.39918" lon="3.85644">
        <ele>1605.06</ele>
        <time>2017-05-17T10:07:18Z</time>
      </trkpt>
      <trkpt lat="44.39931" lon="3.85625">
        <ele>1605.54</ele>
        <time>2017-05-17T10:07:33Z</time>
      </trkpt>
      <trkpt lat="44.39941" lon="3.85614">
        <ele>1605.06</ele>
        <time>2017-05-17T10:07:43Z</time>
      </trkpt>
      <trkpt lat="44.39951" lon="3.85599">
        <ele>1606.5</ele>
        <time>2017-05-17T10:07:55Z</time>
      </trkpt>
      <trkpt lat="44.39957" lon="3.85593">
        <ele>1606.5</ele>
        <time>2017-05-17T10:08:01Z</time>
      </trkpt>
      <trkpt lat="44.39966" lon="3.85578">
        <ele>1606.5</ele>
        <time>2017-05-17T10:08:14Z</time>
      </trkpt>
      <trkpt lat="44.39969" lon="3.85572">
        <ele>1606.5</ele>
        <time>2017-05-17T10:08:27Z</time>
      </trkpt>
      <trkpt lat="44.39972" lon="3.85572">
        <ele>1607.46</ele>
        <time>2017-05-17T10:08:40Z</time>
      </trkpt>
      <trkpt lat="44.39972" lon="3.85575">
        <ele>1606.98</ele>
        <time>2017-05-17T10:09:00Z</time>
      </trkpt>
      <trkpt lat="44.39975" lon="3.85571">
        <ele>1606.98</ele>
        <time>2017-05-17T10:09:24Z</time>
      </trkpt>
      <trkpt lat="44.39976" lon="3.85569">
        <ele>1606.5</ele>
        <time>2017-05-17T10:09:26Z</time>
      </trkpt>
      <trkpt lat="44.39982" lon="3.85563">
        <ele>1606.98</ele>
        <time>2017-05-17T10:09:39Z</time>
      </trkpt>
      <trkpt lat="44.39985" lon="3.85562">
        <ele>1607.94</ele>
        <time>2017-05-17T10:09:47Z</time>
      </trkpt>
      <trkpt lat="44.39988" lon="3.85562">
        <ele>1608.42</ele>
        <time>2017-05-17T10:09:50Z</time>
      </trkpt>
      <trkpt lat="44.3999" lon="3.85561">
        <ele>1608.42</ele>
        <time>2017-05-17T10:09:53Z</time>
      </trkpt>
      <trkpt lat="44.39997" lon="3.85565">
        <ele>1607.94</ele>
        <time>2017-05-17T10:10:00Z</time>
      </trkpt>
      <trkpt lat="44.40012" lon="3.85573">
        <ele>1606.5</ele>
        <time>2017-05-17T10:10:14Z</time>
      </trkpt>
      <trkpt lat="44.40021" lon="3.85576">
        <ele>1606.5</ele>
        <time>2017-05-17T10:10:28Z</time>
      </trkpt>
      <trkpt lat="44.40027" lon="3.85582">
        <ele>1604.1</ele>
        <time>2017-05-17T10:10:41Z</time>
      </trkpt>
      <trkpt lat="44.40029" lon="3.85585">
        <ele>1602.66</ele>
        <time>2017-05-17T10:10:58Z</time>
      </trkpt>
      <trkpt lat="44.40035" lon="3.85589">
        <ele>1601.69</ele>
        <time>2017-05-17T10:11:11Z</time>
      </trkpt>
      <trkpt lat="44.40036" lon="3.85588">
        <ele>1601.69</ele>
        <time>2017-05-17T10:11:35Z</time>
      </trkpt>
      <trkpt lat="44.40035" lon="3.85588">
        <ele>1602.17</ele>
        <time>2017-05-17T10:12:04Z</time>
      </trkpt>
      <trkpt lat="44.40028" lon="3.85584">
        <ele>1604.1</ele>
        <time>2017-05-17T10:12:17Z</time>
      </trkpt>
      <trkpt lat="44.40021" lon="3.85581">
        <ele>1606.02</ele>
        <time>2017-05-17T10:12:28Z</time>
      </trkpt>
      <trkpt lat="44.40015" lon="3.85578">
        <ele>1606.02</ele>
        <time>2017-05-17T10:12:35Z</time>
      </trkpt>
      <trkpt lat="44.40014" lon="3.85577">
        <ele>1605.54</ele>
        <time>2017-05-17T10:12:37Z</time>
      </trkpt>
      <trkpt lat="44.40011" lon="3.85576">
        <ele>1606.02</ele>
        <time>2017-05-17T10:12:40Z</time>
      </trkpt>
      <trkpt lat="44.39999" lon="3.85571">
        <ele>1607.46</ele>
        <time>2017-05-17T10:12:52Z</time>
      </trkpt>
      <trkpt lat="44.39998" lon="3.85571">
        <ele>1607.46</ele>
        <time>2017-05-17T10:12:53Z</time>
      </trkpt>
      <trkpt lat="44.39987" lon="3.85566">
        <ele>1608.42</ele>
        <time>2017-05-17T10:13:06Z</time>
      </trkpt>
      <trkpt lat="44.39982" lon="3.8556">
        <ele>1607.46</ele>
        <time>2017-05-17T10:13:18Z</time>
      </trkpt>
      <trkpt lat="44.39983" lon="3.85552">
        <ele>1607.46</ele>
        <time>2017-05-17T10:13:25Z</time>
      </trkpt>
      <trkpt lat="44.39989" lon="3.85538">
        <ele>1607.94</ele>
        <time>2017-05-17T10:13:35Z</time>
      </trkpt>
      <trkpt lat="44.3999" lon="3.85534">
        <ele>1608.42</ele>
        <time>2017-05-17T10:13:38Z</time>
      </trkpt>
      <trkpt lat="44.39993" lon="3.85528">
        <ele>1607.94</ele>
        <time>2017-05-17T10:13:43Z</time>
      </trkpt>
      <trkpt lat="44.39998" lon="3.85515">
        <ele>1608.42</ele>
        <time>2017-05-17T10:13:52Z</time>
      </trkpt>
      <trkpt lat="44.4" lon="3.85505">
        <ele>1608.9</ele>
        <time>2017-05-17T10:13:59Z</time>
      </trkpt>
      <trkpt lat="44.40005" lon="3.85487">
        <ele>1610.35</ele>
        <time>2017-05-17T10:14:11Z</time>
      </trkpt>
      <trkpt lat="44.40006" lon="3.85476">
        <ele>1610.35</ele>
        <time>2017-05-17T10:14:19Z</time>
      </trkpt>
      <trkpt lat="44.40006" lon="3.85472">
        <ele>1610.83</ele>
        <time>2017-05-17T10:14:22Z</time>
      </trkpt>
      <trkpt lat="44.40007" lon="3.85467">
        <ele>1610.35</ele>
        <time>2017-05-17T10:14:25Z</time>
      </trkpt>
      <trkpt lat="44.40011" lon="3.85453">
        <ele>1611.31</ele>
        <time>2017-05-17T10:14:35Z</time>
      </trkpt>
      <trkpt lat="44.40012" lon="3.85449">
        <ele>1611.79</ele>
        <time>2017-05-17T10:14:38Z</time>
      </trkpt>
      <trkpt lat="44.40015" lon="3.8543">
        <ele>1613.23</ele>
        <time>2017-05-17T10:14:51Z</time>
      </trkpt>
      <trkpt lat="44.40015" lon="3.85425">
        <ele>1614.19</ele>
        <time>2017-05-17T10:14:55Z</time>
      </trkpt>
      <trkpt lat="44.40016" lon="3.85416">
        <ele>1613.71</ele>
        <time>2017-05-17T10:15:01Z</time>
      </trkpt>
      <trkpt lat="44.40016" lon="3.85401">
        <ele>1613.71</ele>
        <time>2017-05-17T10:15:12Z</time>
      </trkpt>
      <trkpt lat="44.40017" lon="3.854">
        <ele>1613.71</ele>
        <time>2017-05-17T10:15:22Z</time>
      </trkpt>
      <trkpt lat="44.40016" lon="3.85397">
        <ele>1613.71</ele>
        <time>2017-05-17T10:15:25Z</time>
      </trkpt>
      <trkpt lat="44.40016" lon="3.85394">
        <ele>1614.19</ele>
        <time>2017-05-17T10:15:27Z</time>
      </trkpt>
      <trkpt lat="44.40017" lon="3.85377">
        <ele>1615.15</ele>
        <time>2017-05-17T10:15:39Z</time>
      </trkpt>
      <trkpt lat="44.40017" lon="3.8537">
        <ele>1615.63</ele>
        <time>2017-05-17T10:15:44Z</time>
      </trkpt>
      <trkpt lat="44.40017" lon="3.85351">
        <ele>1617.07</ele>
        <time>2017-05-17T10:15:56Z</time>
      </trkpt>
      <trkpt lat="44.40016" lon="3.85342">
        <ele>1617.07</ele>
        <time>2017-05-17T10:16:03Z</time>
      </trkpt>
      <trkpt lat="44.40016" lon="3.85339">
        <ele>1617.56</ele>
        <time>2017-05-17T10:16:05Z</time>
      </trkpt>
      <trkpt lat="44.40017" lon="3.85328">
        <ele>1618.52</ele>
        <time>2017-05-17T10:16:13Z</time>
      </trkpt>
      <trkpt lat="44.40017" lon="3.85319">
        <ele>1618.04</ele>
        <time>2017-05-17T10:16:20Z</time>
      </trkpt>
      <trkpt lat="44.40015" lon="3.85308">
        <ele>1619</ele>
        <time>2017-05-17T10:16:37Z</time>
      </trkpt>
      <trkpt lat="44.40015" lon="3.85307">
        <ele>1618.52</ele>
        <time>2017-05-17T10:16:57Z</time>
      </trkpt>
      <trkpt lat="44.40014" lon="3.85303">
        <ele>1619.48</ele>
        <time>2017-05-17T10:17:02Z</time>
      </trkpt>
      <trkpt lat="44.40013" lon="3.85285">
        <ele>1619.48</ele>
        <time>2017-05-17T10:17:16Z</time>
      </trkpt>
      <trkpt lat="44.40015" lon="3.85275">
        <ele>1620.44</ele>
        <time>2017-05-17T10:17:23Z</time>
      </trkpt>
      <trkpt lat="44.40016" lon="3.85271">
        <ele>1621.4</ele>
        <time>2017-05-17T10:17:26Z</time>
      </trkpt>
      <trkpt lat="44.40019" lon="3.85262">
        <ele>1621.88</ele>
        <time>2017-05-17T10:17:32Z</time>
      </trkpt>
      <trkpt lat="44.40019" lon="3.85258">
        <ele>1619.96</ele>
        <time>2017-05-17T10:17:34Z</time>
      </trkpt>
      <trkpt lat="44.40019" lon="3.85257">
        <ele>1621.4</ele>
        <time>2017-05-17T10:17:35Z</time>
      </trkpt>
      <trkpt lat="44.40019" lon="3.85245">
        <ele>1622.36</ele>
        <time>2017-05-17T10:17:45Z</time>
      </trkpt>
      <trkpt lat="44.40019" lon="3.85242">
        <ele>1622.84</ele>
        <time>2017-05-17T10:17:47Z</time>
      </trkpt>
      <trkpt lat="44.40019" lon="3.85234">
        <ele>1622.84</ele>
        <time>2017-05-17T10:17:53Z</time>
      </trkpt>
      <trkpt lat="44.4002" lon="3.85228">
        <ele>1623.8</ele>
        <time>2017-05-17T10:17:57Z</time>
      </trkpt>
      <trkpt lat="44.40019" lon="3.85223">
        <ele>1623.8</ele>
        <time>2017-05-17T10:18:03Z</time>
      </trkpt>
      <trkpt lat="44.40019" lon="3.85218">
        <ele>1623.8</ele>
        <time>2017-05-17T10:18:06Z</time>
      </trkpt>
      <trkpt lat="44.40021" lon="3.8521">
        <ele>1625.25</ele>
        <time>2017-05-17T10:18:11Z</time>
      </trkpt>
      <trkpt lat="44.40022" lon="3.85208">
        <ele>1624.77</ele>
        <time>2017-05-17T10:18:13Z</time>
      </trkpt>
      <trkpt lat="44.40025" lon="3.85201">
        <ele>1624.28</ele>
        <time>2017-05-17T10:18:19Z</time>
      </trkpt>
      <trkpt lat="44.40026" lon="3.85196">
        <ele>1624.77</ele>
        <time>2017-05-17T10:18:23Z</time>
      </trkpt>
      <trkpt lat="44.40025" lon="3.85192">
        <ele>1625.73</ele>
        <time>2017-05-17T10:18:26Z</time>
      </trkpt>
      <trkpt lat="44.40026" lon="3.85188">
        <ele>1626.21</ele>
        <time>2017-05-17T10:18:29Z</time>
      </trkpt>
      <trkpt lat="44.40027" lon="3.85182">
        <ele>1626.21</ele>
        <time>2017-05-17T10:18:34Z</time>
      </trkpt>
      <trkpt lat="44.40029" lon="3.85178">
        <ele>1626.69</ele>
        <time>2017-05-17T10:18:37Z</time>
      </trkpt>
      <trkpt lat="44.40032" lon="3.85162">
        <ele>1626.69</ele>
        <time>2017-05-17T10:18:49Z</time>
      </trkpt>
      <trkpt lat="44.40032" lon="3.85155">
        <ele>1628.13</ele>
        <time>2017-05-17T10:18:54Z</time>
      </trkpt>
      <trkpt lat="44.40029" lon="3.85148">
        <ele>1627.65</ele>
        <time>2017-05-17T10:19:01Z</time>
      </trkpt>
      <trkpt lat="44.40026" lon="3.85144">
        <ele>1628.13</ele>
        <time>2017-05-17T10:19:05Z</time>
      </trkpt>
      <trkpt lat="44.40024" lon="3.85138">
        <ele>1629.09</ele>
        <time>2017-05-17T10:19:11Z</time>
      </trkpt>
      <trkpt lat="44.40023" lon="3.85137">
        <ele>1629.09</ele>
        <time>2017-05-17T10:19:12Z</time>
      </trkpt>
      <trkpt lat="44.40015" lon="3.85125">
        <ele>1630.05</ele>
        <time>2017-05-17T10:19:24Z</time>
      </trkpt>
      <trkpt lat="44.40011" lon="3.85122">
        <ele>1630.05</ele>
        <time>2017-05-17T10:19:29Z</time>
      </trkpt>
      <trkpt lat="44.40001" lon="3.85115">
        <ele>1630.53</ele>
        <time>2017-05-17T10:19:41Z</time>
      </trkpt>
      <trkpt lat="44.39996" lon="3.85109">
        <ele>1631.98</ele>
        <time>2017-05-17T10:19:47Z</time>
      </trkpt>
      <trkpt lat="44.39988" lon="3.85097">
        <ele>1632.46</ele>
        <time>2017-05-17T10:20:01Z</time>
      </trkpt>
      <trkpt lat="44.3998" lon="3.85087">
        <ele>1631.98</ele>
        <time>2017-05-17T10:20:11Z</time>
      </trkpt>
      <trkpt lat="44.39971" lon="3.85078">
        <ele>1632.94</ele>
        <time>2017-05-17T10:20:24Z</time>
      </trkpt>
      <trkpt lat="44.39961" lon="3.85069">
        <ele>1633.9</ele>
        <time>2017-05-17T10:20:37Z</time>
      </trkpt>
      <trkpt lat="44.39951" lon="3.8506">
        <ele>1634.86</ele>
        <time>2017-05-17T10:20:50Z</time>
      </trkpt>
      <trkpt lat="44.39947" lon="3.85054">
        <ele>1635.34</ele>
        <time>2017-05-17T10:20:56Z</time>
      </trkpt>
      <trkpt lat="44.39939" lon="3.85048">
        <ele>1635.82</ele>
        <time>2017-05-17T10:21:04Z</time>
      </trkpt>
      <trkpt lat="44.39931" lon="3.85042">
        <ele>1636.3</ele>
        <time>2017-05-17T10:21:14Z</time>
      </trkpt>
      <trkpt lat="44.39926" lon="3.8504">
        <ele>1636.3</ele>
        <time>2017-05-17T10:21:19Z</time>
      </trkpt>
      <trkpt lat="44.39921" lon="3.85035">
        <ele>1636.78</ele>
        <time>2017-05-17T10:21:26Z</time>
      </trkpt>
      <trkpt lat="44.39917" lon="3.85032">
        <ele>1636.78</ele>
        <time>2017-05-17T10:21:30Z</time>
      </trkpt>
      <trkpt lat="44.39914" lon="3.85032">
        <ele>1637.26</ele>
        <time>2017-05-17T10:21:33Z</time>
      </trkpt>
      <trkpt lat="44.39902" lon="3.85022">
        <ele>1638.7</ele>
        <time>2017-05-17T10:21:46Z</time>
      </trkpt>
      <trkpt lat="44.399" lon="3.85019">
        <ele>1638.7</ele>
        <time>2017-05-17T10:21:49Z</time>
      </trkpt>
      <trkpt lat="44.39897" lon="3.85016">
        <ele>1638.7</ele>
        <time>2017-05-17T10:21:52Z</time>
      </trkpt>
      <trkpt lat="44.39883" lon="3.85004">
        <ele>1640.15</ele>
        <time>2017-05-17T10:22:08Z</time>
      </trkpt>
      <trkpt lat="44.39883" lon="3.84991">
        <ele>1641.11</ele>
        <time>2017-05-17T10:22:18Z</time>
      </trkpt>
      <trkpt lat="44.39891" lon="3.84978">
        <ele>1641.59</ele>
        <time>2017-05-17T10:22:30Z</time>
      </trkpt>
      <trkpt lat="44.39895" lon="3.84969">
        <ele>1643.03</ele>
        <time>2017-05-17T10:22:37Z</time>
      </trkpt>
      <trkpt lat="44.39898" lon="3.84958">
        <ele>1643.03</ele>
        <time>2017-05-17T10:22:46Z</time>
      </trkpt>
      <trkpt lat="44.39899" lon="3.84948">
        <ele>1644.47</ele>
        <time>2017-05-17T10:22:53Z</time>
      </trkpt>
      <trkpt lat="44.399" lon="3.84944">
        <ele>1644.47</ele>
        <time>2017-05-17T10:22:56Z</time>
      </trkpt>
      <trkpt lat="44.39906" lon="3.84931">
        <ele>1645.43</ele>
        <time>2017-05-17T10:23:07Z</time>
      </trkpt>
      <trkpt lat="44.39914" lon="3.84918">
        <ele>1646.4</ele>
        <time>2017-05-17T10:23:19Z</time>
      </trkpt>
      <trkpt lat="44.39916" lon="3.84916">
        <ele>1646.4</ele>
        <time>2017-05-17T10:23:22Z</time>
      </trkpt>
      <trkpt lat="44.39924" lon="3.849">
        <ele>1647.36</ele>
        <time>2017-05-17T10:23:35Z</time>
      </trkpt>
      <trkpt lat="44.39932" lon="3.8489">
        <ele>1648.32</ele>
        <time>2017-05-17T10:23:46Z</time>
      </trkpt>
      <trkpt lat="44.3994" lon="3.84886">
        <ele>1648.32</ele>
        <time>2017-05-17T10:23:57Z</time>
      </trkpt>
      <trkpt lat="44.39942" lon="3.84876">
        <ele>1649.28</ele>
        <time>2017-05-17T10:24:04Z</time>
      </trkpt>
      <trkpt lat="44.39942" lon="3.84874">
        <ele>1649.28</ele>
        <time>2017-05-17T10:24:06Z</time>
      </trkpt>
      <trkpt lat="44.39944" lon="3.8487">
        <ele>1649.76</ele>
        <time>2017-05-17T10:24:09Z</time>
      </trkpt>
      <trkpt lat="44.39946" lon="3.84869">
        <ele>1649.28</ele>
        <time>2017-05-17T10:24:11Z</time>
      </trkpt>
      <trkpt lat="44.39948" lon="3.84866">
        <ele>1649.76</ele>
        <time>2017-05-17T10:24:14Z</time>
      </trkpt>
      <trkpt lat="44.39957" lon="3.84855">
        <ele>1650.72</ele>
        <time>2017-05-17T10:24:27Z</time>
      </trkpt>
      <trkpt lat="44.39963" lon="3.84842">
        <ele>1651.68</ele>
        <time>2017-05-17T10:24:39Z</time>
      </trkpt>
      <trkpt lat="44.39965" lon="3.8484">
        <ele>1652.16</ele>
        <time>2017-05-17T10:24:41Z</time>
      </trkpt>
      <trkpt lat="44.39968" lon="3.84825">
        <ele>1652.16</ele>
        <time>2017-05-17T10:24:53Z</time>
      </trkpt>
      <trkpt lat="44.39968" lon="3.84822">
        <ele>1653.12</ele>
        <time>2017-05-17T10:24:55Z</time>
      </trkpt>
      <trkpt lat="44.39968" lon="3.84817">
        <ele>1651.68</ele>
        <time>2017-05-17T10:24:58Z</time>
      </trkpt>
      <trkpt lat="44.39972" lon="3.84797">
        <ele>1652.16</ele>
        <time>2017-05-17T10:25:12Z</time>
      </trkpt>
      <trkpt lat="44.39974" lon="3.84794">
        <ele>1654.09</ele>
        <time>2017-05-17T10:25:15Z</time>
      </trkpt>
      <trkpt lat="44.39977" lon="3.84793">
        <ele>1653.12</ele>
        <time>2017-05-17T10:25:17Z</time>
      </trkpt>
      <trkpt lat="44.39983" lon="3.84786">
        <ele>1655.05</ele>
        <time>2017-05-17T10:25:29Z</time>
      </trkpt>
      <trkpt lat="44.39986" lon="3.84786">
        <ele>1655.05</ele>
        <time>2017-05-17T10:25:54Z</time>
      </trkpt>
      <trkpt lat="44.39987" lon="3.84785">
        <ele>1655.05</ele>
        <time>2017-05-17T10:26:00Z</time>
      </trkpt>
      <trkpt lat="44.39987" lon="3.84784">
        <ele>1655.53</ele>
        <time>2017-05-17T10:26:27Z</time>
      </trkpt>
      <trkpt lat="44.39988" lon="3.84784">
        <ele>1655.05</ele>
        <time>2017-05-17T10:26:53Z</time>
      </trkpt>
      <trkpt lat="44.39988" lon="3.84783">
        <ele>1655.05</ele>
        <time>2017-05-17T10:27:14Z</time>
      </trkpt>
      <trkpt lat="44.39988" lon="3.84781">
        <ele>1654.57</ele>
        <time>2017-05-17T10:27:40Z</time>
      </trkpt>
      <trkpt lat="44.39991" lon="3.84779">
        <ele>1656.01</ele>
        <time>2017-05-17T10:27:57Z</time>
      </trkpt>
      <trkpt lat="44.39992" lon="3.84778">
        <ele>1654.57</ele>
        <time>2017-05-17T10:27:59Z</time>
      </trkpt>
      <trkpt lat="44.39994" lon="3.84774">
        <ele>1655.05</ele>
        <time>2017-05-17T10:28:02Z</time>
      </trkpt>
      <trkpt lat="44.4" lon="3.84768">
        <ele>1656.97</ele>
        <time>2017-05-17T10:28:10Z</time>
      </trkpt>
      <trkpt lat="44.40008" lon="3.84756">
        <ele>1658.41</ele>
        <time>2017-05-17T10:28:23Z</time>
      </trkpt>
      <trkpt lat="44.40016" lon="3.84743">
        <ele>1659.37</ele>
        <time>2017-05-17T10:28:38Z</time>
      </trkpt>
      <trkpt lat="44.4002" lon="3.84728">
        <ele>1660.81</ele>
        <time>2017-05-17T10:28:51Z</time>
      </trkpt>
      <trkpt lat="44.4002" lon="3.84727">
        <ele>1660.81</ele>
        <time>2017-05-17T10:28:52Z</time>
      </trkpt>
      <trkpt lat="44.40025" lon="3.84719">
        <ele>1662.26</ele>
        <time>2017-05-17T10:29:02Z</time>
      </trkpt>
      <trkpt lat="44.40033" lon="3.84711">
        <ele>1663.7</ele>
        <time>2017-05-17T10:29:16Z</time>
      </trkpt>
      <trkpt lat="44.40037" lon="3.84707">
        <ele>1665.14</ele>
        <time>2017-05-17T10:29:25Z</time>
      </trkpt>
      <trkpt lat="44.40043" lon="3.84705">
        <ele>1666.58</ele>
        <time>2017-05-17T10:29:33Z</time>
      </trkpt>
      <trkpt lat="44.40048" lon="3.84696">
        <ele>1668.02</ele>
        <time>2017-05-17T10:29:44Z</time>
      </trkpt>
      <trkpt lat="44.40053" lon="3.84688">
        <ele>1669.47</ele>
        <time>2017-05-17T10:29:54Z</time>
      </trkpt>
      <trkpt lat="44.40056" lon="3.84684">
        <ele>1669.47</ele>
        <time>2017-05-17T10:29:58Z</time>
      </trkpt>
      <trkpt lat="44.40058" lon="3.84682">
        <ele>1669.95</ele>
        <time>2017-05-17T10:30:01Z</time>
      </trkpt>
      <trkpt lat="44.40062" lon="3.84675">
        <ele>1668.99</ele>
        <time>2017-05-17T10:30:07Z</time>
      </trkpt>
      <trkpt lat="44.40062" lon="3.8467">
        <ele>1668.51</ele>
        <time>2017-05-17T10:30:11Z</time>
      </trkpt>
      <trkpt lat="44.40062" lon="3.84666">
        <ele>1669.95</ele>
        <time>2017-05-17T10:30:13Z</time>
      </trkpt>
      <trkpt lat="44.40063" lon="3.84663">
        <ele>1669.47</ele>
        <time>2017-05-17T10:30:16Z</time>
      </trkpt>
      <trkpt lat="44.40065" lon="3.84659">
        <ele>1670.91</ele>
        <time>2017-05-17T10:30:20Z</time>
      </trkpt>
      <trkpt lat="44.40073" lon="3.84649">
        <ele>1672.35</ele>
        <time>2017-05-17T10:30:32Z</time>
      </trkpt>
      <trkpt lat="44.40082" lon="3.84644">
        <ele>1673.31</ele>
        <time>2017-05-17T10:30:43Z</time>
      </trkpt>
      <trkpt lat="44.40091" lon="3.84643">
        <ele>1675.72</ele>
        <time>2017-05-17T10:30:55Z</time>
      </trkpt>
      <trkpt lat="44.40091" lon="3.84643">
        <ele>1675.72</ele>
        <time>2017-05-17T10:30:56Z</time>
      </trkpt>
      <trkpt lat="44.401" lon="3.84637">
        <ele>1676.2</ele>
        <time>2017-05-17T10:31:09Z</time>
      </trkpt>
      <trkpt lat="44.40103" lon="3.84629">
        <ele>1678.6</ele>
        <time>2017-05-17T10:31:18Z</time>
      </trkpt>
      <trkpt lat="44.40105" lon="3.84621">
        <ele>1679.56</ele>
        <time>2017-05-17T10:31:28Z</time>
      </trkpt>
      <trkpt lat="44.40106" lon="3.84619">
        <ele>1678.12</ele>
        <time>2017-05-17T10:31:44Z</time>
      </trkpt>
      <trkpt lat="44.40108" lon="3.84619">
        <ele>1679.08</ele>
        <time>2017-05-17T10:32:00Z</time>
      </trkpt>
      <trkpt lat="44.4011" lon="3.84622">
        <ele>1682.44</ele>
        <time>2017-05-17T10:32:24Z</time>
      </trkpt>
      <trkpt lat="44.4011" lon="3.84623">
        <ele>1682.93</ele>
        <time>2017-05-17T10:32:25Z</time>
      </trkpt>
      <trkpt lat="44.4011" lon="3.84624">
        <ele>1678.12</ele>
        <time>2017-05-17T10:32:32Z</time>
      </trkpt>
      <trkpt lat="44.40109" lon="3.84624">
        <ele>1678.6</ele>
        <time>2017-05-17T10:32:40Z</time>
      </trkpt>
      <trkpt lat="44.40109" lon="3.84621">
        <ele>1681.96</ele>
        <time>2017-05-17T10:32:43Z</time>
      </trkpt>
      <trkpt lat="44.40109" lon="3.8462">
        <ele>1680.04</ele>
        <time>2017-05-17T10:32:44Z</time>
      </trkpt>
      <trkpt lat="44.4011" lon="3.8462">
        <ele>1678.12</ele>
        <time>2017-05-17T10:32:46Z</time>
      </trkpt>
      <trkpt lat="44.4011" lon="3.8462">
        <ele>1677.16</ele>
        <time>2017-05-17T10:32:47Z</time>
      </trkpt>
      <trkpt lat="44.40106" lon="3.84618">
        <ele>1678.6</ele>
        <time>2017-05-17T10:32:52Z</time>
      </trkpt>
      <trkpt lat="44.40099" lon="3.84611">
        <ele>1681.48</ele>
        <time>2017-05-17T10:33:04Z</time>
      </trkpt>
      <trkpt lat="44.40096" lon="3.84604">
        <ele>1682.93</ele>
        <time>2017-05-17T10:33:16Z</time>
      </trkpt>
      <trkpt lat="44.40095" lon="3.84605">
        <ele>1683.41</ele>
        <time>2017-05-17T10:33:30Z</time>
      </trkpt>
      <trkpt lat="44.40095" lon="3.84605">
        <ele>1679.56</ele>
        <time>2017-05-17T10:33:35Z</time>
      </trkpt>
      <trkpt lat="44.40095" lon="3.84606">
        <ele>1682.93</ele>
        <time>2017-05-17T10:33:36Z</time>
      </trkpt>
      <trkpt lat="44.40095" lon="3.84606">
        <ele>1683.41</ele>
        <time>2017-05-17T10:33:37Z</time>
      </trkpt>
      <trkpt lat="44.40095" lon="3.84606">
        <ele>1677.16</ele>
        <time>2017-05-17T10:33:41Z</time>
      </trkpt>
      <trkpt lat="44.40095" lon="3.84606">
        <ele>1678.12</ele>
        <time>2017-05-17T10:33:42Z</time>
      </trkpt>
      <trkpt lat="44.40094" lon="3.84607">
        <ele>1681.96</ele>
        <time>2017-05-17T10:33:46Z</time>
      </trkpt>
      <trkpt lat="44.40094" lon="3.84607">
        <ele>1680.52</ele>
        <time>2017-05-17T10:33:50Z</time>
      </trkpt>
      <trkpt lat="44.40094" lon="3.84607">
        <ele>1682.44</ele>
        <time>2017-05-17T10:34:00Z</time>
      </trkpt>
      <trkpt lat="44.40093" lon="3.84608">
        <ele>1681</ele>
        <time>2017-05-17T10:34:20Z</time>
      </trkpt>
      <trkpt lat="44.40093" lon="3.84608">
        <ele>1681</ele>
        <time>2017-05-17T10:34:28Z</time>
      </trkpt>
      <trkpt lat="44.40093" lon="3.84606">
        <ele>1682.44</ele>
        <time>2017-05-17T10:34:44Z</time>
      </trkpt>
      <trkpt lat="44.40093" lon="3.84606">
        <ele>1680.04</ele>
        <time>2017-05-17T10:35:01Z</time>
      </trkpt>
      <trkpt lat="44.40093" lon="3.84605">
        <ele>1681.48</ele>
        <time>2017-05-17T10:35:04Z</time>
      </trkpt>
      <trkpt lat="44.40096" lon="3.84603">
        <ele>1682.44</ele>
        <time>2017-05-17T10:35:17Z</time>
      </trkpt>
      <trkpt lat="44.40096" lon="3.84604">
        <ele>1681.96</ele>
        <time>2017-05-17T10:35:35Z</time>
      </trkpt>
      <trkpt lat="44.40096" lon="3.84608">
        <ele>1681.48</ele>
        <time>2017-05-17T10:35:48Z</time>
      </trkpt>
      <trkpt lat="44.401" lon="3.84612">
        <ele>1678.12</ele>
        <time>2017-05-17T10:35:59Z</time>
      </trkpt>
      <trkpt lat="44.40101" lon="3.84612">
        <ele>1679.56</ele>
        <time>2017-05-17T10:36:00Z</time>
      </trkpt>
      <trkpt lat="44.40105" lon="3.84615">
        <ele>1679.08</ele>
        <time>2017-05-17T10:36:13Z</time>
      </trkpt>
      <trkpt lat="44.40107" lon="3.84613">
        <ele>1678.12</ele>
        <time>2017-05-17T10:36:34Z</time>
      </trkpt>
      <trkpt lat="44.40115" lon="3.84612">
        <ele>1677.64</ele>
        <time>2017-05-17T10:36:44Z</time>
      </trkpt>
      <trkpt lat="44.40122" lon="3.84608">
        <ele>1676.68</ele>
        <time>2017-05-17T10:36:53Z</time>
      </trkpt>
      <trkpt lat="44.40125" lon="3.84599">
        <ele>1675.72</ele>
        <time>2017-05-17T10:37:04Z</time>
      </trkpt>
      <trkpt lat="44.40127" lon="3.84598">
        <ele>1676.68</ele>
        <time>2017-05-17T10:37:21Z</time>
      </trkpt>
      <trkpt lat="44.40128" lon="3.84598">
        <ele>1675.72</ele>
        <time>2017-05-17T10:37:35Z</time>
      </trkpt>
      <trkpt lat="44.40134" lon="3.84595">
        <ele>1674.75</ele>
        <time>2017-05-17T10:37:47Z</time>
      </trkpt>
      <trkpt lat="44.40142" lon="3.84592">
        <ele>1672.83</ele>
        <time>2017-05-17T10:38:00Z</time>
      </trkpt>
      <trkpt lat="44.40143" lon="3.84592">
        <ele>1672.83</ele>
        <time>2017-05-17T10:38:01Z</time>
      </trkpt>
      <trkpt lat="44.40144" lon="3.84593">
        <ele>1672.35</ele>
        <time>2017-05-17T10:38:02Z</time>
      </trkpt>
      <trkpt lat="44.40148" lon="3.84594">
        <ele>1672.35</ele>
        <time>2017-05-17T10:38:07Z</time>
      </trkpt>
      <trkpt lat="44.40152" lon="3.84594">
        <ele>1671.87</ele>
        <time>2017-05-17T10:38:10Z</time>
      </trkpt>
      <trkpt lat="44.40161" lon="3.84591">
        <ele>1672.35</ele>
        <time>2017-05-17T10:38:21Z</time>
      </trkpt>
      <trkpt lat="44.40164" lon="3.84591">
        <ele>1671.39</ele>
        <time>2017-05-17T10:38:24Z</time>
      </trkpt>
      <trkpt lat="44.40168" lon="3.84593">
        <ele>1670.43</ele>
        <time>2017-05-17T10:38:28Z</time>
      </trkpt>
      <trkpt lat="44.4017" lon="3.84593">
        <ele>1671.39</ele>
        <time>2017-05-17T10:38:30Z</time>
      </trkpt>
      <trkpt lat="44.40183" lon="3.84598">
        <ele>1669.47</ele>
        <time>2017-05-17T10:38:44Z</time>
      </trkpt>
      <trkpt lat="44.40186" lon="3.84598">
        <ele>1668.99</ele>
        <time>2017-05-17T10:38:47Z</time>
      </trkpt>
      <trkpt lat="44.4019" lon="3.84596">
        <ele>1669.47</ele>
        <time>2017-05-17T10:38:51Z</time>
      </trkpt>
      <trkpt lat="44.40198" lon="3.84594">
        <ele>1667.06</ele>
        <time>2017-05-17T10:39:00Z</time>
      </trkpt>
      <trkpt lat="44.4021" lon="3.84601">
        <ele>1665.62</ele>
        <time>2017-05-17T10:39:14Z</time>
      </trkpt>
      <trkpt lat="44.40218" lon="3.84602">
        <ele>1665.14</ele>
        <time>2017-05-17T10:39:23Z</time>
      </trkpt>
      <trkpt lat="44.40221" lon="3.84602">
        <ele>1664.66</ele>
        <time>2017-05-17T10:39:26Z</time>
      </trkpt>
      <trkpt lat="44.40225" lon="3.84604">
        <ele>1664.18</ele>
        <time>2017-05-17T10:39:30Z</time>
      </trkpt>
      <trkpt lat="44.40231" lon="3.84605">
        <ele>1663.7</ele>
        <time>2017-05-17T10:39:35Z</time>
      </trkpt>
      <trkpt lat="44.40234" lon="3.84607">
        <ele>1663.7</ele>
        <time>2017-05-17T10:39:39Z</time>
      </trkpt>
      <trkpt lat="44.40243" lon="3.84607">
        <ele>1661.3</ele>
        <time>2017-05-17T10:39:49Z</time>
      </trkpt>
      <trkpt lat="44.40248" lon="3.84608">
        <ele>1659.85</ele>
        <time>2017-05-17T10:39:55Z</time>
      </trkpt>
      <trkpt lat="44.40258" lon="3.84616">
        <ele>1658.89</ele>
        <time>2017-05-17T10:40:06Z</time>
      </trkpt>
      <trkpt lat="44.40262" lon="3.84614">
        <ele>1659.37</ele>
        <time>2017-05-17T10:40:19Z</time>
      </trkpt>
      <trkpt lat="44.40262" lon="3.84614">
        <ele>1658.41</ele>
        <time>2017-05-17T10:40:20Z</time>
      </trkpt>
      <trkpt lat="44.40264" lon="3.8461">
        <ele>1657.93</ele>
        <time>2017-05-17T10:40:23Z</time>
      </trkpt>
      <trkpt lat="44.40268" lon="3.84606">
        <ele>1657.93</ele>
        <time>2017-05-17T10:40:29Z</time>
      </trkpt>
      <trkpt lat="44.40269" lon="3.84604">
        <ele>1657.93</ele>
        <time>2017-05-17T10:40:31Z</time>
      </trkpt>
      <trkpt lat="44.40272" lon="3.84602">
        <ele>1657.93</ele>
        <time>2017-05-17T10:40:34Z</time>
      </trkpt>
      <trkpt lat="44.40274" lon="3.846">
        <ele>1656.97</ele>
        <time>2017-05-17T10:40:36Z</time>
      </trkpt>
      <trkpt lat="44.40285" lon="3.84591">
        <ele>1656.01</ele>
        <time>2017-05-17T10:40:48Z</time>
      </trkpt>
      <trkpt lat="44.40286" lon="3.8459">
        <ele>1655.53</ele>
        <time>2017-05-17T10:40:49Z</time>
      </trkpt>
      <trkpt lat="44.40288" lon="3.84587">
        <ele>1655.05</ele>
        <time>2017-05-17T10:40:52Z</time>
      </trkpt>
      <trkpt lat="44.40292" lon="3.84585">
        <ele>1655.53</ele>
        <time>2017-05-17T10:40:56Z</time>
      </trkpt>
      <trkpt lat="44.40298" lon="3.84578">
        <ele>1654.09</ele>
        <time>2017-05-17T10:41:03Z</time>
      </trkpt>
      <trkpt lat="44.40305" lon="3.84564">
        <ele>1654.09</ele>
        <time>2017-05-17T10:41:14Z</time>
      </trkpt>
      <trkpt lat="44.4031" lon="3.84561">
        <ele>1653.6</ele>
        <time>2017-05-17T10:41:19Z</time>
      </trkpt>
      <trkpt lat="44.40313" lon="3.84552">
        <ele>1651.68</ele>
        <time>2017-05-17T10:41:25Z</time>
      </trkpt>
      <trkpt lat="44.40327" lon="3.84535">
        <ele>1652.64</ele>
        <time>2017-05-17T10:41:41Z</time>
      </trkpt>
      <trkpt lat="44.40331" lon="3.84527">
        <ele>1651.68</ele>
        <time>2017-05-17T10:41:48Z</time>
      </trkpt>
      <trkpt lat="44.40334" lon="3.84524">
        <ele>1650.72</ele>
        <time>2017-05-17T10:41:52Z</time>
      </trkpt>
      <trkpt lat="44.40337" lon="3.8452">
        <ele>1649.28</ele>
        <time>2017-05-17T10:41:57Z</time>
      </trkpt>
      <trkpt lat="44.40341" lon="3.84517">
        <ele>1649.76</ele>
        <time>2017-05-17T10:42:01Z</time>
      </trkpt>
      <trkpt lat="44.40345" lon="3.84508">
        <ele>1649.28</ele>
        <time>2017-05-17T10:42:08Z</time>
      </trkpt>
      <trkpt lat="44.40349" lon="3.84504">
        <ele>1648.8</ele>
        <time>2017-05-17T10:42:13Z</time>
      </trkpt>
      <trkpt lat="44.40352" lon="3.84502">
        <ele>1649.28</ele>
        <time>2017-05-17T10:42:16Z</time>
      </trkpt>
      <trkpt lat="44.40359" lon="3.84494">
        <ele>1648.32</ele>
        <time>2017-05-17T10:42:30Z</time>
      </trkpt>
      <trkpt lat="44.40364" lon="3.84488">
        <ele>1647.84</ele>
        <time>2017-05-17T10:42:36Z</time>
      </trkpt>
      <trkpt lat="44.40366" lon="3.84484">
        <ele>1648.32</ele>
        <time>2017-05-17T10:42:40Z</time>
      </trkpt>
      <trkpt lat="44.40378" lon="3.8447">
        <ele>1647.36</ele>
        <time>2017-05-17T10:42:53Z</time>
      </trkpt>
      <trkpt lat="44.40383" lon="3.84462">
        <ele>1647.36</ele>
        <time>2017-05-17T10:42:59Z</time>
      </trkpt>
      <trkpt lat="44.40393" lon="3.84452">
        <ele>1645.91</ele>
        <time>2017-05-17T10:43:10Z</time>
      </trkpt>
      <trkpt lat="44.40408" lon="3.84437">
        <ele>1645.43</ele>
        <time>2017-05-17T10:43:25Z</time>
      </trkpt>
      <trkpt lat="44.40408" lon="3.84436">
        <ele>1645.43</ele>
        <time>2017-05-17T10:43:26Z</time>
      </trkpt>
      <trkpt lat="44.40422" lon="3.84421">
        <ele>1644.95</ele>
        <time>2017-05-17T10:43:41Z</time>
      </trkpt>
      <trkpt lat="44.40428" lon="3.84419">
        <ele>1644.47</ele>
        <time>2017-05-17T10:43:47Z</time>
      </trkpt>
      <trkpt lat="44.40429" lon="3.84417">
        <ele>1643.99</ele>
        <time>2017-05-17T10:43:49Z</time>
      </trkpt>
      <trkpt lat="44.40436" lon="3.84417">
        <ele>1644.47</ele>
        <time>2017-05-17T10:43:59Z</time>
      </trkpt>
      <trkpt lat="44.40451" lon="3.84411">
        <ele>1645.43</ele>
        <time>2017-05-17T10:44:12Z</time>
      </trkpt>
      <trkpt lat="44.40453" lon="3.8441">
        <ele>1645.43</ele>
        <time>2017-05-17T10:44:14Z</time>
      </trkpt>
      <trkpt lat="44.40456" lon="3.84409">
        <ele>1645.91</ele>
        <time>2017-05-17T10:44:18Z</time>
      </trkpt>
      <trkpt lat="44.4046" lon="3.84409">
        <ele>1646.4</ele>
        <time>2017-05-17T10:44:22Z</time>
      </trkpt>
      <trkpt lat="44.40465" lon="3.84413">
        <ele>1645.91</ele>
        <time>2017-05-17T10:44:29Z</time>
      </trkpt>
      <trkpt lat="44.40468" lon="3.84413">
        <ele>1645.91</ele>
        <time>2017-05-17T10:44:32Z</time>
      </trkpt>
      <trkpt lat="44.40471" lon="3.84412">
        <ele>1644.95</ele>
        <time>2017-05-17T10:44:35Z</time>
      </trkpt>
      <trkpt lat="44.40478" lon="3.84412">
        <ele>1645.43</ele>
        <time>2017-05-17T10:44:42Z</time>
      </trkpt>
      <trkpt lat="44.40479" lon="3.84409">
        <ele>1645.43</ele>
        <time>2017-05-17T10:44:45Z</time>
      </trkpt>
      <trkpt lat="44.4048" lon="3.84407">
        <ele>1645.43</ele>
        <time>2017-05-17T10:44:47Z</time>
      </trkpt>
      <trkpt lat="44.40486" lon="3.844">
        <ele>1644.95</ele>
        <time>2017-05-17T10:44:56Z</time>
      </trkpt>
      <trkpt lat="44.40485" lon="3.8439">
        <ele>1645.91</ele>
        <time>2017-05-17T10:45:03Z</time>
      </trkpt>
      <trkpt lat="44.40491" lon="3.84375">
        <ele>1648.32</ele>
        <time>2017-05-17T10:45:16Z</time>
      </trkpt>
      <trkpt lat="44.40496" lon="3.84363">
        <ele>1650.24</ele>
        <time>2017-05-17T10:45:28Z</time>
      </trkpt>
      <trkpt lat="44.40503" lon="3.84357">
        <ele>1650.72</ele>
        <time>2017-05-17T10:45:38Z</time>
      </trkpt>
      <trkpt lat="44.40507" lon="3.84351">
        <ele>1651.68</ele>
        <time>2017-05-17T10:45:46Z</time>
      </trkpt>
      <trkpt lat="44.40512" lon="3.84336">
        <ele>1653.6</ele>
        <time>2017-05-17T10:46:00Z</time>
      </trkpt>
      <trkpt lat="44.40515" lon="3.84328">
        <ele>1654.09</ele>
        <time>2017-05-17T10:46:12Z</time>
      </trkpt>
      <trkpt lat="44.40516" lon="3.84326">
        <ele>1655.05</ele>
        <time>2017-05-17T10:46:14Z</time>
      </trkpt>
      <trkpt lat="44.40519" lon="3.84324">
        <ele>1654.57</ele>
        <time>2017-05-17T10:46:17Z</time>
      </trkpt>
      <trkpt lat="44.4053" lon="3.84315">
        <ele>1657.45</ele>
        <time>2017-05-17T10:46:31Z</time>
      </trkpt>
      <trkpt lat="44.40543" lon="3.84306">
        <ele>1659.37</ele>
        <time>2017-05-17T10:46:47Z</time>
      </trkpt>
      <trkpt lat="44.40551" lon="3.84296">
        <ele>1661.3</ele>
        <time>2017-05-17T10:47:00Z</time>
      </trkpt>
      <trkpt lat="44.40551" lon="3.84294">
        <ele>1661.3</ele>
        <time>2017-05-17T10:47:02Z</time>
      </trkpt>
      <trkpt lat="44.40553" lon="3.8429">
        <ele>1660.81</ele>
        <time>2017-05-17T10:47:05Z</time>
      </trkpt>
      <trkpt lat="44.40559" lon="3.84276">
        <ele>1662.74</ele>
        <time>2017-05-17T10:47:18Z</time>
      </trkpt>
      <trkpt lat="44.40564" lon="3.84265">
        <ele>1665.14</ele>
        <time>2017-05-17T10:47:29Z</time>
      </trkpt>
      <trkpt lat="44.40564" lon="3.84262">
        <ele>1667.06</ele>
        <time>2017-05-17T10:47:31Z</time>
      </trkpt>
      <trkpt lat="44.40569" lon="3.84261">
        <ele>1667.06</ele>
        <time>2017-05-17T10:47:42Z</time>
      </trkpt>
      <trkpt lat="44.40576" lon="3.84256">
        <ele>1667.54</ele>
        <time>2017-05-17T10:47:52Z</time>
      </trkpt>
      <trkpt lat="44.40578" lon="3.84255">
        <ele>1667.54</ele>
        <time>2017-05-17T10:47:54Z</time>
      </trkpt>
      <trkpt lat="44.40586" lon="3.84249">
        <ele>1668.02</ele>
        <time>2017-05-17T10:48:07Z</time>
      </trkpt>
      <trkpt lat="44.40586" lon="3.84248">
        <ele>1668.02</ele>
        <time>2017-05-17T10:48:08Z</time>
      </trkpt>
      <trkpt lat="44.40587" lon="3.84242">
        <ele>1669.47</ele>
        <time>2017-05-17T10:48:15Z</time>
      </trkpt>
      <trkpt lat="44.40586" lon="3.84231">
        <ele>1671.39</ele>
        <time>2017-05-17T10:48:27Z</time>
      </trkpt>
      <trkpt lat="44.40589" lon="3.84221">
        <ele>1671.87</ele>
        <time>2017-05-17T10:48:37Z</time>
      </trkpt>
      <trkpt lat="44.4059" lon="3.8421">
        <ele>1672.83</ele>
        <time>2017-05-17T10:48:51Z</time>
      </trkpt>
      <trkpt lat="44.40591" lon="3.8421">
        <ele>1673.79</ele>
        <time>2017-05-17T10:49:20Z</time>
      </trkpt>
      <trkpt lat="44.4059" lon="3.84209">
        <ele>1673.79</ele>
        <time>2017-05-17T10:49:36Z</time>
      </trkpt>
      <trkpt lat="44.40591" lon="3.84209">
        <ele>1673.79</ele>
        <time>2017-05-17T10:49:44Z</time>
      </trkpt>
      <trkpt lat="44.40593" lon="3.84206">
        <ele>1672.83</ele>
        <time>2017-05-17T10:49:46Z</time>
      </trkpt>
      <trkpt lat="44.40599" lon="3.84205">
        <ele>1672.83</ele>
        <time>2017-05-17T10:49:53Z</time>
      </trkpt>
      <trkpt lat="44.40602" lon="3.84206">
        <ele>1671.39</ele>
        <time>2017-05-17T10:49:56Z</time>
      </trkpt>
      <trkpt lat="44.40606" lon="3.84205">
        <ele>1672.35</ele>
        <time>2017-05-17T10:50:00Z</time>
      </trkpt>
      <trkpt lat="44.40614" lon="3.84202">
        <ele>1672.35</ele>
        <time>2017-05-17T10:50:08Z</time>
      </trkpt>
      <trkpt lat="44.40616" lon="3.84202">
        <ele>1671.87</ele>
        <time>2017-05-17T10:50:10Z</time>
      </trkpt>
      <trkpt lat="44.40629" lon="3.84203">
        <ele>1671.39</ele>
        <time>2017-05-17T10:50:22Z</time>
      </trkpt>
      <trkpt lat="44.40644" lon="3.84204">
        <ele>1670.91</ele>
        <time>2017-05-17T10:50:35Z</time>
      </trkpt>
      <trkpt lat="44.40651" lon="3.84207">
        <ele>1671.39</ele>
        <time>2017-05-17T10:50:47Z</time>
      </trkpt>
      <trkpt lat="44.4065" lon="3.84206">
        <ele>1671.39</ele>
        <time>2017-05-17T10:51:15Z</time>
      </trkpt>
      <trkpt lat="44.40649" lon="3.84207">
        <ele>1668.99</ele>
        <time>2017-05-17T10:51:30Z</time>
      </trkpt>
      <trkpt lat="44.4065" lon="3.84208">
        <ele>1670.43</ele>
        <time>2017-05-17T10:51:51Z</time>
      </trkpt>
      <trkpt lat="44.40653" lon="3.84208">
        <ele>1670.43</ele>
        <time>2017-05-17T10:52:07Z</time>
      </trkpt>
      <trkpt lat="44.40656" lon="3.84208">
        <ele>1671.39</ele>
        <time>2017-05-17T10:52:09Z</time>
      </trkpt>
      <trkpt lat="44.40666" lon="3.84212">
        <ele>1669.95</ele>
        <time>2017-05-17T10:52:20Z</time>
      </trkpt>
      <trkpt lat="44.40669" lon="3.84213">
        <ele>1670.43</ele>
        <time>2017-05-17T10:52:23Z</time>
      </trkpt>
      <trkpt lat="44.40682" lon="3.8422">
        <ele>1669.95</ele>
        <time>2017-05-17T10:52:37Z</time>
      </trkpt>
      <trkpt lat="44.4069" lon="3.84222">
        <ele>1669.47</ele>
        <time>2017-05-17T10:52:45Z</time>
      </trkpt>
      <trkpt lat="44.40696" lon="3.84229">
        <ele>1668.02</ele>
        <time>2017-05-17T10:52:53Z</time>
      </trkpt>
      <trkpt lat="44.40699" lon="3.8423">
        <ele>1667.06</ele>
        <time>2017-05-17T10:52:56Z</time>
      </trkpt>
      <trkpt lat="44.40701" lon="3.84233">
        <ele>1668.02</ele>
        <time>2017-05-17T10:52:59Z</time>
      </trkpt>
      <trkpt lat="44.40704" lon="3.84233">
        <ele>1667.06</ele>
        <time>2017-05-17T10:53:02Z</time>
      </trkpt>
      <trkpt lat="44.40711" lon="3.84236">
        <ele>1667.54</ele>
        <time>2017-05-17T10:53:15Z</time>
      </trkpt>
      <trkpt lat="44.40715" lon="3.84239">
        <ele>1667.06</ele>
        <time>2017-05-17T10:53:20Z</time>
      </trkpt>
      <trkpt lat="44.40722" lon="3.84247">
        <ele>1666.1</ele>
        <time>2017-05-17T10:53:30Z</time>
      </trkpt>
      <trkpt lat="44.40723" lon="3.84252">
        <ele>1666.58</ele>
        <time>2017-05-17T10:53:33Z</time>
      </trkpt>
      <trkpt lat="44.40728" lon="3.84256">
        <ele>1665.62</ele>
        <time>2017-05-17T10:53:39Z</time>
      </trkpt>
      <trkpt lat="44.40731" lon="3.84257">
        <ele>1665.14</ele>
        <time>2017-05-17T10:53:42Z</time>
      </trkpt>
      <trkpt lat="44.40734" lon="3.8426">
        <ele>1665.62</ele>
        <time>2017-05-17T10:53:45Z</time>
      </trkpt>
      <trkpt lat="44.40737" lon="3.84261">
        <ele>1664.66</ele>
        <time>2017-05-17T10:53:48Z</time>
      </trkpt>
      <trkpt lat="44.40738" lon="3.84262">
        <ele>1665.14</ele>
        <time>2017-05-17T10:53:50Z</time>
      </trkpt>
      <trkpt lat="44.40741" lon="3.84263">
        <ele>1663.7</ele>
        <time>2017-05-17T10:53:53Z</time>
      </trkpt>
      <trkpt lat="44.40746" lon="3.84267">
        <ele>1664.66</ele>
        <time>2017-05-17T10:53:59Z</time>
      </trkpt>
      <trkpt lat="44.40756" lon="3.84268">
        <ele>1664.18</ele>
        <time>2017-05-17T10:54:10Z</time>
      </trkpt>
      <trkpt lat="44.40759" lon="3.84267">
        <ele>1664.18</ele>
        <time>2017-05-17T10:54:13Z</time>
      </trkpt>
      <trkpt lat="44.40765" lon="3.84264">
        <ele>1663.7</ele>
        <time>2017-05-17T10:54:19Z</time>
      </trkpt>
      <trkpt lat="44.40772" lon="3.84257">
        <ele>1662.74</ele>
        <time>2017-05-17T10:54:27Z</time>
      </trkpt>
      <trkpt lat="44.40777" lon="3.84255">
        <ele>1662.74</ele>
        <time>2017-05-17T10:54:32Z</time>
      </trkpt>
      <trkpt lat="44.40784" lon="3.84232">
        <ele>1663.7</ele>
        <time>2017-05-17T10:54:48Z</time>
      </trkpt>
      <trkpt lat="44.40785" lon="3.84232">
        <ele>1663.7</ele>
        <time>2017-05-17T10:54:49Z</time>
      </trkpt>
      <trkpt lat="44.40786" lon="3.8423">
        <ele>1663.7</ele>
        <time>2017-05-17T10:54:51Z</time>
      </trkpt>
      <trkpt lat="44.40791" lon="3.8422">
        <ele>1663.22</ele>
        <time>2017-05-17T10:54:59Z</time>
      </trkpt>
      <trkpt lat="44.40795" lon="3.84206">
        <ele>1663.22</ele>
        <time>2017-05-17T10:55:09Z</time>
      </trkpt>
      <trkpt lat="44.408" lon="3.84187">
        <ele>1662.74</ele>
        <time>2017-05-17T10:55:23Z</time>
      </trkpt>
      <trkpt lat="44.40804" lon="3.84169">
        <ele>1660.81</ele>
        <time>2017-05-17T10:55:36Z</time>
      </trkpt>
      <trkpt lat="44.40806" lon="3.84164">
        <ele>1662.74</ele>
        <time>2017-05-17T10:55:40Z</time>
      </trkpt>
      <trkpt lat="44.40808" lon="3.84159">
        <ele>1662.74</ele>
        <time>2017-05-17T10:55:44Z</time>
      </trkpt>
      <trkpt lat="44.40815" lon="3.84149">
        <ele>1661.78</ele>
        <time>2017-05-17T10:55:53Z</time>
      </trkpt>
      <trkpt lat="44.40825" lon="3.84139">
        <ele>1661.78</ele>
        <time>2017-05-17T10:56:05Z</time>
      </trkpt>
      <trkpt lat="44.40826" lon="3.84137">
        <ele>1660.81</ele>
        <time>2017-05-17T10:56:07Z</time>
      </trkpt>
      <trkpt lat="44.40828" lon="3.84132">
        <ele>1660.81</ele>
        <time>2017-05-17T10:56:11Z</time>
      </trkpt>
      <trkpt lat="44.40828" lon="3.84129">
        <ele>1659.85</ele>
        <time>2017-05-17T10:56:13Z</time>
      </trkpt>
      <trkpt lat="44.40828" lon="3.84127">
        <ele>1661.78</ele>
        <time>2017-05-17T10:56:15Z</time>
      </trkpt>
      <trkpt lat="44.40832" lon="3.8412">
        <ele>1661.78</ele>
        <time>2017-05-17T10:56:21Z</time>
      </trkpt>
      <trkpt lat="44.40833" lon="3.84117">
        <ele>1660.33</ele>
        <time>2017-05-17T10:56:23Z</time>
      </trkpt>
      <trkpt lat="44.40834" lon="3.84116">
        <ele>1661.3</ele>
        <time>2017-05-17T10:56:35Z</time>
      </trkpt>
      <trkpt lat="44.40835" lon="3.84114">
        <ele>1659.85</ele>
        <time>2017-05-17T10:56:37Z</time>
      </trkpt>
      <trkpt lat="44.4084" lon="3.84105">
        <ele>1661.78</ele>
        <time>2017-05-17T10:56:44Z</time>
      </trkpt>
      <trkpt lat="44.40846" lon="3.84093">
        <ele>1660.81</ele>
        <time>2017-05-17T10:56:55Z</time>
      </trkpt>
      <trkpt lat="44.40851" lon="3.84088">
        <ele>1660.33</ele>
        <time>2017-05-17T10:57:00Z</time>
      </trkpt>
      <trkpt lat="44.40854" lon="3.84083">
        <ele>1659.37</ele>
        <time>2017-05-17T10:57:04Z</time>
      </trkpt>
      <trkpt lat="44.40859" lon="3.84081">
        <ele>1659.85</ele>
        <time>2017-05-17T10:57:09Z</time>
      </trkpt>
      <trkpt lat="44.40863" lon="3.84074">
        <ele>1659.37</ele>
        <time>2017-05-17T10:57:15Z</time>
      </trkpt>
      <trkpt lat="44.40867" lon="3.84066">
        <ele>1658.89</ele>
        <time>2017-05-17T10:57:21Z</time>
      </trkpt>
      <trkpt lat="44.40872" lon="3.84064">
        <ele>1657.45</ele>
        <time>2017-05-17T10:57:25Z</time>
      </trkpt>
      <trkpt lat="44.40879" lon="3.84056">
        <ele>1657.93</ele>
        <time>2017-05-17T10:57:33Z</time>
      </trkpt>
      <trkpt lat="44.40882" lon="3.84054">
        <ele>1656.01</ele>
        <time>2017-05-17T10:57:36Z</time>
      </trkpt>
      <trkpt lat="44.40887" lon="3.84045">
        <ele>1656.97</ele>
        <time>2017-05-17T10:57:52Z</time>
      </trkpt>
      <trkpt lat="44.40886" lon="3.84045">
        <ele>1657.45</ele>
        <time>2017-05-17T10:58:18Z</time>
      </trkpt>
      <trkpt lat="44.40887" lon="3.84045">
        <ele>1656.97</ele>
        <time>2017-05-17T10:58:34Z</time>
      </trkpt>
      <trkpt lat="44.40888" lon="3.84039">
        <ele>1656.49</ele>
        <time>2017-05-17T10:58:39Z</time>
      </trkpt>
      <trkpt lat="44.40892" lon="3.8403">
        <ele>1654.57</ele>
        <time>2017-05-17T10:58:46Z</time>
      </trkpt>
      <trkpt lat="44.40899" lon="3.84015">
        <ele>1656.01</ele>
        <time>2017-05-17T10:58:59Z</time>
      </trkpt>
      <trkpt lat="44.40903" lon="3.84007">
        <ele>1654.57</ele>
        <time>2017-05-17T10:59:08Z</time>
      </trkpt>
      <trkpt lat="44.40905" lon="3.84003">
        <ele>1654.57</ele>
        <time>2017-05-17T10:59:12Z</time>
      </trkpt>
      <trkpt lat="44.4091" lon="3.8398">
        <ele>1654.09</ele>
        <time>2017-05-17T10:59:26Z</time>
      </trkpt>
      <trkpt lat="44.40916" lon="3.83961">
        <ele>1653.6</ele>
        <time>2017-05-17T10:59:39Z</time>
      </trkpt>
      <trkpt lat="44.40918" lon="3.83953">
        <ele>1652.64</ele>
        <time>2017-05-17T10:59:44Z</time>
      </trkpt>
      <trkpt lat="44.40921" lon="3.83946">
        <ele>1652.64</ele>
        <time>2017-05-17T10:59:49Z</time>
      </trkpt>
      <trkpt lat="44.40922" lon="3.83943">
        <ele>1652.16</ele>
        <time>2017-05-17T10:59:51Z</time>
      </trkpt>
      <trkpt lat="44.4093" lon="3.83926">
        <ele>1650.72</ele>
        <time>2017-05-17T11:00:04Z</time>
      </trkpt>
      <trkpt lat="44.40933" lon="3.83911">
        <ele>1651.2</ele>
        <time>2017-05-17T11:00:13Z</time>
      </trkpt>
      <trkpt lat="44.4094" lon="3.83892">
        <ele>1651.2</ele>
        <time>2017-05-17T11:00:27Z</time>
      </trkpt>
      <trkpt lat="44.40942" lon="3.83869">
        <ele>1649.28</ele>
        <time>2017-05-17T11:00:43Z</time>
      </trkpt>
      <trkpt lat="44.40944" lon="3.83864">
        <ele>1651.68</ele>
        <time>2017-05-17T11:00:48Z</time>
      </trkpt>
      <trkpt lat="44.40946" lon="3.83862">
        <ele>1650.72</ele>
        <time>2017-05-17T11:00:50Z</time>
      </trkpt>
      <trkpt lat="44.40952" lon="3.83855">
        <ele>1649.76</ele>
        <time>2017-05-17T11:00:57Z</time>
      </trkpt>
      <trkpt lat="44.4096" lon="3.83836">
        <ele>1648.8</ele>
        <time>2017-05-17T11:01:11Z</time>
      </trkpt>
      <trkpt lat="44.40961" lon="3.83835">
        <ele>1649.28</ele>
        <time>2017-05-17T11:01:12Z</time>
      </trkpt>
      <trkpt lat="44.40962" lon="3.83831">
        <ele>1648.8</ele>
        <time>2017-05-17T11:01:25Z</time>
      </trkpt>
      <trkpt lat="44.40964" lon="3.83828">
        <ele>1649.28</ele>
        <time>2017-05-17T11:01:28Z</time>
      </trkpt>
      <trkpt lat="44.40971" lon="3.83813">
        <ele>1649.28</ele>
        <time>2017-05-17T11:01:42Z</time>
      </trkpt>
      <trkpt lat="44.40971" lon="3.83813">
        <ele>1648.8</ele>
        <time>2017-05-17T11:01:43Z</time>
      </trkpt>
      <trkpt lat="44.40972" lon="3.8381">
        <ele>1649.28</ele>
        <time>2017-05-17T11:01:46Z</time>
      </trkpt>
      <trkpt lat="44.40982" lon="3.83793">
        <ele>1647.36</ele>
        <time>2017-05-17T11:01:59Z</time>
      </trkpt>
      <trkpt lat="44.40985" lon="3.83788">
        <ele>1648.32</ele>
        <time>2017-05-17T11:02:03Z</time>
      </trkpt>
      <trkpt lat="44.40995" lon="3.83772">
        <ele>1647.84</ele>
        <time>2017-05-17T11:02:16Z</time>
      </trkpt>
      <trkpt lat="44.41001" lon="3.83756">
        <ele>1646.88</ele>
        <time>2017-05-17T11:02:26Z</time>
      </trkpt>
      <trkpt lat="44.41005" lon="3.83753">
        <ele>1646.4</ele>
        <time>2017-05-17T11:02:30Z</time>
      </trkpt>
      <trkpt lat="44.41016" lon="3.83741">
        <ele>1645.91</ele>
        <time>2017-05-17T11:02:43Z</time>
      </trkpt>
      <trkpt lat="44.41029" lon="3.83726">
        <ele>1644.47</ele>
        <time>2017-05-17T11:02:58Z</time>
      </trkpt>
      <trkpt lat="44.4103" lon="3.83725">
        <ele>1645.43</ele>
        <time>2017-05-17T11:02:59Z</time>
      </trkpt>
      <trkpt lat="44.41038" lon="3.83714">
        <ele>1644.47</ele>
        <time>2017-05-17T11:03:09Z</time>
      </trkpt>
      <trkpt lat="44.41048" lon="3.83695">
        <ele>1643.99</ele>
        <time>2017-05-17T11:03:24Z</time>
      </trkpt>
      <trkpt lat="44.41057" lon="3.8368">
        <ele>1643.51</ele>
        <time>2017-05-17T11:03:37Z</time>
      </trkpt>
      <trkpt lat="44.41063" lon="3.83664">
        <ele>1642.07</ele>
        <time>2017-05-17T11:03:48Z</time>
      </trkpt>
      <trkpt lat="44.41069" lon="3.8365">
        <ele>1641.59</ele>
        <time>2017-05-17T11:03:58Z</time>
      </trkpt>
      <trkpt lat="44.41074" lon="3.83634">
        <ele>1640.63</ele>
        <time>2017-05-17T11:04:11Z</time>
      </trkpt>
      <trkpt lat="44.41078" lon="3.83623">
        <ele>1640.63</ele>
        <time>2017-05-17T11:04:19Z</time>
      </trkpt>
      <trkpt lat="44.4108" lon="3.83619">
        <ele>1640.63</ele>
        <time>2017-05-17T11:04:22Z</time>
      </trkpt>
      <trkpt lat="44.4108" lon="3.83614">
        <ele>1639.67</ele>
        <time>2017-05-17T11:04:25Z</time>
      </trkpt>
      <trkpt lat="44.41081" lon="3.83608">
        <ele>1639.67</ele>
        <time>2017-05-17T11:04:29Z</time>
      </trkpt>
      <trkpt lat="44.41082" lon="3.83591">
        <ele>1638.7</ele>
        <time>2017-05-17T11:04:40Z</time>
      </trkpt>
      <trkpt lat="44.41084" lon="3.83574">
        <ele>1638.7</ele>
        <time>2017-05-17T11:04:51Z</time>
      </trkpt>
      <trkpt lat="44.41085" lon="3.83571">
        <ele>1638.22</ele>
        <time>2017-05-17T11:04:53Z</time>
      </trkpt>
      <trkpt lat="44.4109" lon="3.83549">
        <ele>1635.82</ele>
        <time>2017-05-17T11:05:08Z</time>
      </trkpt>
      <trkpt lat="44.41094" lon="3.83541">
        <ele>1635.82</ele>
        <time>2017-05-17T11:05:15Z</time>
      </trkpt>
      <trkpt lat="44.41096" lon="3.83539">
        <ele>1636.3</ele>
        <time>2017-05-17T11:05:17Z</time>
      </trkpt>
      <trkpt lat="44.41097" lon="3.83536">
        <ele>1635.34</ele>
        <time>2017-05-17T11:05:19Z</time>
      </trkpt>
      <trkpt lat="44.41099" lon="3.83526">
        <ele>1633.9</ele>
        <time>2017-05-17T11:05:26Z</time>
      </trkpt>
      <trkpt lat="44.41101" lon="3.83517">
        <ele>1634.38</ele>
        <time>2017-05-17T11:05:32Z</time>
      </trkpt>
      <trkpt lat="44.41108" lon="3.83501">
        <ele>1631.98</ele>
        <time>2017-05-17T11:05:44Z</time>
      </trkpt>
      <trkpt lat="44.41109" lon="3.83497">
        <ele>1633.42</ele>
        <time>2017-05-17T11:05:47Z</time>
      </trkpt>
      <trkpt lat="44.4111" lon="3.83495">
        <ele>1632.46</ele>
        <time>2017-05-17T11:05:48Z</time>
      </trkpt>
      <trkpt lat="44.41111" lon="3.83481">
        <ele>1631.01</ele>
        <time>2017-05-17T11:05:56Z</time>
      </trkpt>
      <trkpt lat="44.41111" lon="3.83475">
        <ele>1629.57</ele>
        <time>2017-05-17T11:06:00Z</time>
      </trkpt>
      <trkpt lat="44.41111" lon="3.83452">
        <ele>1630.53</ele>
        <time>2017-05-17T11:06:14Z</time>
      </trkpt>
      <trkpt lat="44.41115" lon="3.83434">
        <ele>1631.98</ele>
        <time>2017-05-17T11:06:27Z</time>
      </trkpt>
      <trkpt lat="44.41116" lon="3.83431">
        <ele>1631.98</ele>
        <time>2017-05-17T11:06:29Z</time>
      </trkpt>
      <trkpt lat="44.41123" lon="3.83414">
        <ele>1631.98</ele>
        <time>2017-05-17T11:06:42Z</time>
      </trkpt>
      <trkpt lat="44.41125" lon="3.83398">
        <ele>1630.53</ele>
        <time>2017-05-17T11:06:53Z</time>
      </trkpt>
      <trkpt lat="44.41128" lon="3.83388">
        <ele>1630.05</ele>
        <time>2017-05-17T11:06:59Z</time>
      </trkpt>
      <trkpt lat="44.41129" lon="3.83377">
        <ele>1630.53</ele>
        <time>2017-05-17T11:07:06Z</time>
      </trkpt>
      <trkpt lat="44.41132" lon="3.83369">
        <ele>1631.01</ele>
        <time>2017-05-17T11:07:11Z</time>
      </trkpt>
      <trkpt lat="44.41133" lon="3.83368">
        <ele>1630.53</ele>
        <time>2017-05-17T11:07:12Z</time>
      </trkpt>
      <trkpt lat="44.41138" lon="3.8336">
        <ele>1631.01</ele>
        <time>2017-05-17T11:07:18Z</time>
      </trkpt>
      <trkpt lat="44.41148" lon="3.83345">
        <ele>1631.01</ele>
        <time>2017-05-17T11:07:31Z</time>
      </trkpt>
      <trkpt lat="44.41155" lon="3.83335">
        <ele>1631.49</ele>
        <time>2017-05-17T11:07:39Z</time>
      </trkpt>
      <trkpt lat="44.41158" lon="3.83329">
        <ele>1631.01</ele>
        <time>2017-05-17T11:07:43Z</time>
      </trkpt>
      <trkpt lat="44.4116" lon="3.83324">
        <ele>1630.53</ele>
        <time>2017-05-17T11:07:47Z</time>
      </trkpt>
      <trkpt lat="44.41159" lon="3.83317">
        <ele>1633.42</ele>
        <time>2017-05-17T11:07:55Z</time>
      </trkpt>
      <trkpt lat="44.41159" lon="3.83317">
        <ele>1632.94</ele>
        <time>2017-05-17T11:07:57Z</time>
      </trkpt>
      <trkpt lat="44.41166" lon="3.83309">
        <ele>1631.98</ele>
        <time>2017-05-17T11:08:06Z</time>
      </trkpt>
      <trkpt lat="44.4117" lon="3.83305">
        <ele>1632.46</ele>
        <time>2017-05-17T11:08:16Z</time>
      </trkpt>
      <trkpt lat="44.41174" lon="3.83301">
        <ele>1631.49</ele>
        <time>2017-05-17T11:08:20Z</time>
      </trkpt>
      <trkpt lat="44.41181" lon="3.83292">
        <ele>1631.98</ele>
        <time>2017-05-17T11:08:29Z</time>
      </trkpt>
      <trkpt lat="44.41184" lon="3.83288">
        <ele>1631.49</ele>
        <time>2017-05-17T11:08:33Z</time>
      </trkpt>
      <trkpt lat="44.4119" lon="3.83282">
        <ele>1631.49</ele>
        <time>2017-05-17T11:08:39Z</time>
      </trkpt>
      <trkpt lat="44.41202" lon="3.83267">
        <ele>1631.01</ele>
        <time>2017-05-17T11:08:54Z</time>
      </trkpt>
      <trkpt lat="44.41202" lon="3.83267">
        <ele>1631.01</ele>
        <time>2017-05-17T11:08:55Z</time>
      </trkpt>
      <trkpt lat="44.41205" lon="3.83263">
        <ele>1630.53</ele>
        <time>2017-05-17T11:08:59Z</time>
      </trkpt>
      <trkpt lat="44.41217" lon="3.83251">
        <ele>1630.05</ele>
        <time>2017-05-17T11:09:12Z</time>
      </trkpt>
      <trkpt lat="44.41217" lon="3.83252">
        <ele>1633.9</ele>
        <time>2017-05-17T11:09:21Z</time>
      </trkpt>
      <trkpt lat="44.41217" lon="3.83252">
        <ele>1629.57</ele>
        <time>2017-05-17T11:09:22Z</time>
      </trkpt>
      <trkpt lat="44.41217" lon="3.83252">
        <ele>1630.53</ele>
        <time>2017-05-17T11:09:25Z</time>
      </trkpt>
      <trkpt lat="44.41224" lon="3.83243">
        <ele>1629.57</ele>
        <time>2017-05-17T11:09:33Z</time>
      </trkpt>
      <trkpt lat="44.41229" lon="3.8324">
        <ele>1629.57</ele>
        <time>2017-05-17T11:09:37Z</time>
      </trkpt>
      <trkpt lat="44.41232" lon="3.83233">
        <ele>1629.09</ele>
        <time>2017-05-17T11:09:42Z</time>
      </trkpt>
      <trkpt lat="44.4124" lon="3.83223">
        <ele>1629.09</ele>
        <time>2017-05-17T11:09:51Z</time>
      </trkpt>
      <trkpt lat="44.41249" lon="3.83213">
        <ele>1627.17</ele>
        <time>2017-05-17T11:10:05Z</time>
      </trkpt>
      <trkpt lat="44.41249" lon="3.83213">
        <ele>1628.13</ele>
        <time>2017-05-17T11:10:09Z</time>
      </trkpt>
      <trkpt lat="44.4126" lon="3.83197">
        <ele>1626.69</ele>
        <time>2017-05-17T11:10:22Z</time>
      </trkpt>
      <trkpt lat="44.41264" lon="3.83191">
        <ele>1623.8</ele>
        <time>2017-05-17T11:10:27Z</time>
      </trkpt>
      <trkpt lat="44.41264" lon="3.8319">
        <ele>1627.65</ele>
        <time>2017-05-17T11:10:28Z</time>
      </trkpt>
      <trkpt lat="44.41272" lon="3.83178">
        <ele>1625.25</ele>
        <time>2017-05-17T11:10:38Z</time>
      </trkpt>
      <trkpt lat="44.41274" lon="3.83176">
        <ele>1626.21</ele>
        <time>2017-05-17T11:10:40Z</time>
      </trkpt>
      <trkpt lat="44.41274" lon="3.83175">
        <ele>1626.69</ele>
        <time>2017-05-17T11:10:41Z</time>
      </trkpt>
      <trkpt lat="44.41274" lon="3.83172">
        <ele>1625.25</ele>
        <time>2017-05-17T11:10:43Z</time>
      </trkpt>
      <trkpt lat="44.41278" lon="3.83167">
        <ele>1626.21</ele>
        <time>2017-05-17T11:10:55Z</time>
      </trkpt>
      <trkpt lat="44.4128" lon="3.83163">
        <ele>1624.28</ele>
        <time>2017-05-17T11:10:58Z</time>
      </trkpt>
      <trkpt lat="44.41285" lon="3.83153">
        <ele>1625.25</ele>
        <time>2017-05-17T11:11:10Z</time>
      </trkpt>
      <trkpt lat="44.41285" lon="3.83152">
        <ele>1624.28</ele>
        <time>2017-05-17T11:11:16Z</time>
      </trkpt>
      <trkpt lat="44.41295" lon="3.83137">
        <ele>1623.32</ele>
        <time>2017-05-17T11:11:29Z</time>
      </trkpt>
      <trkpt lat="44.41296" lon="3.83136">
        <ele>1623.8</ele>
        <time>2017-05-17T11:11:30Z</time>
      </trkpt>
      <trkpt lat="44.41301" lon="3.83127">
        <ele>1624.28</ele>
        <time>2017-05-17T11:11:42Z</time>
      </trkpt>
      <trkpt lat="44.41301" lon="3.83127">
        <ele>1623.8</ele>
        <time>2017-05-17T11:11:44Z</time>
      </trkpt>
      <trkpt lat="44.41305" lon="3.8312">
        <ele>1623.32</ele>
        <time>2017-05-17T11:11:50Z</time>
      </trkpt>
      <trkpt lat="44.41308" lon="3.8311">
        <ele>1621.4</ele>
        <time>2017-05-17T11:11:57Z</time>
      </trkpt>
      <trkpt lat="44.41314" lon="3.83099">
        <ele>1621.88</ele>
        <time>2017-05-17T11:12:05Z</time>
      </trkpt>
      <trkpt lat="44.41319" lon="3.83089">
        <ele>1619.96</ele>
        <time>2017-05-17T11:12:12Z</time>
      </trkpt>
      <trkpt lat="44.41322" lon="3.83086">
        <ele>1620.92</ele>
        <time>2017-05-17T11:12:15Z</time>
      </trkpt>
      <trkpt lat="44.41326" lon="3.83077">
        <ele>1620.44</ele>
        <time>2017-05-17T11:12:22Z</time>
      </trkpt>
      <trkpt lat="44.41328" lon="3.83073">
        <ele>1619.96</ele>
        <time>2017-05-17T11:12:25Z</time>
      </trkpt>
      <trkpt lat="44.41329" lon="3.83067">
        <ele>1618.52</ele>
        <time>2017-05-17T11:12:28Z</time>
      </trkpt>
      <trkpt lat="44.41332" lon="3.83051">
        <ele>1618.04</ele>
        <time>2017-05-17T11:12:39Z</time>
      </trkpt>
      <trkpt lat="44.41333" lon="3.8304">
        <ele>1616.11</ele>
        <time>2017-05-17T11:12:48Z</time>
      </trkpt>
      <trkpt lat="44.41334" lon="3.83036">
        <ele>1614.67</ele>
        <time>2017-05-17T11:12:50Z</time>
      </trkpt>
      <trkpt lat="44.41335" lon="3.8303">
        <ele>1615.63</ele>
        <time>2017-05-17T11:12:54Z</time>
      </trkpt>
      <trkpt lat="44.41335" lon="3.83028">
        <ele>1615.63</ele>
        <time>2017-05-17T11:12:55Z</time>
      </trkpt>
      <trkpt lat="44.41339" lon="3.83011">
        <ele>1614.19</ele>
        <time>2017-05-17T11:13:07Z</time>
      </trkpt>
      <trkpt lat="44.41342" lon="3.83002">
        <ele>1612.27</ele>
        <time>2017-05-17T11:13:14Z</time>
      </trkpt>
      <trkpt lat="44.41342" lon="3.83001">
        <ele>1612.75</ele>
        <time>2017-05-17T11:13:15Z</time>
      </trkpt>
      <trkpt lat="44.41345" lon="3.8299">
        <ele>1610.83</ele>
        <time>2017-05-17T11:13:23Z</time>
      </trkpt>
      <trkpt lat="44.41347" lon="3.82984">
        <ele>1611.31</ele>
        <time>2017-05-17T11:13:27Z</time>
      </trkpt>
      <trkpt lat="44.4135" lon="3.82971">
        <ele>1609.38</ele>
        <time>2017-05-17T11:13:35Z</time>
      </trkpt>
      <trkpt lat="44.41351" lon="3.82968">
        <ele>1608.9</ele>
        <time>2017-05-17T11:13:37Z</time>
      </trkpt>
      <trkpt lat="44.41352" lon="3.82966">
        <ele>1610.35</ele>
        <time>2017-05-17T11:13:39Z</time>
      </trkpt>
      <trkpt lat="44.41353" lon="3.82962">
        <ele>1608.9</ele>
        <time>2017-05-17T11:13:42Z</time>
      </trkpt>
      <trkpt lat="44.41353" lon="3.82958">
        <ele>1607.46</ele>
        <time>2017-05-17T11:13:45Z</time>
      </trkpt>
      <trkpt lat="44.41353" lon="3.82948">
        <ele>1606.98</ele>
        <time>2017-05-17T11:13:52Z</time>
      </trkpt>
      <trkpt lat="44.41358" lon="3.82934">
        <ele>1606.5</ele>
        <time>2017-05-17T11:14:02Z</time>
      </trkpt>
      <trkpt lat="44.41361" lon="3.8293">
        <ele>1605.06</ele>
        <time>2017-05-17T11:14:06Z</time>
      </trkpt>
      <trkpt lat="44.41364" lon="3.82928">
        <ele>1604.58</ele>
        <time>2017-05-17T11:14:09Z</time>
      </trkpt>
      <trkpt lat="44.41366" lon="3.82922">
        <ele>1603.62</ele>
        <time>2017-05-17T11:14:13Z</time>
      </trkpt>
      <trkpt lat="44.41367" lon="3.82916">
        <ele>1602.66</ele>
        <time>2017-05-17T11:14:17Z</time>
      </trkpt>
      <trkpt lat="44.41369" lon="3.82904">
        <ele>1603.14</ele>
        <time>2017-05-17T11:14:25Z</time>
      </trkpt>
      <trkpt lat="44.41376" lon="3.82895">
        <ele>1602.17</ele>
        <time>2017-05-17T11:14:35Z</time>
      </trkpt>
      <trkpt lat="44.41384" lon="3.82889">
        <ele>1601.21</ele>
        <time>2017-05-17T11:14:45Z</time>
      </trkpt>
      <trkpt lat="44.41386" lon="3.82889">
        <ele>1600.73</ele>
        <time>2017-05-17T11:14:47Z</time>
      </trkpt>
      <trkpt lat="44.4139" lon="3.82887">
        <ele>1598.81</ele>
        <time>2017-05-17T11:14:51Z</time>
      </trkpt>
      <trkpt lat="44.4139" lon="3.82886">
        <ele>1597.85</ele>
        <time>2017-05-17T11:14:52Z</time>
      </trkpt>
      <trkpt lat="44.41392" lon="3.8288">
        <ele>1600.25</ele>
        <time>2017-05-17T11:14:56Z</time>
      </trkpt>
      <trkpt lat="44.41395" lon="3.82873">
        <ele>1599.77</ele>
        <time>2017-05-17T11:15:01Z</time>
      </trkpt>
      <trkpt lat="44.41397" lon="3.82869">
        <ele>1601.69</ele>
        <time>2017-05-17T11:15:04Z</time>
      </trkpt>
      <trkpt lat="44.41396" lon="3.82863">
        <ele>1597.85</ele>
        <time>2017-05-17T11:15:09Z</time>
      </trkpt>
      <trkpt lat="44.41391" lon="3.82851">
        <ele>1594.48</ele>
        <time>2017-05-17T11:15:18Z</time>
      </trkpt>
      <trkpt lat="44.41386" lon="3.8284">
        <ele>1596.89</ele>
        <time>2017-05-17T11:15:29Z</time>
      </trkpt>
      <trkpt lat="44.41386" lon="3.82836">
        <ele>1594</ele>
        <time>2017-05-17T11:15:32Z</time>
      </trkpt>
      <trkpt lat="44.41388" lon="3.82822">
        <ele>1593.04</ele>
        <time>2017-05-17T11:15:44Z</time>
      </trkpt>
      <trkpt lat="44.41389" lon="3.82814">
        <ele>1591.12</ele>
        <time>2017-05-17T11:15:50Z</time>
      </trkpt>
      <trkpt lat="44.41389" lon="3.82809">
        <ele>1588.24</ele>
        <time>2017-05-17T11:15:54Z</time>
      </trkpt>
      <trkpt lat="44.41391" lon="3.8279">
        <ele>1588.72</ele>
        <time>2017-05-17T11:16:07Z</time>
      </trkpt>
      <trkpt lat="44.41392" lon="3.82786">
        <ele>1588.24</ele>
        <time>2017-05-17T11:16:10Z</time>
      </trkpt>
      <trkpt lat="44.41397" lon="3.82778">
        <ele>1586.79</ele>
        <time>2017-05-17T11:16:17Z</time>
      </trkpt>
      <trkpt lat="44.41398" lon="3.82775">
        <ele>1586.31</ele>
        <time>2017-05-17T11:16:19Z</time>
      </trkpt>
      <trkpt lat="44.41403" lon="3.82767">
        <ele>1583.91</ele>
        <time>2017-05-17T11:16:29Z</time>
      </trkpt>
      <trkpt lat="44.41403" lon="3.82767">
        <ele>1585.35</ele>
        <time>2017-05-17T11:16:39Z</time>
      </trkpt>
      <trkpt lat="44.41405" lon="3.82764">
        <ele>1584.87</ele>
        <time>2017-05-17T11:16:44Z</time>
      </trkpt>
      <trkpt lat="44.41406" lon="3.82761">
        <ele>1584.39</ele>
        <time>2017-05-17T11:16:46Z</time>
      </trkpt>
      <trkpt lat="44.41409" lon="3.82757">
        <ele>1583.43</ele>
        <time>2017-05-17T11:16:50Z</time>
      </trkpt>
      <trkpt lat="44.41413" lon="3.82749">
        <ele>1583.43</ele>
        <time>2017-05-17T11:16:56Z</time>
      </trkpt>
      <trkpt lat="44.41413" lon="3.82741">
        <ele>1580.06</ele>
        <time>2017-05-17T11:17:01Z</time>
      </trkpt>
      <trkpt lat="44.41414" lon="3.82738">
        <ele>1582.47</ele>
        <time>2017-05-17T11:17:03Z</time>
      </trkpt>
      <trkpt lat="44.41414" lon="3.82737">
        <ele>1581.03</ele>
        <time>2017-05-17T11:17:04Z</time>
      </trkpt>
      <trkpt lat="44.41414" lon="3.82734">
        <ele>1580.54</ele>
        <time>2017-05-17T11:17:06Z</time>
      </trkpt>
      <trkpt lat="44.41413" lon="3.82732">
        <ele>1579.1</ele>
        <time>2017-05-17T11:17:07Z</time>
      </trkpt>
      <trkpt lat="44.41413" lon="3.82728">
        <ele>1578.14</ele>
        <time>2017-05-17T11:17:09Z</time>
      </trkpt>
      <trkpt lat="44.41413" lon="3.82726">
        <ele>1579.58</ele>
        <time>2017-05-17T11:17:11Z</time>
      </trkpt>
      <trkpt lat="44.41414" lon="3.82726">
        <ele>1580.54</ele>
        <time>2017-05-17T11:17:12Z</time>
      </trkpt>
      <trkpt lat="44.41417" lon="3.82722">
        <ele>1578.14</ele>
        <time>2017-05-17T11:17:16Z</time>
      </trkpt>
      <trkpt lat="44.41416" lon="3.82715">
        <ele>1577.18</ele>
        <time>2017-05-17T11:17:23Z</time>
      </trkpt>
      <trkpt lat="44.41412" lon="3.82711">
        <ele>1574.78</ele>
        <time>2017-05-17T11:17:36Z</time>
      </trkpt>
      <trkpt lat="44.41413" lon="3.82712">
        <ele>1574.78</ele>
        <time>2017-05-17T11:18:07Z</time>
      </trkpt>
      <trkpt lat="44.41413" lon="3.82712">
        <ele>1574.78</ele>
        <time>2017-05-17T11:18:27Z</time>
      </trkpt>
      <trkpt lat="44.41412" lon="3.82712">
        <ele>1575.26</ele>
        <time>2017-05-17T11:18:40Z</time>
      </trkpt>
      <trkpt lat="44.41412" lon="3.82713">
        <ele>1575.26</ele>
        <time>2017-05-17T11:19:13Z</time>
      </trkpt>
      <trkpt lat="44.41413" lon="3.82713">
        <ele>1574.78</ele>
        <time>2017-05-17T11:19:51Z</time>
      </trkpt>
      <trkpt lat="44.41413" lon="3.82713">
        <ele>1576.22</ele>
        <time>2017-05-17T11:20:24Z</time>
      </trkpt>
      <trkpt lat="44.41413" lon="3.82713">
        <ele>1575.26</ele>
        <time>2017-05-17T11:20:57Z</time>
      </trkpt>
      <trkpt lat="44.41413" lon="3.82713">
        <ele>1576.22</ele>
        <time>2017-05-17T11:21:14Z</time>
      </trkpt>
      <trkpt lat="44.41413" lon="3.82712">
        <ele>1575.74</ele>
        <time>2017-05-17T11:21:39Z</time>
      </trkpt>
      <trkpt lat="44.41413" lon="3.82712">
        <ele>1575.74</ele>
        <time>2017-05-17T11:22:09Z</time>
      </trkpt>
      <trkpt lat="44.41413" lon="3.82712">
        <ele>1575.26</ele>
        <time>2017-05-17T11:22:38Z</time>
      </trkpt>
      <trkpt lat="44.41413" lon="3.82712">
        <ele>1575.26</ele>
        <time>2017-05-17T11:23:05Z</time>
      </trkpt>
      <trkpt lat="44.41413" lon="3.82712">
        <ele>1575.26</ele>
        <time>2017-05-17T11:23:37Z</time>
      </trkpt>
      <trkpt lat="44.41413" lon="3.82712">
        <ele>1575.74</ele>
        <time>2017-05-17T11:24:13Z</time>
      </trkpt>
      <trkpt lat="44.41413" lon="3.82711">
        <ele>1575.74</ele>
        <time>2017-05-17T11:24:42Z</time>
      </trkpt>
      <trkpt lat="44.41413" lon="3.82712">
        <ele>1575.74</ele>
        <time>2017-05-17T11:25:13Z</time>
      </trkpt>
      <trkpt lat="44.41413" lon="3.82711">
        <ele>1576.22</ele>
        <time>2017-05-17T11:25:43Z</time>
      </trkpt>
      <trkpt lat="44.41413" lon="3.82712">
        <ele>1575.74</ele>
        <time>2017-05-17T11:26:15Z</time>
      </trkpt>
      <trkpt lat="44.41413" lon="3.82712">
        <ele>1576.7</ele>
        <time>2017-05-17T11:26:49Z</time>
      </trkpt>
      <trkpt lat="44.41413" lon="3.82712">
        <ele>1575.26</ele>
        <time>2017-05-17T11:26:52Z</time>
      </trkpt>
      <trkpt lat="44.41413" lon="3.82711">
        <ele>1576.22</ele>
        <time>2017-05-17T11:27:26Z</time>
      </trkpt>
      <trkpt lat="44.41413" lon="3.82711">
        <ele>1576.22</ele>
        <time>2017-05-17T11:27:58Z</time>
      </trkpt>
      <trkpt lat="44.41413" lon="3.82711">
        <ele>1575.74</ele>
        <time>2017-05-17T11:28:33Z</time>
      </trkpt>
      <trkpt lat="44.41413" lon="3.82712">
        <ele>1576.22</ele>
        <time>2017-05-17T11:29:00Z</time>
      </trkpt>
      <trkpt lat="44.41413" lon="3.82711">
        <ele>1575.74</ele>
        <time>2017-05-17T11:29:29Z</time>
      </trkpt>
      <trkpt lat="44.41413" lon="3.82711">
        <ele>1576.22</ele>
        <time>2017-05-17T11:29:59Z</time>
      </trkpt>
      <trkpt lat="44.41413" lon="3.82712">
        <ele>1576.22</ele>
        <time>2017-05-17T11:30:29Z</time>
      </trkpt>
      <trkpt lat="44.41413" lon="3.82712">
        <ele>1575.74</ele>
        <time>2017-05-17T11:31:01Z</time>
      </trkpt>
      <trkpt lat="44.41413" lon="3.82711">
        <ele>1576.7</ele>
        <time>2017-05-17T11:31:32Z</time>
      </trkpt>
      <trkpt lat="44.41413" lon="3.82712">
        <ele>1576.7</ele>
        <time>2017-05-17T11:32:01Z</time>
      </trkpt>
      <trkpt lat="44.41413" lon="3.82711">
        <ele>1576.7</ele>
        <time>2017-05-17T11:32:32Z</time>
      </trkpt>
      <trkpt lat="44.41413" lon="3.82711">
        <ele>1576.22</ele>
        <time>2017-05-17T11:32:55Z</time>
      </trkpt>
      <trkpt lat="44.41413" lon="3.82711">
        <ele>1575.74</ele>
        <time>2017-05-17T11:33:25Z</time>
      </trkpt>
      <trkpt lat="44.41413" lon="3.82712">
        <ele>1576.7</ele>
        <time>2017-05-17T11:33:54Z</time>
      </trkpt>
      <trkpt lat="44.41413" lon="3.82712">
        <ele>1576.7</ele>
        <time>2017-05-17T11:34:24Z</time>
      </trkpt>
      <trkpt lat="44.41413" lon="3.82712">
        <ele>1576.22</ele>
        <time>2017-05-17T11:34:55Z</time>
      </trkpt>
      <trkpt lat="44.41413" lon="3.82711">
        <ele>1576.22</ele>
        <time>2017-05-17T11:35:26Z</time>
      </trkpt>
      <trkpt lat="44.41413" lon="3.82711">
        <ele>1576.22</ele>
        <time>2017-05-17T11:35:52Z</time>
      </trkpt>
      <trkpt lat="44.41413" lon="3.82712">
        <ele>1576.22</ele>
        <time>2017-05-17T11:36:20Z</time>
      </trkpt>
      <trkpt lat="44.41413" lon="3.82712">
        <ele>1576.7</ele>
        <time>2017-05-17T11:36:54Z</time>
      </trkpt>
      <trkpt lat="44.41413" lon="3.82712">
        <ele>1576.22</ele>
        <time>2017-05-17T11:37:25Z</time>
      </trkpt>
      <trkpt lat="44.41413" lon="3.82711">
        <ele>1576.22</ele>
        <time>2017-05-17T11:37:52Z</time>
      </trkpt>
      <trkpt lat="44.41413" lon="3.82712">
        <ele>1575.74</ele>
        <time>2017-05-17T11:38:20Z</time>
      </trkpt>
      <trkpt lat="44.41413" lon="3.82711">
        <ele>1576.22</ele>
        <time>2017-05-17T11:38:52Z</time>
      </trkpt>
      <trkpt lat="44.41413" lon="3.82711">
        <ele>1575.74</ele>
        <time>2017-05-17T11:39:23Z</time>
      </trkpt>
      <trkpt lat="44.41413" lon="3.82711">
        <ele>1576.7</ele>
        <time>2017-05-17T11:39:56Z</time>
      </trkpt>
      <trkpt lat="44.41413" lon="3.82711">
        <ele>1576.7</ele>
        <time>2017-05-17T11:40:29Z</time>
      </trkpt>
      <trkpt lat="44.41413" lon="3.82711">
        <ele>1576.22</ele>
        <time>2017-05-17T11:40:58Z</time>
      </trkpt>
      <trkpt lat="44.41413" lon="3.82711">
        <ele>1576.7</ele>
        <time>2017-05-17T11:41:28Z</time>
      </trkpt>
      <trkpt lat="44.41413" lon="3.82711">
        <ele>1576.7</ele>
        <time>2017-05-17T11:42:04Z</time>
      </trkpt>
      <trkpt lat="44.41413" lon="3.82711">
        <ele>1576.7</ele>
        <time>2017-05-17T11:42:36Z</time>
      </trkpt>
      <trkpt lat="44.41413" lon="3.82711">
        <ele>1576.22</ele>
        <time>2017-05-17T11:43:12Z</time>
      </trkpt>
      <trkpt lat="44.41413" lon="3.82711">
        <ele>1576.22</ele>
        <time>2017-05-17T11:43:46Z</time>
      </trkpt>
      <trkpt lat="44.41413" lon="3.82711">
        <ele>1576.22</ele>
        <time>2017-05-17T11:44:20Z</time>
      </trkpt>
      <trkpt lat="44.41413" lon="3.82711">
        <ele>1576.7</ele>
        <time>2017-05-17T11:44:52Z</time>
      </trkpt>
      <trkpt lat="44.41413" lon="3.82711">
        <ele>1576.7</ele>
        <time>2017-05-17T11:45:32Z</time>
      </trkpt>
      <trkpt lat="44.41413" lon="3.82712">
        <ele>1576.22</ele>
        <time>2017-05-17T11:46:08Z</time>
      </trkpt>
      <trkpt lat="44.41413" lon="3.82712">
        <ele>1576.7</ele>
        <time>2017-05-17T11:46:43Z</time>
      </trkpt>
      <trkpt lat="44.41413" lon="3.82712">
        <ele>1577.18</ele>
        <time>2017-05-17T11:47:20Z</time>
      </trkpt>
      <trkpt lat="44.41413" lon="3.82712">
        <ele>1576.22</ele>
        <time>2017-05-17T11:47:55Z</time>
      </trkpt>
      <trkpt lat="44.41413" lon="3.82712">
        <ele>1575.26</ele>
        <time>2017-05-17T11:48:26Z</time>
      </trkpt>
      <trkpt lat="44.41413" lon="3.82711">
        <ele>1576.22</ele>
        <time>2017-05-17T11:48:53Z</time>
      </trkpt>
      <trkpt lat="44.41413" lon="3.82711">
        <ele>1575.74</ele>
        <time>2017-05-17T11:49:23Z</time>
      </trkpt>
      <trkpt lat="44.41414" lon="3.82711">
        <ele>1575.74</ele>
        <time>2017-05-17T11:49:55Z</time>
      </trkpt>
      <trkpt lat="44.41414" lon="3.82711">
        <ele>1576.22</ele>
        <time>2017-05-17T11:50:24Z</time>
      </trkpt>
      <trkpt lat="44.41413" lon="3.82711">
        <ele>1576.22</ele>
        <time>2017-05-17T11:50:57Z</time>
      </trkpt>
      <trkpt lat="44.41413" lon="3.82711">
        <ele>1576.22</ele>
        <time>2017-05-17T11:51:28Z</time>
      </trkpt>
      <trkpt lat="44.41413" lon="3.82711">
        <ele>1575.74</ele>
        <time>2017-05-17T11:52:01Z</time>
      </trkpt>
      <trkpt lat="44.41413" lon="3.82711">
        <ele>1576.22</ele>
        <time>2017-05-17T11:52:31Z</time>
      </trkpt>
      <trkpt lat="44.41414" lon="3.82711">
        <ele>1576.22</ele>
        <time>2017-05-17T11:53:05Z</time>
      </trkpt>
      <trkpt lat="44.41414" lon="3.82711">
        <ele>1576.22</ele>
        <time>2017-05-17T11:53:46Z</time>
      </trkpt>
      <trkpt lat="44.41413" lon="3.82711">
        <ele>1575.74</ele>
        <time>2017-05-17T11:54:21Z</time>
      </trkpt>
      <trkpt lat="44.41413" lon="3.82711">
        <ele>1575.74</ele>
        <time>2017-05-17T11:54:56Z</time>
      </trkpt>
      <trkpt lat="44.41414" lon="3.82711">
        <ele>1575.74</ele>
        <time>2017-05-17T11:55:29Z</time>
      </trkpt>
      <trkpt lat="44.41414" lon="3.82711">
        <ele>1576.22</ele>
        <time>2017-05-17T11:55:55Z</time>
      </trkpt>
      <trkpt lat="44.41413" lon="3.82711">
        <ele>1575.74</ele>
        <time>2017-05-17T11:56:13Z</time>
      </trkpt>
      <trkpt lat="44.41414" lon="3.82711">
        <ele>1576.22</ele>
        <time>2017-05-17T11:56:28Z</time>
      </trkpt>
      <trkpt lat="44.41415" lon="3.8271">
        <ele>1576.22</ele>
        <time>2017-05-17T11:56:52Z</time>
      </trkpt>
      <trkpt lat="44.41416" lon="3.8271">
        <ele>1576.22</ele>
        <time>2017-05-17T11:57:12Z</time>
      </trkpt>
      <trkpt lat="44.41418" lon="3.82705">
        <ele>1577.18</ele>
        <time>2017-05-17T11:57:19Z</time>
      </trkpt>
      <trkpt lat="44.4142" lon="3.82699">
        <ele>1577.66</ele>
        <time>2017-05-17T11:57:24Z</time>
      </trkpt>
      <trkpt lat="44.41424" lon="3.82686">
        <ele>1576.22</ele>
        <time>2017-05-17T11:57:37Z</time>
      </trkpt>
      <trkpt lat="44.41427" lon="3.82674">
        <ele>1574.78</ele>
        <time>2017-05-17T11:57:53Z</time>
      </trkpt>
      <trkpt lat="44.41428" lon="3.82673">
        <ele>1574.78</ele>
        <time>2017-05-17T11:58:02Z</time>
      </trkpt>
      <trkpt lat="44.41438" lon="3.82654">
        <ele>1571.89</ele>
        <time>2017-05-17T11:58:18Z</time>
      </trkpt>
      <trkpt lat="44.41441" lon="3.82649">
        <ele>1572.37</ele>
        <time>2017-05-17T11:58:22Z</time>
      </trkpt>
      <trkpt lat="44.41447" lon="3.82637">
        <ele>1568.53</ele>
        <time>2017-05-17T11:58:32Z</time>
      </trkpt>
      <trkpt lat="44.41449" lon="3.82632">
        <ele>1568.53</ele>
        <time>2017-05-17T11:58:36Z</time>
      </trkpt>
      <trkpt lat="44.41451" lon="3.82629">
        <ele>1568.05</ele>
        <time>2017-05-17T11:58:40Z</time>
      </trkpt>
      <trkpt lat="44.41454" lon="3.82626">
        <ele>1569.01</ele>
        <time>2017-05-17T11:58:43Z</time>
      </trkpt>
      <trkpt lat="44.41455" lon="3.82623">
        <ele>1568.53</ele>
        <time>2017-05-17T11:58:45Z</time>
      </trkpt>
      <trkpt lat="44.41456" lon="3.82619">
        <ele>1568.05</ele>
        <time>2017-05-17T11:58:48Z</time>
      </trkpt>
      <trkpt lat="44.41458" lon="3.82614">
        <ele>1568.05</ele>
        <time>2017-05-17T11:58:52Z</time>
      </trkpt>
      <trkpt lat="44.41462" lon="3.8261">
        <ele>1566.61</ele>
        <time>2017-05-17T11:58:55Z</time>
      </trkpt>
      <trkpt lat="44.41464" lon="3.82605">
        <ele>1564.2</ele>
        <time>2017-05-17T11:58:58Z</time>
      </trkpt>
      <trkpt lat="44.41465" lon="3.82604">
        <ele>1567.09</ele>
        <time>2017-05-17T11:58:59Z</time>
      </trkpt>
      <trkpt lat="44.41469" lon="3.82601">
        <ele>1566.61</ele>
        <time>2017-05-17T11:59:03Z</time>
      </trkpt>
      <trkpt lat="44.41475" lon="3.82593">
        <ele>1566.12</ele>
        <time>2017-05-17T11:59:10Z</time>
      </trkpt>
      <trkpt lat="44.41476" lon="3.82587">
        <ele>1566.61</ele>
        <time>2017-05-17T11:59:16Z</time>
      </trkpt>
      <trkpt lat="44.41477" lon="3.82585">
        <ele>1564.2</ele>
        <time>2017-05-17T11:59:18Z</time>
      </trkpt>
      <trkpt lat="44.41481" lon="3.82577">
        <ele>1564.2</ele>
        <time>2017-05-17T11:59:25Z</time>
      </trkpt>
      <trkpt lat="44.41482" lon="3.82575">
        <ele>1564.68</ele>
        <time>2017-05-17T11:59:26Z</time>
      </trkpt>
      <trkpt lat="44.41495" lon="3.8255">
        <ele>1561.8</ele>
        <time>2017-05-17T11:59:42Z</time>
      </trkpt>
      <trkpt lat="44.41506" lon="3.82526">
        <ele>1560.84</ele>
        <time>2017-05-17T11:59:57Z</time>
      </trkpt>
      <trkpt lat="44.41508" lon="3.82521">
        <ele>1560.36</ele>
        <time>2017-05-17T12:00:00Z</time>
      </trkpt>
      <trkpt lat="44.41513" lon="3.82512">
        <ele>1560.84</ele>
        <time>2017-05-17T12:00:06Z</time>
      </trkpt>
      <trkpt lat="44.41525" lon="3.82492">
        <ele>1558.92</ele>
        <time>2017-05-17T12:00:18Z</time>
      </trkpt>
      <trkpt lat="44.41526" lon="3.82479">
        <ele>1558.92</ele>
        <time>2017-05-17T12:00:26Z</time>
      </trkpt>
      <trkpt lat="44.41534" lon="3.8245">
        <ele>1557.95</ele>
        <time>2017-05-17T12:00:42Z</time>
      </trkpt>
      <trkpt lat="44.41533" lon="3.82435">
        <ele>1554.59</ele>
        <time>2017-05-17T12:00:51Z</time>
      </trkpt>
      <trkpt lat="44.41533" lon="3.82433">
        <ele>1555.55</ele>
        <time>2017-05-17T12:00:52Z</time>
      </trkpt>
      <trkpt lat="44.41531" lon="3.82415">
        <ele>1557.47</ele>
        <time>2017-05-17T12:01:03Z</time>
      </trkpt>
      <trkpt lat="44.41525" lon="3.82393">
        <ele>1556.03</ele>
        <time>2017-05-17T12:01:16Z</time>
      </trkpt>
      <trkpt lat="44.41525" lon="3.82386">
        <ele>1558.92</ele>
        <time>2017-05-17T12:01:20Z</time>
      </trkpt>
      <trkpt lat="44.41524" lon="3.82385">
        <ele>1558.43</ele>
        <time>2017-05-17T12:01:21Z</time>
      </trkpt>
      <trkpt lat="44.41521" lon="3.82367">
        <ele>1556.99</ele>
        <time>2017-05-17T12:01:32Z</time>
      </trkpt>
      <trkpt lat="44.41522" lon="3.82341">
        <ele>1558.92</ele>
        <time>2017-05-17T12:01:46Z</time>
      </trkpt>
      <trkpt lat="44.4152" lon="3.82328">
        <ele>1560.36</ele>
        <time>2017-05-17T12:01:54Z</time>
      </trkpt>
      <trkpt lat="44.41522" lon="3.8232">
        <ele>1561.32</ele>
        <time>2017-05-17T12:01:59Z</time>
      </trkpt>
      <trkpt lat="44.41521" lon="3.82312">
        <ele>1563.24</ele>
        <time>2017-05-17T12:02:04Z</time>
      </trkpt>
      <trkpt lat="44.41518" lon="3.82291">
        <ele>1561.8</ele>
        <time>2017-05-17T12:02:18Z</time>
      </trkpt>
      <trkpt lat="44.41517" lon="3.82286">
        <ele>1563.24</ele>
        <time>2017-05-17T12:02:21Z</time>
      </trkpt>
      <trkpt lat="44.41517" lon="3.82267">
        <ele>1564.2</ele>
        <time>2017-05-17T12:02:33Z</time>
      </trkpt>
      <trkpt lat="44.41517" lon="3.82259">
        <ele>1564.2</ele>
        <time>2017-05-17T12:02:38Z</time>
      </trkpt>
      <trkpt lat="44.41515" lon="3.8225">
        <ele>1566.61</ele>
        <time>2017-05-17T12:02:51Z</time>
      </trkpt>
      <trkpt lat="44.41515" lon="3.82246">
        <ele>1565.16</ele>
        <time>2017-05-17T12:02:55Z</time>
      </trkpt>
      <trkpt lat="44.41513" lon="3.82243">
        <ele>1564.68</ele>
        <time>2017-05-17T12:02:58Z</time>
      </trkpt>
      <trkpt lat="44.41515" lon="3.82235">
        <ele>1565.16</ele>
        <time>2017-05-17T12:03:03Z</time>
      </trkpt>
      <trkpt lat="44.41517" lon="3.82233">
        <ele>1565.16</ele>
        <time>2017-05-17T12:03:06Z</time>
      </trkpt>
      <trkpt lat="44.41521" lon="3.82226">
        <ele>1564.2</ele>
        <time>2017-05-17T12:03:11Z</time>
      </trkpt>
      <trkpt lat="44.41522" lon="3.8222">
        <ele>1563.72</ele>
        <time>2017-05-17T12:03:15Z</time>
      </trkpt>
      <trkpt lat="44.41526" lon="3.82212">
        <ele>1562.28</ele>
        <time>2017-05-17T12:03:21Z</time>
      </trkpt>
      <trkpt lat="44.41529" lon="3.82205">
        <ele>1562.28</ele>
        <time>2017-05-17T12:03:26Z</time>
      </trkpt>
      <trkpt lat="44.41535" lon="3.8219">
        <ele>1560.84</ele>
        <time>2017-05-17T12:03:36Z</time>
      </trkpt>
      <trkpt lat="44.41543" lon="3.82174">
        <ele>1558.92</ele>
        <time>2017-05-17T12:03:47Z</time>
      </trkpt>
      <trkpt lat="44.41551" lon="3.82158">
        <ele>1556.51</ele>
        <time>2017-05-17T12:03:59Z</time>
      </trkpt>
      <trkpt lat="44.41551" lon="3.82155">
        <ele>1555.55</ele>
        <time>2017-05-17T12:04:01Z</time>
      </trkpt>
      <trkpt lat="44.41549" lon="3.82152">
        <ele>1556.99</ele>
        <time>2017-05-17T12:04:03Z</time>
      </trkpt>
      <trkpt lat="44.41548" lon="3.82141">
        <ele>1553.15</ele>
        <time>2017-05-17T12:04:10Z</time>
      </trkpt>
      <trkpt lat="44.41548" lon="3.82139">
        <ele>1554.11</ele>
        <time>2017-05-17T12:04:11Z</time>
      </trkpt>
      <trkpt lat="44.41547" lon="3.82124">
        <ele>1554.11</ele>
        <time>2017-05-17T12:04:21Z</time>
      </trkpt>
      <trkpt lat="44.41546" lon="3.82121">
        <ele>1553.15</ele>
        <time>2017-05-17T12:04:23Z</time>
      </trkpt>
      <trkpt lat="44.41544" lon="3.82118">
        <ele>1554.59</ele>
        <time>2017-05-17T12:04:26Z</time>
      </trkpt>
      <trkpt lat="44.41541" lon="3.82111">
        <ele>1550.26</ele>
        <time>2017-05-17T12:04:32Z</time>
      </trkpt>
      <trkpt lat="44.41538" lon="3.82104">
        <ele>1555.07</ele>
        <time>2017-05-17T12:04:37Z</time>
      </trkpt>
      <trkpt lat="44.41538" lon="3.82103">
        <ele>1551.71</ele>
        <time>2017-05-17T12:04:38Z</time>
      </trkpt>
      <trkpt lat="44.41524" lon="3.82099">
        <ele>1553.15</ele>
        <time>2017-05-17T12:04:49Z</time>
      </trkpt>
      <trkpt lat="44.41518" lon="3.82096">
        <ele>1551.71</ele>
        <time>2017-05-17T12:04:54Z</time>
      </trkpt>
      <trkpt lat="44.41516" lon="3.82094">
        <ele>1551.22</ele>
        <time>2017-05-17T12:04:56Z</time>
      </trkpt>
      <trkpt lat="44.41514" lon="3.82092">
        <ele>1547.86</ele>
        <time>2017-05-17T12:04:59Z</time>
      </trkpt>
      <trkpt lat="44.41503" lon="3.8208">
        <ele>1546.9</ele>
        <time>2017-05-17T12:05:10Z</time>
      </trkpt>
      <trkpt lat="44.41503" lon="3.82068">
        <ele>1544.98</ele>
        <time>2017-05-17T12:05:17Z</time>
      </trkpt>
      <trkpt lat="44.41499" lon="3.82044">
        <ele>1542.57</ele>
        <time>2017-05-17T12:05:31Z</time>
      </trkpt>
      <trkpt lat="44.41494" lon="3.82039">
        <ele>1544.5</ele>
        <time>2017-05-17T12:05:36Z</time>
      </trkpt>
      <trkpt lat="44.41482" lon="3.82027">
        <ele>1543.53</ele>
        <time>2017-05-17T12:05:49Z</time>
      </trkpt>
      <trkpt lat="44.41478" lon="3.82022">
        <ele>1543.05</ele>
        <time>2017-05-17T12:05:53Z</time>
      </trkpt>
      <trkpt lat="44.41475" lon="3.82019">
        <ele>1540.65</ele>
        <time>2017-05-17T12:05:56Z</time>
      </trkpt>
      <trkpt lat="44.41468" lon="3.82014">
        <ele>1541.61</ele>
        <time>2017-05-17T12:06:02Z</time>
      </trkpt>
      <trkpt lat="44.41463" lon="3.82012">
        <ele>1542.09</ele>
        <time>2017-05-17T12:06:07Z</time>
      </trkpt>
      <trkpt lat="44.41454" lon="3.82002">
        <ele>1540.17</ele>
        <time>2017-05-17T12:06:17Z</time>
      </trkpt>
      <trkpt lat="44.4144" lon="3.81997">
        <ele>1540.65</ele>
        <time>2017-05-17T12:06:29Z</time>
      </trkpt>
      <trkpt lat="44.41433" lon="3.82001">
        <ele>1541.61</ele>
        <time>2017-05-17T12:06:36Z</time>
      </trkpt>
      <trkpt lat="44.4142" lon="3.82018">
        <ele>1541.61</ele>
        <time>2017-05-17T12:06:51Z</time>
      </trkpt>
      <trkpt lat="44.41414" lon="3.8202">
        <ele>1540.17</ele>
        <time>2017-05-17T12:06:56Z</time>
      </trkpt>
      <trkpt lat="44.41408" lon="3.82018">
        <ele>1540.17</ele>
        <time>2017-05-17T12:07:01Z</time>
      </trkpt>
      <trkpt lat="44.41403" lon="3.82016">
        <ele>1539.69</ele>
        <time>2017-05-17T12:07:05Z</time>
      </trkpt>
      <trkpt lat="44.414" lon="3.82015">
        <ele>1536.8</ele>
        <time>2017-05-17T12:07:12Z</time>
      </trkpt>
      <trkpt lat="44.41399" lon="3.82014">
        <ele>1540.65</ele>
        <time>2017-05-17T12:07:16Z</time>
      </trkpt>
      <trkpt lat="44.41398" lon="3.82014">
        <ele>1540.65</ele>
        <time>2017-05-17T12:07:17Z</time>
      </trkpt>
      <trkpt lat="44.41397" lon="3.82015">
        <ele>1540.65</ele>
        <time>2017-05-17T12:07:34Z</time>
      </trkpt>
      <trkpt lat="44.41396" lon="3.82016">
        <ele>1540.65</ele>
        <time>2017-05-17T12:07:35Z</time>
      </trkpt>
      <trkpt lat="44.41395" lon="3.82016">
        <ele>1539.69</ele>
        <time>2017-05-17T12:07:36Z</time>
      </trkpt>
      <trkpt lat="44.41376" lon="3.82027">
        <ele>1539.21</ele>
        <time>2017-05-17T12:07:52Z</time>
      </trkpt>
      <trkpt lat="44.41372" lon="3.82029">
        <ele>1539.69</ele>
        <time>2017-05-17T12:07:55Z</time>
      </trkpt>
      <trkpt lat="44.41367" lon="3.82041">
        <ele>1539.69</ele>
        <time>2017-05-17T12:08:04Z</time>
      </trkpt>
      <trkpt lat="44.41358" lon="3.8206">
        <ele>1537.77</ele>
        <time>2017-05-17T12:08:18Z</time>
      </trkpt>
      <trkpt lat="44.41347" lon="3.82079">
        <ele>1537.29</ele>
        <time>2017-05-17T12:08:33Z</time>
      </trkpt>
      <trkpt lat="44.41342" lon="3.82085">
        <ele>1537.77</ele>
        <time>2017-05-17T12:08:39Z</time>
      </trkpt>
      <trkpt lat="44.41335" lon="3.82094">
        <ele>1536.8</ele>
        <time>2017-05-17T12:08:47Z</time>
      </trkpt>
      <trkpt lat="44.41323" lon="3.82111">
        <ele>1536.32</ele>
        <time>2017-05-17T12:09:01Z</time>
      </trkpt>
      <trkpt lat="44.41311" lon="3.8213">
        <ele>1535.84</ele>
        <time>2017-05-17T12:09:15Z</time>
      </trkpt>
      <trkpt lat="44.41299" lon="3.82149">
        <ele>1534.4</ele>
        <time>2017-05-17T12:09:30Z</time>
      </trkpt>
      <trkpt lat="44.41293" lon="3.82158">
        <ele>1534.4</ele>
        <time>2017-05-17T12:09:37Z</time>
      </trkpt>
      <trkpt lat="44.41288" lon="3.82165">
        <ele>1533.44</ele>
        <time>2017-05-17T12:09:43Z</time>
      </trkpt>
      <trkpt lat="44.41285" lon="3.82167">
        <ele>1533.44</ele>
        <time>2017-05-17T12:09:54Z</time>
      </trkpt>
      <trkpt lat="44.41274" lon="3.82184">
        <ele>1532.48</ele>
        <time>2017-05-17T12:10:08Z</time>
      </trkpt>
      <trkpt lat="44.41264" lon="3.82201">
        <ele>1532</ele>
        <time>2017-05-17T12:10:20Z</time>
      </trkpt>
      <trkpt lat="44.41258" lon="3.82206">
        <ele>1531.52</ele>
        <time>2017-05-17T12:10:25Z</time>
      </trkpt>
      <trkpt lat="44.41249" lon="3.82223">
        <ele>1532</ele>
        <time>2017-05-17T12:10:39Z</time>
      </trkpt>
      <trkpt lat="44.41245" lon="3.82231">
        <ele>1531.04</ele>
        <time>2017-05-17T12:10:45Z</time>
      </trkpt>
      <trkpt lat="44.41237" lon="3.82244">
        <ele>1532.96</ele>
        <time>2017-05-17T12:10:54Z</time>
      </trkpt>
      <trkpt lat="44.41234" lon="3.82249">
        <ele>1531.04</ele>
        <time>2017-05-17T12:10:58Z</time>
      </trkpt>
      <trkpt lat="44.41222" lon="3.82275">
        <ele>1530.56</ele>
        <time>2017-05-17T12:11:14Z</time>
      </trkpt>
      <trkpt lat="44.41208" lon="3.82296">
        <ele>1527.67</ele>
        <time>2017-05-17T12:11:30Z</time>
      </trkpt>
      <trkpt lat="44.41192" lon="3.82307">
        <ele>1527.19</ele>
        <time>2017-05-17T12:11:43Z</time>
      </trkpt>
      <trkpt lat="44.41176" lon="3.8232">
        <ele>1527.67</ele>
        <time>2017-05-17T12:11:57Z</time>
      </trkpt>
      <trkpt lat="44.41159" lon="3.82325">
        <ele>1525.27</ele>
        <time>2017-05-17T12:12:10Z</time>
      </trkpt>
      <trkpt lat="44.41141" lon="3.82324">
        <ele>1525.75</ele>
        <time>2017-05-17T12:12:24Z</time>
      </trkpt>
      <trkpt lat="44.4114" lon="3.82324">
        <ele>1525.27</ele>
        <time>2017-05-17T12:12:25Z</time>
      </trkpt>
      <trkpt lat="44.41134" lon="3.82324">
        <ele>1524.79</ele>
        <time>2017-05-17T12:12:30Z</time>
      </trkpt>
      <trkpt lat="44.41117" lon="3.82325">
        <ele>1524.31</ele>
        <time>2017-05-17T12:12:44Z</time>
      </trkpt>
      <trkpt lat="44.41102" lon="3.82323">
        <ele>1521.9</ele>
        <time>2017-05-17T12:12:58Z</time>
      </trkpt>
      <trkpt lat="44.41099" lon="3.82323">
        <ele>1519.02</ele>
        <time>2017-05-17T12:13:01Z</time>
      </trkpt>
      <trkpt lat="44.41094" lon="3.82319">
        <ele>1519.98</ele>
        <time>2017-05-17T12:13:06Z</time>
      </trkpt>
      <trkpt lat="44.41088" lon="3.82317">
        <ele>1521.42</ele>
        <time>2017-05-17T12:13:13Z</time>
      </trkpt>
      <trkpt lat="44.41077" lon="3.82314">
        <ele>1519.02</ele>
        <time>2017-05-17T12:13:22Z</time>
      </trkpt>
      <trkpt lat="44.41074" lon="3.82314">
        <ele>1519.02</ele>
        <time>2017-05-17T12:13:24Z</time>
      </trkpt>
      <trkpt lat="44.41072" lon="3.82314">
        <ele>1518.54</ele>
        <time>2017-05-17T12:13:26Z</time>
      </trkpt>
      <trkpt lat="44.4107" lon="3.82312">
        <ele>1519.02</ele>
        <time>2017-05-17T12:13:28Z</time>
      </trkpt>
      <trkpt lat="44.41064" lon="3.82311">
        <ele>1517.58</ele>
        <time>2017-05-17T12:13:34Z</time>
      </trkpt>
      <trkpt lat="44.41058" lon="3.82311">
        <ele>1518.54</ele>
        <time>2017-05-17T12:13:39Z</time>
      </trkpt>
      <trkpt lat="44.41055" lon="3.82309">
        <ele>1517.58</ele>
        <time>2017-05-17T12:13:42Z</time>
      </trkpt>
      <trkpt lat="44.41043" lon="3.82304">
        <ele>1513.25</ele>
        <time>2017-05-17T12:13:52Z</time>
      </trkpt>
      <trkpt lat="44.41039" lon="3.82303">
        <ele>1515.66</ele>
        <time>2017-05-17T12:13:55Z</time>
      </trkpt>
      <trkpt lat="44.41029" lon="3.823">
        <ele>1515.66</ele>
        <time>2017-05-17T12:14:04Z</time>
      </trkpt>
      <trkpt lat="44.41018" lon="3.823">
        <ele>1516.14</ele>
        <time>2017-05-17T12:14:15Z</time>
      </trkpt>
      <trkpt lat="44.41011" lon="3.82303">
        <ele>1515.66</ele>
        <time>2017-05-17T12:14:22Z</time>
      </trkpt>
      <trkpt lat="44.41008" lon="3.82302">
        <ele>1513.73</ele>
        <time>2017-05-17T12:14:25Z</time>
      </trkpt>
      <trkpt lat="44.41003" lon="3.82301">
        <ele>1513.73</ele>
        <time>2017-05-17T12:14:37Z</time>
      </trkpt>
      <trkpt lat="44.41004" lon="3.823">
        <ele>1515.66</ele>
        <time>2017-05-17T12:14:59Z</time>
      </trkpt>
      <trkpt lat="44.41003" lon="3.82299">
        <ele>1515.66</ele>
        <time>2017-05-17T12:15:14Z</time>
      </trkpt>
      <trkpt lat="44.40996" lon="3.82295">
        <ele>1517.1</ele>
        <time>2017-05-17T12:15:27Z</time>
      </trkpt>
      <trkpt lat="44.40996" lon="3.82294">
        <ele>1517.58</ele>
        <time>2017-05-17T12:15:52Z</time>
      </trkpt>
      <trkpt lat="44.40996" lon="3.82296">
        <ele>1517.1</ele>
        <time>2017-05-17T12:16:18Z</time>
      </trkpt>
      <trkpt lat="44.40997" lon="3.82297">
        <ele>1517.1</ele>
        <time>2017-05-17T12:16:39Z</time>
      </trkpt>
      <trkpt lat="44.40997" lon="3.82297">
        <ele>1516.62</ele>
        <time>2017-05-17T12:17:15Z</time>
      </trkpt>
      <trkpt lat="44.40993" lon="3.82296">
        <ele>1513.25</ele>
        <time>2017-05-17T12:17:24Z</time>
      </trkpt>
      <trkpt lat="44.40993" lon="3.82296">
        <ele>1514.21</ele>
        <time>2017-05-17T12:17:25Z</time>
      </trkpt>
      <trkpt lat="44.40988" lon="3.82305">
        <ele>1516.62</ele>
        <time>2017-05-17T12:17:37Z</time>
      </trkpt>
      <trkpt lat="44.40987" lon="3.82307">
        <ele>1515.18</ele>
        <time>2017-05-17T12:17:39Z</time>
      </trkpt>
      <trkpt lat="44.40985" lon="3.8231">
        <ele>1515.18</ele>
        <time>2017-05-17T12:17:43Z</time>
      </trkpt>
      <trkpt lat="44.40983" lon="3.82313">
        <ele>1516.14</ele>
        <time>2017-05-17T12:17:45Z</time>
      </trkpt>
      <trkpt lat="44.4098" lon="3.82316">
        <ele>1514.21</ele>
        <time>2017-05-17T12:17:48Z</time>
      </trkpt>
      <trkpt lat="44.40977" lon="3.82319">
        <ele>1513.25</ele>
        <time>2017-05-17T12:17:52Z</time>
      </trkpt>
      <trkpt lat="44.40976" lon="3.82319">
        <ele>1514.21</ele>
        <time>2017-05-17T12:18:07Z</time>
      </trkpt>
      <trkpt lat="44.40976" lon="3.8232">
        <ele>1513.73</ele>
        <time>2017-05-17T12:18:32Z</time>
      </trkpt>
      <trkpt lat="44.40975" lon="3.8232">
        <ele>1513.73</ele>
        <time>2017-05-17T12:18:40Z</time>
      </trkpt>
      <trkpt lat="44.40975" lon="3.82323">
        <ele>1512.77</ele>
        <time>2017-05-17T12:18:42Z</time>
      </trkpt>
      <trkpt lat="44.40962" lon="3.82335">
        <ele>1511.33</ele>
        <time>2017-05-17T12:18:56Z</time>
      </trkpt>
      <trkpt lat="44.40962" lon="3.82336">
        <ele>1511.81</ele>
        <time>2017-05-17T12:18:57Z</time>
      </trkpt>
      <trkpt lat="44.40955" lon="3.82337">
        <ele>1507.97</ele>
        <time>2017-05-17T12:19:06Z</time>
      </trkpt>
      <trkpt lat="44.40955" lon="3.82337">
        <ele>1508.45</ele>
        <time>2017-05-17T12:19:07Z</time>
      </trkpt>
      <trkpt lat="44.40949" lon="3.82338">
        <ele>1507.48</ele>
        <time>2017-05-17T12:19:14Z</time>
      </trkpt>
      <trkpt lat="44.40948" lon="3.82339">
        <ele>1507</ele>
        <time>2017-05-17T12:19:16Z</time>
      </trkpt>
      <trkpt lat="44.40936" lon="3.82344">
        <ele>1503.16</ele>
        <time>2017-05-17T12:19:29Z</time>
      </trkpt>
      <trkpt lat="44.40934" lon="3.82344">
        <ele>1503.16</ele>
        <time>2017-05-17T12:19:31Z</time>
      </trkpt>
      <trkpt lat="44.4093" lon="3.82344">
        <ele>1503.16</ele>
        <time>2017-05-17T12:19:35Z</time>
      </trkpt>
      <trkpt lat="44.40927" lon="3.82343">
        <ele>1501.72</ele>
        <time>2017-05-17T12:19:38Z</time>
      </trkpt>
      <trkpt lat="44.40916" lon="3.82352">
        <ele>1502.2</ele>
        <time>2017-05-17T12:19:50Z</time>
      </trkpt>
      <trkpt lat="44.40909" lon="3.82349">
        <ele>1500.76</ele>
        <time>2017-05-17T12:19:57Z</time>
      </trkpt>
      <trkpt lat="44.40905" lon="3.8235">
        <ele>1500.27</ele>
        <time>2017-05-17T12:20:01Z</time>
      </trkpt>
      <trkpt lat="44.40901" lon="3.82352">
        <ele>1499.31</ele>
        <time>2017-05-17T12:20:04Z</time>
      </trkpt>
      <trkpt lat="44.4089" lon="3.82351">
        <ele>1501.24</ele>
        <time>2017-05-17T12:20:14Z</time>
      </trkpt>
      <trkpt lat="44.40887" lon="3.8235">
        <ele>1499.79</ele>
        <time>2017-05-17T12:20:17Z</time>
      </trkpt>
      <trkpt lat="44.40875" lon="3.82351">
        <ele>1498.83</ele>
        <time>2017-05-17T12:20:27Z</time>
      </trkpt>
      <trkpt lat="44.40865" lon="3.82354">
        <ele>1498.83</ele>
        <time>2017-05-17T12:20:37Z</time>
      </trkpt>
      <trkpt lat="44.40858" lon="3.82356">
        <ele>1499.31</ele>
        <time>2017-05-17T12:20:44Z</time>
      </trkpt>
      <trkpt lat="44.40851" lon="3.82358">
        <ele>1498.35</ele>
        <time>2017-05-17T12:20:50Z</time>
      </trkpt>
      <trkpt lat="44.4085" lon="3.82359">
        <ele>1498.83</ele>
        <time>2017-05-17T12:21:02Z</time>
      </trkpt>
      <trkpt lat="44.40848" lon="3.82357">
        <ele>1496.91</ele>
        <time>2017-05-17T12:21:11Z</time>
      </trkpt>
      <trkpt lat="44.4083" lon="3.82361">
        <ele>1496.43</ele>
        <time>2017-05-17T12:21:26Z</time>
      </trkpt>
      <trkpt lat="44.40823" lon="3.82363">
        <ele>1496.43</ele>
        <time>2017-05-17T12:21:31Z</time>
      </trkpt>
      <trkpt lat="44.40816" lon="3.82367">
        <ele>1495.95</ele>
        <time>2017-05-17T12:21:37Z</time>
      </trkpt>
      <trkpt lat="44.40807" lon="3.82369">
        <ele>1496.43</ele>
        <time>2017-05-17T12:21:45Z</time>
      </trkpt>
      <trkpt lat="44.40805" lon="3.8237">
        <ele>1494.03</ele>
        <time>2017-05-17T12:21:48Z</time>
      </trkpt>
      <trkpt lat="44.40805" lon="3.82371">
        <ele>1494.03</ele>
        <time>2017-05-17T12:21:49Z</time>
      </trkpt>
      <trkpt lat="44.40804" lon="3.82371">
        <ele>1494.03</ele>
        <time>2017-05-17T12:21:50Z</time>
      </trkpt>
      <trkpt lat="44.40799" lon="3.82374">
        <ele>1494.03</ele>
        <time>2017-05-17T12:21:55Z</time>
      </trkpt>
      <trkpt lat="44.40797" lon="3.82375">
        <ele>1494.03</ele>
        <time>2017-05-17T12:21:57Z</time>
      </trkpt>
      <trkpt lat="44.40789" lon="3.82377">
        <ele>1494.51</ele>
        <time>2017-05-17T12:22:04Z</time>
      </trkpt>
      <trkpt lat="44.40776" lon="3.82371">
        <ele>1492.58</ele>
        <time>2017-05-17T12:22:16Z</time>
      </trkpt>
      <trkpt lat="44.40767" lon="3.82368">
        <ele>1491.62</ele>
        <time>2017-05-17T12:22:28Z</time>
      </trkpt>
      <trkpt lat="44.40764" lon="3.82367">
        <ele>1492.58</ele>
        <time>2017-05-17T12:22:33Z</time>
      </trkpt>
      <trkpt lat="44.40761" lon="3.8237">
        <ele>1493.55</ele>
        <time>2017-05-17T12:22:44Z</time>
      </trkpt>
      <trkpt lat="44.4076" lon="3.82369">
        <ele>1494.03</ele>
        <time>2017-05-17T12:22:58Z</time>
      </trkpt>
      <trkpt lat="44.40756" lon="3.82373">
        <ele>1493.06</ele>
        <time>2017-05-17T12:23:06Z</time>
      </trkpt>
      <trkpt lat="44.40748" lon="3.82376">
        <ele>1492.58</ele>
        <time>2017-05-17T12:23:13Z</time>
      </trkpt>
      <trkpt lat="44.40745" lon="3.82379">
        <ele>1492.1</ele>
        <time>2017-05-17T12:23:16Z</time>
      </trkpt>
      <trkpt lat="44.40737" lon="3.82382">
        <ele>1491.62</ele>
        <time>2017-05-17T12:23:23Z</time>
      </trkpt>
      <trkpt lat="44.40735" lon="3.82383">
        <ele>1491.62</ele>
        <time>2017-05-17T12:23:25Z</time>
      </trkpt>
      <trkpt lat="44.4073" lon="3.82387">
        <ele>1491.62</ele>
        <time>2017-05-17T12:23:30Z</time>
      </trkpt>
      <trkpt lat="44.40718" lon="3.82397">
        <ele>1492.1</ele>
        <time>2017-05-17T12:23:43Z</time>
      </trkpt>
      <trkpt lat="44.40716" lon="3.82399">
        <ele>1492.58</ele>
        <time>2017-05-17T12:23:45Z</time>
      </trkpt>
      <trkpt lat="44.40712" lon="3.82402">
        <ele>1491.62</ele>
        <time>2017-05-17T12:23:49Z</time>
      </trkpt>
      <trkpt lat="44.40709" lon="3.82404">
        <ele>1491.62</ele>
        <time>2017-05-17T12:23:52Z</time>
      </trkpt>
      <trkpt lat="44.40692" lon="3.82413">
        <ele>1491.62</ele>
        <time>2017-05-17T12:24:07Z</time>
      </trkpt>
      <trkpt lat="44.40691" lon="3.82412">
        <ele>1492.58</ele>
        <time>2017-05-17T12:24:10Z</time>
      </trkpt>
      <trkpt lat="44.40689" lon="3.82412">
        <ele>1492.1</ele>
        <time>2017-05-17T12:24:12Z</time>
      </trkpt>
      <trkpt lat="44.40685" lon="3.82416">
        <ele>1491.62</ele>
        <time>2017-05-17T12:24:16Z</time>
      </trkpt>
      <trkpt lat="44.40675" lon="3.8242">
        <ele>1487.3</ele>
        <time>2017-05-17T12:24:24Z</time>
      </trkpt>
      <trkpt lat="44.40674" lon="3.8242">
        <ele>1494.03</ele>
        <time>2017-05-17T12:24:25Z</time>
      </trkpt>
      <trkpt lat="44.40672" lon="3.8242">
        <ele>1490.66</ele>
        <time>2017-05-17T12:24:26Z</time>
      </trkpt>
      <trkpt lat="44.40669" lon="3.82424">
        <ele>1490.66</ele>
        <time>2017-05-17T12:24:30Z</time>
      </trkpt>
      <trkpt lat="44.40653" lon="3.82438">
        <ele>1489.22</ele>
        <time>2017-05-17T12:24:46Z</time>
      </trkpt>
      <trkpt lat="44.40638" lon="3.8245">
        <ele>1488.26</ele>
        <time>2017-05-17T12:24:59Z</time>
      </trkpt>
      <trkpt lat="44.40629" lon="3.82458">
        <ele>1485.37</ele>
        <time>2017-05-17T12:25:08Z</time>
      </trkpt>
      <trkpt lat="44.4061" lon="3.82463">
        <ele>1483.93</ele>
        <time>2017-05-17T12:25:22Z</time>
      </trkpt>
      <trkpt lat="44.40597" lon="3.82467">
        <ele>1484.41</ele>
        <time>2017-05-17T12:25:34Z</time>
      </trkpt>
      <trkpt lat="44.40594" lon="3.82467">
        <ele>1483.93</ele>
        <time>2017-05-17T12:25:36Z</time>
      </trkpt>
      <trkpt lat="44.40591" lon="3.8247">
        <ele>1485.37</ele>
        <time>2017-05-17T12:25:39Z</time>
      </trkpt>
      <trkpt lat="44.40587" lon="3.82471">
        <ele>1483.93</ele>
        <time>2017-05-17T12:25:42Z</time>
      </trkpt>
      <trkpt lat="44.40572" lon="3.82476">
        <ele>1483.93</ele>
        <time>2017-05-17T12:25:54Z</time>
      </trkpt>
      <trkpt lat="44.40571" lon="3.82476">
        <ele>1483.45</ele>
        <time>2017-05-17T12:25:55Z</time>
      </trkpt>
      <trkpt lat="44.40568" lon="3.82476">
        <ele>1482.01</ele>
        <time>2017-05-17T12:25:58Z</time>
      </trkpt>
      <trkpt lat="44.40555" lon="3.82472">
        <ele>1478.16</ele>
        <time>2017-05-17T12:26:08Z</time>
      </trkpt>
      <trkpt lat="44.40543" lon="3.82472">
        <ele>1478.16</ele>
        <time>2017-05-17T12:26:18Z</time>
      </trkpt>
      <trkpt lat="44.40535" lon="3.82468">
        <ele>1477.2</ele>
        <time>2017-05-17T12:26:24Z</time>
      </trkpt>
      <trkpt lat="44.40531" lon="3.82467">
        <ele>1475.28</ele>
        <time>2017-05-17T12:26:28Z</time>
      </trkpt>
      <trkpt lat="44.4052" lon="3.82464">
        <ele>1475.28</ele>
        <time>2017-05-17T12:26:37Z</time>
      </trkpt>
      <trkpt lat="44.40515" lon="3.82464">
        <ele>1472.88</ele>
        <time>2017-05-17T12:26:43Z</time>
      </trkpt>
      <trkpt lat="44.40511" lon="3.82461">
        <ele>1473.36</ele>
        <time>2017-05-17T12:26:47Z</time>
      </trkpt>
      <trkpt lat="44.40505" lon="3.82461">
        <ele>1474.32</ele>
        <time>2017-05-17T12:26:52Z</time>
      </trkpt>
      <trkpt lat="44.40498" lon="3.8246">
        <ele>1473.36</ele>
        <time>2017-05-17T12:26:59Z</time>
      </trkpt>
      <trkpt lat="44.40491" lon="3.82459">
        <ele>1470.47</ele>
        <time>2017-05-17T12:27:06Z</time>
      </trkpt>
      <trkpt lat="44.4049" lon="3.82459">
        <ele>1472.4</ele>
        <time>2017-05-17T12:27:07Z</time>
      </trkpt>
      <trkpt lat="44.40488" lon="3.82457">
        <ele>1471.44</ele>
        <time>2017-05-17T12:27:09Z</time>
      </trkpt>
      <trkpt lat="44.4048" lon="3.82456">
        <ele>1468.55</ele>
        <time>2017-05-17T12:27:16Z</time>
      </trkpt>
      <trkpt lat="44.40478" lon="3.82456">
        <ele>1469.99</ele>
        <time>2017-05-17T12:27:18Z</time>
      </trkpt>
      <trkpt lat="44.40474" lon="3.82455">
        <ele>1469.99</ele>
        <time>2017-05-17T12:27:24Z</time>
      </trkpt>
      <trkpt lat="44.40473" lon="3.82455">
        <ele>1469.51</ele>
        <time>2017-05-17T12:27:25Z</time>
      </trkpt>
      <trkpt lat="44.40467" lon="3.82453">
        <ele>1465.19</ele>
        <time>2017-05-17T12:27:31Z</time>
      </trkpt>
      <trkpt lat="44.40458" lon="3.82444">
        <ele>1467.59</ele>
        <time>2017-05-17T12:27:40Z</time>
      </trkpt>
      <trkpt lat="44.40456" lon="3.82444">
        <ele>1465.19</ele>
        <time>2017-05-17T12:27:43Z</time>
      </trkpt>
      <trkpt lat="44.40445" lon="3.82443">
        <ele>1464.71</ele>
        <time>2017-05-17T12:27:54Z</time>
      </trkpt>
      <trkpt lat="44.40444" lon="3.82443">
        <ele>1465.67</ele>
        <time>2017-05-17T12:27:55Z</time>
      </trkpt>
      <trkpt lat="44.40439" lon="3.82442">
        <ele>1463.26</ele>
        <time>2017-05-17T12:28:00Z</time>
      </trkpt>
      <trkpt lat="44.40429" lon="3.82435">
        <ele>1460.86</ele>
        <time>2017-05-17T12:28:09Z</time>
      </trkpt>
      <trkpt lat="44.40419" lon="3.82429">
        <ele>1462.3</ele>
        <time>2017-05-17T12:28:17Z</time>
      </trkpt>
      <trkpt lat="44.40417" lon="3.82429">
        <ele>1462.3</ele>
        <time>2017-05-17T12:28:24Z</time>
      </trkpt>
      <trkpt lat="44.40415" lon="3.82431">
        <ele>1462.3</ele>
        <time>2017-05-17T12:28:26Z</time>
      </trkpt>
      <trkpt lat="44.4041" lon="3.82432">
        <ele>1461.82</ele>
        <time>2017-05-17T12:28:31Z</time>
      </trkpt>
      <trkpt lat="44.40403" lon="3.82434">
        <ele>1461.82</ele>
        <time>2017-05-17T12:28:39Z</time>
      </trkpt>
      <trkpt lat="44.40388" lon="3.82441">
        <ele>1458.46</ele>
        <time>2017-05-17T12:28:53Z</time>
      </trkpt>
      <trkpt lat="44.40372" lon="3.82447">
        <ele>1456.53</ele>
        <time>2017-05-17T12:29:07Z</time>
      </trkpt>
      <trkpt lat="44.40357" lon="3.82448">
        <ele>1456.05</ele>
        <time>2017-05-17T12:29:21Z</time>
      </trkpt>
      <trkpt lat="44.40347" lon="3.82449">
        <ele>1453.65</ele>
        <time>2017-05-17T12:29:32Z</time>
      </trkpt>
      <trkpt lat="44.40345" lon="3.82449">
        <ele>1454.13</ele>
        <time>2017-05-17T12:29:35Z</time>
      </trkpt>
      <trkpt lat="44.40338" lon="3.82455">
        <ele>1450.77</ele>
        <time>2017-05-17T12:29:47Z</time>
      </trkpt>
      <trkpt lat="44.40336" lon="3.82457">
        <ele>1450.29</ele>
        <time>2017-05-17T12:29:49Z</time>
      </trkpt>
      <trkpt lat="44.4033" lon="3.82456">
        <ele>1449.81</ele>
        <time>2017-05-17T12:29:55Z</time>
      </trkpt>
      <trkpt lat="44.40325" lon="3.82455">
        <ele>1449.81</ele>
        <time>2017-05-17T12:29:59Z</time>
      </trkpt>
      <trkpt lat="44.40322" lon="3.82456">
        <ele>1449.81</ele>
        <time>2017-05-17T12:30:04Z</time>
      </trkpt>
      <trkpt lat="44.40321" lon="3.82455">
        <ele>1448.84</ele>
        <time>2017-05-17T12:30:09Z</time>
      </trkpt>
      <trkpt lat="44.40311" lon="3.82454">
        <ele>1446.92</ele>
        <time>2017-05-17T12:30:18Z</time>
      </trkpt>
      <trkpt lat="44.40296" lon="3.82453">
        <ele>1445</ele>
        <time>2017-05-17T12:30:31Z</time>
      </trkpt>
      <trkpt lat="44.40281" lon="3.8246">
        <ele>1442.6</ele>
        <time>2017-05-17T12:30:45Z</time>
      </trkpt>
      <trkpt lat="44.40272" lon="3.82463">
        <ele>1442.11</ele>
        <time>2017-05-17T12:30:53Z</time>
      </trkpt>
      <trkpt lat="44.40264" lon="3.82462">
        <ele>1441.63</ele>
        <time>2017-05-17T12:31:00Z</time>
      </trkpt>
      <trkpt lat="44.4026" lon="3.8246">
        <ele>1442.11</ele>
        <time>2017-05-17T12:31:03Z</time>
      </trkpt>
      <trkpt lat="44.40257" lon="3.82461">
        <ele>1441.15</ele>
        <time>2017-05-17T12:31:06Z</time>
      </trkpt>
      <trkpt lat="44.40246" lon="3.82463">
        <ele>1439.71</ele>
        <time>2017-05-17T12:31:16Z</time>
      </trkpt>
      <trkpt lat="44.40235" lon="3.82463">
        <ele>1438.27</ele>
        <time>2017-05-17T12:31:27Z</time>
      </trkpt>
      <trkpt lat="44.40229" lon="3.82466">
        <ele>1439.23</ele>
        <time>2017-05-17T12:31:43Z</time>
      </trkpt>
      <trkpt lat="44.40227" lon="3.82467">
        <ele>1439.71</ele>
        <time>2017-05-17T12:31:58Z</time>
      </trkpt>
      <trkpt lat="44.40229" lon="3.82464">
        <ele>1439.71</ele>
        <time>2017-05-17T12:32:03Z</time>
      </trkpt>
      <trkpt lat="44.40229" lon="3.82464">
        <ele>1439.71</ele>
        <time>2017-05-17T12:32:24Z</time>
      </trkpt>
      <trkpt lat="44.40229" lon="3.82464">
        <ele>1440.19</ele>
        <time>2017-05-17T12:32:48Z</time>
      </trkpt>
      <trkpt lat="44.40225" lon="3.82464">
        <ele>1438.75</ele>
        <time>2017-05-17T12:32:51Z</time>
      </trkpt>
      <trkpt lat="44.40221" lon="3.82465">
        <ele>1437.79</ele>
        <time>2017-05-17T12:32:55Z</time>
      </trkpt>
      <trkpt lat="44.40214" lon="3.82462">
        <ele>1437.31</ele>
        <time>2017-05-17T12:33:02Z</time>
      </trkpt>
      <trkpt lat="44.40207" lon="3.82461">
        <ele>1436.83</ele>
        <time>2017-05-17T12:33:08Z</time>
      </trkpt>
      <trkpt lat="44.40201" lon="3.82457">
        <ele>1433.94</ele>
        <time>2017-05-17T12:33:14Z</time>
      </trkpt>
      <trkpt lat="44.40195" lon="3.82455">
        <ele>1433.94</ele>
        <time>2017-05-17T12:33:19Z</time>
      </trkpt>
      <trkpt lat="44.40193" lon="3.82456">
        <ele>1434.42</ele>
        <time>2017-05-17T12:33:21Z</time>
      </trkpt>
      <trkpt lat="44.40188" lon="3.82457">
        <ele>1434.91</ele>
        <time>2017-05-17T12:33:25Z</time>
      </trkpt>
      <trkpt lat="44.40182" lon="3.82456">
        <ele>1432.5</ele>
        <time>2017-05-17T12:33:30Z</time>
      </trkpt>
      <trkpt lat="44.40178" lon="3.82456">
        <ele>1433.46</ele>
        <time>2017-05-17T12:33:34Z</time>
      </trkpt>
      <trkpt lat="44.40177" lon="3.82455">
        <ele>1432.98</ele>
        <time>2017-05-17T12:33:45Z</time>
      </trkpt>
      <trkpt lat="44.40174" lon="3.82454">
        <ele>1433.94</ele>
        <time>2017-05-17T12:33:48Z</time>
      </trkpt>
      <trkpt lat="44.4017" lon="3.82453">
        <ele>1431.54</ele>
        <time>2017-05-17T12:33:51Z</time>
      </trkpt>
      <trkpt lat="44.40167" lon="3.82452">
        <ele>1431.54</ele>
        <time>2017-05-17T12:33:55Z</time>
      </trkpt>
      <trkpt lat="44.40164" lon="3.82451">
        <ele>1431.54</ele>
        <time>2017-05-17T12:33:58Z</time>
      </trkpt>
      <trkpt lat="44.40159" lon="3.82448">
        <ele>1431.54</ele>
        <time>2017-05-17T12:34:02Z</time>
      </trkpt>
      <trkpt lat="44.4014" lon="3.82439">
        <ele>1431.06</ele>
        <time>2017-05-17T12:34:18Z</time>
      </trkpt>
      <trkpt lat="44.40135" lon="3.8244">
        <ele>1432.02</ele>
        <time>2017-05-17T12:34:22Z</time>
      </trkpt>
      <trkpt lat="44.40124" lon="3.82435">
        <ele>1430.58</ele>
        <time>2017-05-17T12:34:33Z</time>
      </trkpt>
      <trkpt lat="44.40123" lon="3.82434">
        <ele>1431.54</ele>
        <time>2017-05-17T12:34:34Z</time>
      </trkpt>
      <trkpt lat="44.4012" lon="3.82433">
        <ele>1431.06</ele>
        <time>2017-05-17T12:34:37Z</time>
      </trkpt>
      <trkpt lat="44.40116" lon="3.82432">
        <ele>1429.62</ele>
        <time>2017-05-17T12:34:41Z</time>
      </trkpt>
      <trkpt lat="44.40104" lon="3.82429">
        <ele>1429.14</ele>
        <time>2017-05-17T12:34:52Z</time>
      </trkpt>
      <trkpt lat="44.40095" lon="3.82427">
        <ele>1427.21</ele>
        <time>2017-05-17T12:35:00Z</time>
      </trkpt>
      <trkpt lat="44.40079" lon="3.82423">
        <ele>1426.73</ele>
        <time>2017-05-17T12:35:14Z</time>
      </trkpt>
      <trkpt lat="44.40073" lon="3.82424">
        <ele>1427.21</ele>
        <time>2017-05-17T12:35:20Z</time>
      </trkpt>
      <trkpt lat="44.40069" lon="3.82424">
        <ele>1427.21</ele>
        <time>2017-05-17T12:35:23Z</time>
      </trkpt>
      <trkpt lat="44.40062" lon="3.82424">
        <ele>1426.25</ele>
        <time>2017-05-17T12:35:30Z</time>
      </trkpt>
      <trkpt lat="44.40059" lon="3.82424">
        <ele>1426.25</ele>
        <time>2017-05-17T12:35:33Z</time>
      </trkpt>
      <trkpt lat="44.40053" lon="3.82424">
        <ele>1426.25</ele>
        <time>2017-05-17T12:35:38Z</time>
      </trkpt>
      <trkpt lat="44.40039" lon="3.82425">
        <ele>1425.77</ele>
        <time>2017-05-17T12:35:51Z</time>
      </trkpt>
      <trkpt lat="44.40038" lon="3.82425">
        <ele>1426.25</ele>
        <time>2017-05-17T12:35:52Z</time>
      </trkpt>
      <trkpt lat="44.40034" lon="3.82423">
        <ele>1426.25</ele>
        <time>2017-05-17T12:35:56Z</time>
      </trkpt>
      <trkpt lat="44.40028" lon="3.82425">
        <ele>1425.77</ele>
        <time>2017-05-17T12:36:02Z</time>
      </trkpt>
      <trkpt lat="44.40027" lon="3.82424">
        <ele>1425.77</ele>
        <time>2017-05-17T12:36:08Z</time>
      </trkpt>
      <trkpt lat="44.40025" lon="3.82425">
        <ele>1425.77</ele>
        <time>2017-05-17T12:36:10Z</time>
      </trkpt>
      <trkpt lat="44.40019" lon="3.82423">
        <ele>1425.29</ele>
        <time>2017-05-17T12:36:15Z</time>
      </trkpt>
      <trkpt lat="44.40013" lon="3.82426">
        <ele>1425.29</ele>
        <time>2017-05-17T12:36:21Z</time>
      </trkpt>
      <trkpt lat="44.40009" lon="3.82423">
        <ele>1425.29</ele>
        <time>2017-05-17T12:36:25Z</time>
      </trkpt>
      <trkpt lat="44.39996" lon="3.82413">
        <ele>1424.81</ele>
        <time>2017-05-17T12:36:38Z</time>
      </trkpt>
      <trkpt lat="44.39995" lon="3.82412">
        <ele>1424.33</ele>
        <time>2017-05-17T12:36:44Z</time>
      </trkpt>
      <trkpt lat="44.39989" lon="3.82409">
        <ele>1424.33</ele>
        <time>2017-05-17T12:36:50Z</time>
      </trkpt>
      <trkpt lat="44.39982" lon="3.82404">
        <ele>1423.85</ele>
        <time>2017-05-17T12:36:56Z</time>
      </trkpt>
      <trkpt lat="44.39977" lon="3.82401">
        <ele>1423.85</ele>
        <time>2017-05-17T12:37:00Z</time>
      </trkpt>
      <trkpt lat="44.39966" lon="3.82394">
        <ele>1423.37</ele>
        <time>2017-05-17T12:37:10Z</time>
      </trkpt>
      <trkpt lat="44.39952" lon="3.82384">
        <ele>1422.89</ele>
        <time>2017-05-17T12:37:23Z</time>
      </trkpt>
      <trkpt lat="44.39942" lon="3.82376">
        <ele>1421.93</ele>
        <time>2017-05-17T12:37:32Z</time>
      </trkpt>
      <trkpt lat="44.39941" lon="3.82375">
        <ele>1421.45</ele>
        <time>2017-05-17T12:37:33Z</time>
      </trkpt>
      <trkpt lat="44.39936" lon="3.82372">
        <ele>1421.45</ele>
        <time>2017-05-17T12:37:38Z</time>
      </trkpt>
      <trkpt lat="44.39926" lon="3.82364">
        <ele>1420.49</ele>
        <time>2017-05-17T12:37:46Z</time>
      </trkpt>
      <trkpt lat="44.39917" lon="3.82359">
        <ele>1420.49</ele>
        <time>2017-05-17T12:37:54Z</time>
      </trkpt>
      <trkpt lat="44.39904" lon="3.8235">
        <ele>1418.08</ele>
        <time>2017-05-17T12:38:06Z</time>
      </trkpt>
      <trkpt lat="44.39901" lon="3.82348">
        <ele>1420</ele>
        <time>2017-05-17T12:38:09Z</time>
      </trkpt>
      <trkpt lat="44.39894" lon="3.82342">
        <ele>1418.56</ele>
        <time>2017-05-17T12:38:16Z</time>
      </trkpt>
      <trkpt lat="44.39891" lon="3.82341">
        <ele>1419.52</ele>
        <time>2017-05-17T12:38:19Z</time>
      </trkpt>
      <trkpt lat="44.39876" lon="3.82331">
        <ele>1418.08</ele>
        <time>2017-05-17T12:38:33Z</time>
      </trkpt>
      <trkpt lat="44.39875" lon="3.82331">
        <ele>1418.56</ele>
        <time>2017-05-17T12:38:34Z</time>
      </trkpt>
      <trkpt lat="44.39871" lon="3.82328">
        <ele>1417.12</ele>
        <time>2017-05-17T12:38:38Z</time>
      </trkpt>
      <trkpt lat="44.39866" lon="3.82316">
        <ele>1416.64</ele>
        <time>2017-05-17T12:38:46Z</time>
      </trkpt>
      <trkpt lat="44.39864" lon="3.82313">
        <ele>1417.6</ele>
        <time>2017-05-17T12:38:50Z</time>
      </trkpt>
      <trkpt lat="44.39861" lon="3.8231">
        <ele>1416.16</ele>
        <time>2017-05-17T12:38:53Z</time>
      </trkpt>
      <trkpt lat="44.39858" lon="3.82303">
        <ele>1415.68</ele>
        <time>2017-05-17T12:38:58Z</time>
      </trkpt>
      <trkpt lat="44.39852" lon="3.82288">
        <ele>1415.68</ele>
        <time>2017-05-17T12:39:09Z</time>
      </trkpt>
      <trkpt lat="44.3985" lon="3.82283">
        <ele>1414.24</ele>
        <time>2017-05-17T12:39:13Z</time>
      </trkpt>
      <trkpt lat="44.39846" lon="3.82269">
        <ele>1415.68</ele>
        <time>2017-05-17T12:39:22Z</time>
      </trkpt>
      <trkpt lat="44.39841" lon="3.82258">
        <ele>1416.16</ele>
        <time>2017-05-17T12:39:33Z</time>
      </trkpt>
      <trkpt lat="44.39841" lon="3.82257">
        <ele>1415.2</ele>
        <time>2017-05-17T12:39:34Z</time>
      </trkpt>
      <trkpt lat="44.39834" lon="3.82248">
        <ele>1414.24</ele>
        <time>2017-05-17T12:39:42Z</time>
      </trkpt>
      <trkpt lat="44.39822" lon="3.82226">
        <ele>1413.28</ele>
        <time>2017-05-17T12:39:59Z</time>
      </trkpt>
      <trkpt lat="44.39818" lon="3.82216">
        <ele>1414.72</ele>
        <time>2017-05-17T12:40:07Z</time>
      </trkpt>
      <trkpt lat="44.39811" lon="3.82205">
        <ele>1415.68</ele>
        <time>2017-05-17T12:40:20Z</time>
      </trkpt>
      <trkpt lat="44.39811" lon="3.82206">
        <ele>1414.72</ele>
        <time>2017-05-17T12:40:35Z</time>
      </trkpt>
      <trkpt lat="44.39812" lon="3.82206">
        <ele>1415.68</ele>
        <time>2017-05-17T12:40:57Z</time>
      </trkpt>
      <trkpt lat="44.39812" lon="3.82206">
        <ele>1415.2</ele>
        <time>2017-05-17T12:41:20Z</time>
      </trkpt>
      <trkpt lat="44.39813" lon="3.82206">
        <ele>1415.2</ele>
        <time>2017-05-17T12:41:46Z</time>
      </trkpt>
      <trkpt lat="44.39812" lon="3.82206">
        <ele>1414.72</ele>
        <time>2017-05-17T12:41:48Z</time>
      </trkpt>
      <trkpt lat="44.39809" lon="3.82207">
        <ele>1413.76</ele>
        <time>2017-05-17T12:41:51Z</time>
      </trkpt>
      <trkpt lat="44.39799" lon="3.82208">
        <ele>1413.76</ele>
        <time>2017-05-17T12:42:03Z</time>
      </trkpt>
      <trkpt lat="44.39795" lon="3.82208">
        <ele>1413.76</ele>
        <time>2017-05-17T12:42:07Z</time>
      </trkpt>
      <trkpt lat="44.39793" lon="3.82208">
        <ele>1413.28</ele>
        <time>2017-05-17T12:42:09Z</time>
      </trkpt>
      <trkpt lat="44.39791" lon="3.82206">
        <ele>1414.24</ele>
        <time>2017-05-17T12:42:11Z</time>
      </trkpt>
      <trkpt lat="44.39782" lon="3.82205">
        <ele>1412.31</ele>
        <time>2017-05-17T12:42:23Z</time>
      </trkpt>
      <trkpt lat="44.39777" lon="3.82204">
        <ele>1411.83</ele>
        <time>2017-05-17T12:42:29Z</time>
      </trkpt>
      <trkpt lat="44.39774" lon="3.82206">
        <ele>1410.39</ele>
        <time>2017-05-17T12:42:33Z</time>
      </trkpt>
      <trkpt lat="44.39771" lon="3.82203">
        <ele>1409.91</ele>
        <time>2017-05-17T12:42:40Z</time>
      </trkpt>
      <trkpt lat="44.39769" lon="3.82202">
        <ele>1409.91</ele>
        <time>2017-05-17T12:42:57Z</time>
      </trkpt>
      <trkpt lat="44.39767" lon="3.82201">
        <ele>1410.39</ele>
        <time>2017-05-17T12:43:15Z</time>
      </trkpt>
      <trkpt lat="44.39767" lon="3.82201">
        <ele>1409.91</ele>
        <time>2017-05-17T12:43:31Z</time>
      </trkpt>
      <trkpt lat="44.39765" lon="3.82201">
        <ele>1410.87</ele>
        <time>2017-05-17T12:43:46Z</time>
      </trkpt>
      <trkpt lat="44.39764" lon="3.82202">
        <ele>1410.87</ele>
        <time>2017-05-17T12:43:58Z</time>
      </trkpt>
      <trkpt lat="44.39763" lon="3.82201">
        <ele>1410.87</ele>
        <time>2017-05-17T12:44:19Z</time>
      </trkpt>
      <trkpt lat="44.39763" lon="3.82201">
        <ele>1410.87</ele>
        <time>2017-05-17T12:44:51Z</time>
      </trkpt>
      <trkpt lat="44.39763" lon="3.82201">
        <ele>1412.31</ele>
        <time>2017-05-17T12:45:12Z</time>
      </trkpt>
      <trkpt lat="44.39763" lon="3.82201">
        <ele>1411.83</ele>
        <time>2017-05-17T12:45:39Z</time>
      </trkpt>
      <trkpt lat="44.39763" lon="3.822">
        <ele>1411.35</ele>
        <time>2017-05-17T12:46:15Z</time>
      </trkpt>
      <trkpt lat="44.3976" lon="3.82202">
        <ele>1412.31</ele>
        <time>2017-05-17T12:46:38Z</time>
      </trkpt>
      <trkpt lat="44.39756" lon="3.82203">
        <ele>1412.31</ele>
        <time>2017-05-17T12:46:43Z</time>
      </trkpt>
      <trkpt lat="44.39754" lon="3.82205">
        <ele>1413.28</ele>
        <time>2017-05-17T12:46:46Z</time>
      </trkpt>
      <trkpt lat="44.39749" lon="3.82207">
        <ele>1412.31</ele>
        <time>2017-05-17T12:46:51Z</time>
      </trkpt>
      <trkpt lat="44.39746" lon="3.82206">
        <ele>1413.28</ele>
        <time>2017-05-17T12:46:54Z</time>
      </trkpt>
      <trkpt lat="44.3973" lon="3.8221">
        <ele>1412.79</ele>
        <time>2017-05-17T12:47:09Z</time>
      </trkpt>
      <trkpt lat="44.39728" lon="3.82211">
        <ele>1412.31</ele>
        <time>2017-05-17T12:47:10Z</time>
      </trkpt>
      <trkpt lat="44.39726" lon="3.8221">
        <ele>1411.83</ele>
        <time>2017-05-17T12:47:12Z</time>
      </trkpt>
      <trkpt lat="44.39722" lon="3.82211">
        <ele>1412.31</ele>
        <time>2017-05-17T12:47:15Z</time>
      </trkpt>
      <trkpt lat="44.39716" lon="3.82212">
        <ele>1412.79</ele>
        <time>2017-05-17T12:47:21Z</time>
      </trkpt>
      <trkpt lat="44.39703" lon="3.82215">
        <ele>1412.31</ele>
        <time>2017-05-17T12:47:33Z</time>
      </trkpt>
      <trkpt lat="44.39692" lon="3.82223">
        <ele>1411.35</ele>
        <time>2017-05-17T12:47:44Z</time>
      </trkpt>
      <trkpt lat="44.39684" lon="3.82224">
        <ele>1411.35</ele>
        <time>2017-05-17T12:47:51Z</time>
      </trkpt>
      <trkpt lat="44.39679" lon="3.82227">
        <ele>1411.35</ele>
        <time>2017-05-17T12:47:56Z</time>
      </trkpt>
      <trkpt lat="44.39673" lon="3.82226">
        <ele>1411.35</ele>
        <time>2017-05-17T12:48:01Z</time>
      </trkpt>
      <trkpt lat="44.39658" lon="3.82231">
        <ele>1411.83</ele>
        <time>2017-05-17T12:48:15Z</time>
      </trkpt>
      <trkpt lat="44.39646" lon="3.82231">
        <ele>1411.83</ele>
        <time>2017-05-17T12:48:25Z</time>
      </trkpt>
      <trkpt lat="44.3964" lon="3.8223">
        <ele>1410.87</ele>
        <time>2017-05-17T12:48:37Z</time>
      </trkpt>
      <trkpt lat="44.3964" lon="3.8223">
        <ele>1410.39</ele>
        <time>2017-05-17T12:48:50Z</time>
      </trkpt>
      <trkpt lat="44.39628" lon="3.82228">
        <ele>1409.43</ele>
        <time>2017-05-17T12:49:01Z</time>
      </trkpt>
      <trkpt lat="44.39622" lon="3.82227">
        <ele>1409.91</ele>
        <time>2017-05-17T12:49:12Z</time>
      </trkpt>
      <trkpt lat="44.39621" lon="3.82226">
        <ele>1408.47</ele>
        <time>2017-05-17T12:49:13Z</time>
      </trkpt>
      <trkpt lat="44.39618" lon="3.82224">
        <ele>1406.55</ele>
        <time>2017-05-17T12:49:16Z</time>
      </trkpt>
      <trkpt lat="44.39616" lon="3.82222">
        <ele>1405.58</ele>
        <time>2017-05-17T12:49:19Z</time>
      </trkpt>
      <trkpt lat="44.3961" lon="3.82219">
        <ele>1404.62</ele>
        <time>2017-05-17T12:49:26Z</time>
      </trkpt>
      <trkpt lat="44.39609" lon="3.82218">
        <ele>1405.58</ele>
        <time>2017-05-17T12:49:28Z</time>
      </trkpt>
      <trkpt lat="44.39606" lon="3.8222">
        <ele>1403.18</ele>
        <time>2017-05-17T12:49:31Z</time>
      </trkpt>
      <trkpt lat="44.396" lon="3.82218">
        <ele>1403.18</ele>
        <time>2017-05-17T12:49:36Z</time>
      </trkpt>
      <trkpt lat="44.39585" lon="3.82215">
        <ele>1402.22</ele>
        <time>2017-05-17T12:49:49Z</time>
      </trkpt>
      <trkpt lat="44.39576" lon="3.82215">
        <ele>1402.7</ele>
        <time>2017-05-17T12:49:57Z</time>
      </trkpt>
      <trkpt lat="44.39573" lon="3.82215">
        <ele>1401.26</ele>
        <time>2017-05-17T12:50:00Z</time>
      </trkpt>
      <trkpt lat="44.39569" lon="3.82215">
        <ele>1401.26</ele>
        <time>2017-05-17T12:50:03Z</time>
      </trkpt>
      <trkpt lat="44.39566" lon="3.82215">
        <ele>1402.7</ele>
        <time>2017-05-17T12:50:05Z</time>
      </trkpt>
      <trkpt lat="44.39564" lon="3.82221">
        <ele>1402.7</ele>
        <time>2017-05-17T12:50:11Z</time>
      </trkpt>
      <trkpt lat="44.39563" lon="3.82221">
        <ele>1401.74</ele>
        <time>2017-05-17T12:50:22Z</time>
      </trkpt>
      <trkpt lat="44.39563" lon="3.82221">
        <ele>1402.7</ele>
        <time>2017-05-17T12:50:39Z</time>
      </trkpt>
      <trkpt lat="44.39564" lon="3.8222">
        <ele>1403.18</ele>
        <time>2017-05-17T12:51:02Z</time>
      </trkpt>
      <trkpt lat="44.39563" lon="3.82221">
        <ele>1400.3</ele>
        <time>2017-05-17T12:51:27Z</time>
      </trkpt>
      <trkpt lat="44.3956" lon="3.82217">
        <ele>1401.74</ele>
        <time>2017-05-17T12:51:52Z</time>
      </trkpt>
      <trkpt lat="44.39552" lon="3.82215">
        <ele>1401.74</ele>
        <time>2017-05-17T12:52:04Z</time>
      </trkpt>
      <trkpt lat="44.39552" lon="3.82215">
        <ele>1401.26</ele>
        <time>2017-05-17T12:52:05Z</time>
      </trkpt>
      <trkpt lat="44.39549" lon="3.82213">
        <ele>1400.78</ele>
        <time>2017-05-17T12:52:08Z</time>
      </trkpt>
      <trkpt lat="44.39541" lon="3.82207">
        <ele>1400.78</ele>
        <time>2017-05-17T12:52:16Z</time>
      </trkpt>
      <trkpt lat="44.39524" lon="3.82202">
        <ele>1400.3</ele>
        <time>2017-05-17T12:52:31Z</time>
      </trkpt>
      <trkpt lat="44.39522" lon="3.82202">
        <ele>1400.3</ele>
        <time>2017-05-17T12:52:33Z</time>
      </trkpt>
      <trkpt lat="44.39508" lon="3.82198">
        <ele>1400.3</ele>
        <time>2017-05-17T12:52:45Z</time>
      </trkpt>
      <trkpt lat="44.39501" lon="3.82198">
        <ele>1400.3</ele>
        <time>2017-05-17T12:52:51Z</time>
      </trkpt>
      <trkpt lat="44.39492" lon="3.822">
        <ele>1399.82</ele>
        <time>2017-05-17T12:53:01Z</time>
      </trkpt>
      <trkpt lat="44.39489" lon="3.82198">
        <ele>1398.37</ele>
        <time>2017-05-17T12:53:04Z</time>
      </trkpt>
      <trkpt lat="44.39487" lon="3.82198">
        <ele>1398.37</ele>
        <time>2017-05-17T12:53:06Z</time>
      </trkpt>
      <trkpt lat="44.3948" lon="3.82196">
        <ele>1398.37</ele>
        <time>2017-05-17T12:53:13Z</time>
      </trkpt>
      <trkpt lat="44.39469" lon="3.82207">
        <ele>1397.89</ele>
        <time>2017-05-17T12:53:28Z</time>
      </trkpt>
      <trkpt lat="44.39464" lon="3.82208">
        <ele>1399.34</ele>
        <time>2017-05-17T12:53:33Z</time>
      </trkpt>
      <trkpt lat="44.39463" lon="3.82208">
        <ele>1399.34</ele>
        <time>2017-05-17T12:53:34Z</time>
      </trkpt>
      <trkpt lat="44.39446" lon="3.82216">
        <ele>1397.89</ele>
        <time>2017-05-17T12:53:50Z</time>
      </trkpt>
      <trkpt lat="44.39443" lon="3.82217">
        <ele>1398.37</ele>
        <time>2017-05-17T12:53:54Z</time>
      </trkpt>
      <trkpt lat="44.39441" lon="3.8222">
        <ele>1400.3</ele>
        <time>2017-05-17T12:53:57Z</time>
      </trkpt>
      <trkpt lat="44.39438" lon="3.82221">
        <ele>1398.86</ele>
        <time>2017-05-17T12:54:00Z</time>
      </trkpt>
      <trkpt lat="44.39436" lon="3.8222">
        <ele>1398.86</ele>
        <time>2017-05-17T12:54:02Z</time>
      </trkpt>
      <trkpt lat="44.39428" lon="3.82223">
        <ele>1396.45</ele>
        <time>2017-05-17T12:54:10Z</time>
      </trkpt>
      <trkpt lat="44.39423" lon="3.82225">
        <ele>1395.01</ele>
        <time>2017-05-17T12:54:21Z</time>
      </trkpt>
      <trkpt lat="44.39422" lon="3.82224">
        <ele>1396.93</ele>
        <time>2017-05-17T12:54:23Z</time>
      </trkpt>
      <trkpt lat="44.39415" lon="3.82223">
        <ele>1395.01</ele>
        <time>2017-05-17T12:54:35Z</time>
      </trkpt>
      <trkpt lat="44.39406" lon="3.82226">
        <ele>1393.09</ele>
        <time>2017-05-17T12:54:46Z</time>
      </trkpt>
      <trkpt lat="44.39403" lon="3.82223">
        <ele>1393.09</ele>
        <time>2017-05-17T12:54:49Z</time>
      </trkpt>
      <trkpt lat="44.394" lon="3.82223">
        <ele>1394.05</ele>
        <time>2017-05-17T12:54:52Z</time>
      </trkpt>
      <trkpt lat="44.39398" lon="3.82221">
        <ele>1393.57</ele>
        <time>2017-05-17T12:54:54Z</time>
      </trkpt>
      <trkpt lat="44.39396" lon="3.82218">
        <ele>1393.09</ele>
        <time>2017-05-17T12:54:57Z</time>
      </trkpt>
      <trkpt lat="44.39389" lon="3.82213">
        <ele>1392.13</ele>
        <time>2017-05-17T12:55:08Z</time>
      </trkpt>
      <trkpt lat="44.39385" lon="3.82212">
        <ele>1393.57</ele>
        <time>2017-05-17T12:55:13Z</time>
      </trkpt>
      <trkpt lat="44.3938" lon="3.82212">
        <ele>1391.65</ele>
        <time>2017-05-17T12:55:17Z</time>
      </trkpt>
      <trkpt lat="44.39379" lon="3.82211">
        <ele>1392.13</ele>
        <time>2017-05-17T12:55:19Z</time>
      </trkpt>
      <trkpt lat="44.39375" lon="3.8221">
        <ele>1392.13</ele>
        <time>2017-05-17T12:55:22Z</time>
      </trkpt>
      <trkpt lat="44.3937" lon="3.82204">
        <ele>1391.65</ele>
        <time>2017-05-17T12:55:29Z</time>
      </trkpt>
      <trkpt lat="44.39367" lon="3.82202">
        <ele>1392.13</ele>
        <time>2017-05-17T12:55:32Z</time>
      </trkpt>
      <trkpt lat="44.39364" lon="3.82194">
        <ele>1392.61</ele>
        <time>2017-05-17T12:55:38Z</time>
      </trkpt>
      <trkpt lat="44.39357" lon="3.82182">
        <ele>1390.68</ele>
        <time>2017-05-17T12:55:47Z</time>
      </trkpt>
      <trkpt lat="44.39353" lon="3.82176">
        <ele>1390.68</ele>
        <time>2017-05-17T12:55:52Z</time>
      </trkpt>
      <trkpt lat="44.39341" lon="3.82157">
        <ele>1390.2</ele>
        <time>2017-05-17T12:56:07Z</time>
      </trkpt>
      <trkpt lat="44.39335" lon="3.82144">
        <ele>1390.2</ele>
        <time>2017-05-17T12:56:18Z</time>
      </trkpt>
      <trkpt lat="44.39335" lon="3.82142">
        <ele>1389.72</ele>
        <time>2017-05-17T12:56:19Z</time>
      </trkpt>
      <trkpt lat="44.3933" lon="3.82132">
        <ele>1387.8</ele>
        <time>2017-05-17T12:56:27Z</time>
      </trkpt>
      <trkpt lat="44.39322" lon="3.82114">
        <ele>1386.36</ele>
        <time>2017-05-17T12:56:42Z</time>
      </trkpt>
      <trkpt lat="44.3932" lon="3.82111">
        <ele>1387.8</ele>
        <time>2017-05-17T12:56:46Z</time>
      </trkpt>
      <trkpt lat="44.3932" lon="3.82107">
        <ele>1387.32</ele>
        <time>2017-05-17T12:56:49Z</time>
      </trkpt>
      <trkpt lat="44.39318" lon="3.82101">
        <ele>1385.88</ele>
        <time>2017-05-17T12:56:54Z</time>
      </trkpt>
      <trkpt lat="44.39318" lon="3.82094">
        <ele>1387.32</ele>
        <time>2017-05-17T12:57:01Z</time>
      </trkpt>
      <trkpt lat="44.39315" lon="3.82088">
        <ele>1385.4</ele>
        <time>2017-05-17T12:57:07Z</time>
      </trkpt>
      <trkpt lat="44.39307" lon="3.82083">
        <ele>1383.96</ele>
        <time>2017-05-17T12:57:19Z</time>
      </trkpt>
      <trkpt lat="44.39305" lon="3.82085">
        <ele>1383.96</ele>
        <time>2017-05-17T12:57:33Z</time>
      </trkpt>
      <trkpt lat="44.39305" lon="3.82085">
        <ele>1384.44</ele>
        <time>2017-05-17T12:57:37Z</time>
      </trkpt>
      <trkpt lat="44.39305" lon="3.8208">
        <ele>1382.99</ele>
        <time>2017-05-17T12:57:41Z</time>
      </trkpt>
      <trkpt lat="44.39305" lon="3.82074">
        <ele>1384.44</ele>
        <time>2017-05-17T12:57:44Z</time>
      </trkpt>
      <trkpt lat="44.39307" lon="3.82061">
        <ele>1382.51</ele>
        <time>2017-05-17T12:57:53Z</time>
      </trkpt>
      <trkpt lat="44.39308" lon="3.8205">
        <ele>1383.47</ele>
        <time>2017-05-17T12:58:00Z</time>
      </trkpt>
      <trkpt lat="44.39302" lon="3.82028">
        <ele>1382.51</ele>
        <time>2017-05-17T12:58:15Z</time>
      </trkpt>
      <trkpt lat="44.39299" lon="3.82025">
        <ele>1383.96</ele>
        <time>2017-05-17T12:58:19Z</time>
      </trkpt>
      <trkpt lat="44.39297" lon="3.82018">
        <ele>1383.47</ele>
        <time>2017-05-17T12:58:24Z</time>
      </trkpt>
      <trkpt lat="44.39296" lon="3.82013">
        <ele>1382.51</ele>
        <time>2017-05-17T12:58:27Z</time>
      </trkpt>
      <trkpt lat="44.39295" lon="3.8201">
        <ele>1382.03</ele>
        <time>2017-05-17T12:58:29Z</time>
      </trkpt>
      <trkpt lat="44.39297" lon="3.82001">
        <ele>1381.55</ele>
        <time>2017-05-17T12:58:35Z</time>
      </trkpt>
      <trkpt lat="44.39299" lon="3.81992">
        <ele>1381.55</ele>
        <time>2017-05-17T12:58:41Z</time>
      </trkpt>
      <trkpt lat="44.39299" lon="3.81985">
        <ele>1381.55</ele>
        <time>2017-05-17T12:58:45Z</time>
      </trkpt>
      <trkpt lat="44.393" lon="3.81976">
        <ele>1381.55</ele>
        <time>2017-05-17T12:58:52Z</time>
      </trkpt>
      <trkpt lat="44.39296" lon="3.81963">
        <ele>1382.03</ele>
        <time>2017-05-17T12:59:03Z</time>
      </trkpt>
      <trkpt lat="44.39296" lon="3.81956">
        <ele>1382.03</ele>
        <time>2017-05-17T12:59:08Z</time>
      </trkpt>
      <trkpt lat="44.39294" lon="3.81945">
        <ele>1381.07</ele>
        <time>2017-05-17T12:59:16Z</time>
      </trkpt>
      <trkpt lat="44.39293" lon="3.81938">
        <ele>1380.11</ele>
        <time>2017-05-17T12:59:21Z</time>
      </trkpt>
      <trkpt lat="44.39294" lon="3.81935">
        <ele>1382.03</ele>
        <time>2017-05-17T12:59:23Z</time>
      </trkpt>
      <trkpt lat="44.39294" lon="3.81928">
        <ele>1382.03</ele>
        <time>2017-05-17T12:59:29Z</time>
      </trkpt>
      <trkpt lat="44.39298" lon="3.81915">
        <ele>1380.59</ele>
        <time>2017-05-17T12:59:39Z</time>
      </trkpt>
      <trkpt lat="44.39299" lon="3.81907">
        <ele>1381.07</ele>
        <time>2017-05-17T12:59:47Z</time>
      </trkpt>
      <trkpt lat="44.39301" lon="3.81893">
        <ele>1381.07</ele>
        <time>2017-05-17T13:00:01Z</time>
      </trkpt>
      <trkpt lat="44.39301" lon="3.81893">
        <ele>1381.55</ele>
        <time>2017-05-17T13:00:16Z</time>
      </trkpt>
      <trkpt lat="44.393" lon="3.81885">
        <ele>1381.07</ele>
        <time>2017-05-17T13:00:29Z</time>
      </trkpt>
      <trkpt lat="44.393" lon="3.81886">
        <ele>1381.55</ele>
        <time>2017-05-17T13:00:37Z</time>
      </trkpt>
      <trkpt lat="44.393" lon="3.81886">
        <ele>1381.55</ele>
        <time>2017-05-17T13:00:38Z</time>
      </trkpt>
      <trkpt lat="44.39299" lon="3.81883">
        <ele>1380.59</ele>
        <time>2017-05-17T13:00:41Z</time>
      </trkpt>
      <trkpt lat="44.39298" lon="3.81873">
        <ele>1381.07</ele>
        <time>2017-05-17T13:00:48Z</time>
      </trkpt>
      <trkpt lat="44.39298" lon="3.81865">
        <ele>1380.11</ele>
        <time>2017-05-17T13:00:53Z</time>
      </trkpt>
      <trkpt lat="44.39298" lon="3.81861">
        <ele>1380.59</ele>
        <time>2017-05-17T13:00:55Z</time>
      </trkpt>
      <trkpt lat="44.39296" lon="3.81854">
        <ele>1378.67</ele>
        <time>2017-05-17T13:01:00Z</time>
      </trkpt>
      <trkpt lat="44.39296" lon="3.81851">
        <ele>1380.11</ele>
        <time>2017-05-17T13:01:02Z</time>
      </trkpt>
      <trkpt lat="44.39296" lon="3.81845">
        <ele>1381.07</ele>
        <time>2017-05-17T13:01:06Z</time>
      </trkpt>
      <trkpt lat="44.39297" lon="3.8184">
        <ele>1379.63</ele>
        <time>2017-05-17T13:01:09Z</time>
      </trkpt>
      <trkpt lat="44.39298" lon="3.81834">
        <ele>1380.59</ele>
        <time>2017-05-17T13:01:13Z</time>
      </trkpt>
      <trkpt lat="44.39296" lon="3.81829">
        <ele>1379.63</ele>
        <time>2017-05-17T13:01:17Z</time>
      </trkpt>
      <trkpt lat="44.39288" lon="3.81825">
        <ele>1377.71</ele>
        <time>2017-05-17T13:01:29Z</time>
      </trkpt>
      <trkpt lat="44.39285" lon="3.81825">
        <ele>1379.63</ele>
        <time>2017-05-17T13:01:33Z</time>
      </trkpt>
      <trkpt lat="44.39283" lon="3.81825">
        <ele>1378.19</ele>
        <time>2017-05-17T13:01:36Z</time>
      </trkpt>
      <trkpt lat="44.39275" lon="3.81823">
        <ele>1380.11</ele>
        <time>2017-05-17T13:01:49Z</time>
      </trkpt>
      <trkpt lat="44.39273" lon="3.81825">
        <ele>1381.07</ele>
        <time>2017-05-17T13:02:01Z</time>
      </trkpt>
      <trkpt lat="44.39266" lon="3.81829">
        <ele>1380.59</ele>
        <time>2017-05-17T13:02:14Z</time>
      </trkpt>
      <trkpt lat="44.39263" lon="3.8183">
        <ele>1380.59</ele>
        <time>2017-05-17T13:02:18Z</time>
      </trkpt>
      <trkpt lat="44.3926" lon="3.81829">
        <ele>1381.55</ele>
        <time>2017-05-17T13:02:21Z</time>
      </trkpt>
      <trkpt lat="44.39259" lon="3.81828">
        <ele>1381.55</ele>
        <time>2017-05-17T13:02:23Z</time>
      </trkpt>
      <trkpt lat="44.39257" lon="3.81828">
        <ele>1380.59</ele>
        <time>2017-05-17T13:02:25Z</time>
      </trkpt>
      <trkpt lat="44.39247" lon="3.81827">
        <ele>1380.11</ele>
        <time>2017-05-17T13:02:36Z</time>
      </trkpt>
      <trkpt lat="44.39237" lon="3.81826">
        <ele>1380.59</ele>
        <time>2017-05-17T13:02:45Z</time>
      </trkpt>
      <trkpt lat="44.39235" lon="3.81828">
        <ele>1380.59</ele>
        <time>2017-05-17T13:02:48Z</time>
      </trkpt>
      <trkpt lat="44.39231" lon="3.81828">
        <ele>1381.07</ele>
        <time>2017-05-17T13:02:52Z</time>
      </trkpt>
      <trkpt lat="44.39224" lon="3.81829">
        <ele>1380.11</ele>
        <time>2017-05-17T13:02:58Z</time>
      </trkpt>
      <trkpt lat="44.39212" lon="3.8183">
        <ele>1379.15</ele>
        <time>2017-05-17T13:03:09Z</time>
      </trkpt>
      <trkpt lat="44.3921" lon="3.81829">
        <ele>1378.67</ele>
        <time>2017-05-17T13:03:11Z</time>
      </trkpt>
      <trkpt lat="44.39197" lon="3.81834">
        <ele>1378.19</ele>
        <time>2017-05-17T13:03:23Z</time>
      </trkpt>
      <trkpt lat="44.39195" lon="3.81836">
        <ele>1378.19</ele>
        <time>2017-05-17T13:03:25Z</time>
      </trkpt>
      <trkpt lat="44.39191" lon="3.81837">
        <ele>1378.67</ele>
        <time>2017-05-17T13:03:28Z</time>
      </trkpt>
      <trkpt lat="44.39182" lon="3.81843">
        <ele>1377.23</ele>
        <time>2017-05-17T13:03:39Z</time>
      </trkpt>
      <trkpt lat="44.3918" lon="3.81848">
        <ele>1376.26</ele>
        <time>2017-05-17T13:03:44Z</time>
      </trkpt>
      <trkpt lat="44.3918" lon="3.81848">
        <ele>1376.26</ele>
        <time>2017-05-17T13:03:45Z</time>
      </trkpt>
      <trkpt lat="44.39172" lon="3.81856">
        <ele>1374.82</ele>
        <time>2017-05-17T13:03:58Z</time>
      </trkpt>
      <trkpt lat="44.3917" lon="3.81857">
        <ele>1375.3</ele>
        <time>2017-05-17T13:04:00Z</time>
      </trkpt>
      <trkpt lat="44.39167" lon="3.81864">
        <ele>1371.94</ele>
        <time>2017-05-17T13:04:11Z</time>
      </trkpt>
      <trkpt lat="44.3916" lon="3.81871">
        <ele>1370.02</ele>
        <time>2017-05-17T13:04:18Z</time>
      </trkpt>
      <trkpt lat="44.39158" lon="3.81871">
        <ele>1370.98</ele>
        <time>2017-05-17T13:04:25Z</time>
      </trkpt>
      <trkpt lat="44.39153" lon="3.81874">
        <ele>1370.5</ele>
        <time>2017-05-17T13:04:29Z</time>
      </trkpt>
      <trkpt lat="44.39151" lon="3.81875">
        <ele>1369.54</ele>
        <time>2017-05-17T13:04:32Z</time>
      </trkpt>
      <trkpt lat="44.39142" lon="3.81881">
        <ele>1369.54</ele>
        <time>2017-05-17T13:04:40Z</time>
      </trkpt>
      <trkpt lat="44.39131" lon="3.81888">
        <ele>1368.57</ele>
        <time>2017-05-17T13:04:51Z</time>
      </trkpt>
      <trkpt lat="44.39129" lon="3.8189">
        <ele>1369.05</ele>
        <time>2017-05-17T13:04:54Z</time>
      </trkpt>
      <trkpt lat="44.39116" lon="3.81897">
        <ele>1368.09</ele>
        <time>2017-05-17T13:05:06Z</time>
      </trkpt>
      <trkpt lat="44.39109" lon="3.81905">
        <ele>1368.09</ele>
        <time>2017-05-17T13:05:14Z</time>
      </trkpt>
      <trkpt lat="44.39101" lon="3.81911">
        <ele>1367.13</ele>
        <time>2017-05-17T13:05:23Z</time>
      </trkpt>
      <trkpt lat="44.39098" lon="3.81913">
        <ele>1367.13</ele>
        <time>2017-05-17T13:05:26Z</time>
      </trkpt>
      <trkpt lat="44.39094" lon="3.81915">
        <ele>1366.17</ele>
        <time>2017-05-17T13:05:30Z</time>
      </trkpt>
      <trkpt lat="44.39077" lon="3.81917">
        <ele>1367.61</ele>
        <time>2017-05-17T13:05:44Z</time>
      </trkpt>
      <trkpt lat="44.39075" lon="3.81917">
        <ele>1366.17</ele>
        <time>2017-05-17T13:05:46Z</time>
      </trkpt>
      <trkpt lat="44.39074" lon="3.81916">
        <ele>1365.69</ele>
        <time>2017-05-17T13:05:47Z</time>
      </trkpt>
      <trkpt lat="44.3907" lon="3.81917">
        <ele>1366.17</ele>
        <time>2017-05-17T13:05:51Z</time>
      </trkpt>
      <trkpt lat="44.39057" lon="3.81916">
        <ele>1366.17</ele>
        <time>2017-05-17T13:06:02Z</time>
      </trkpt>
      <trkpt lat="44.39052" lon="3.81918">
        <ele>1366.17</ele>
        <time>2017-05-17T13:06:07Z</time>
      </trkpt>
      <trkpt lat="44.3905" lon="3.81917">
        <ele>1366.65</ele>
        <time>2017-05-17T13:06:09Z</time>
      </trkpt>
      <trkpt lat="44.39041" lon="3.81919">
        <ele>1364.25</ele>
        <time>2017-05-17T13:06:18Z</time>
      </trkpt>
      <trkpt lat="44.39036" lon="3.81923">
        <ele>1364.73</ele>
        <time>2017-05-17T13:06:22Z</time>
      </trkpt>
      <trkpt lat="44.39032" lon="3.81929">
        <ele>1364.73</ele>
        <time>2017-05-17T13:06:28Z</time>
      </trkpt>
      <trkpt lat="44.39019" lon="3.81933">
        <ele>1363.77</ele>
        <time>2017-05-17T13:06:40Z</time>
      </trkpt>
      <trkpt lat="44.39009" lon="3.81932">
        <ele>1364.73</ele>
        <time>2017-05-17T13:06:52Z</time>
      </trkpt>
      <trkpt lat="44.39006" lon="3.81932">
        <ele>1365.21</ele>
        <time>2017-05-17T13:06:57Z</time>
      </trkpt>
      <trkpt lat="44.38992" lon="3.81932">
        <ele>1366.17</ele>
        <time>2017-05-17T13:07:09Z</time>
      </trkpt>
      <trkpt lat="44.38989" lon="3.81932">
        <ele>1366.17</ele>
        <time>2017-05-17T13:07:19Z</time>
      </trkpt>
      <trkpt lat="44.38987" lon="3.81933">
        <ele>1366.65</ele>
        <time>2017-05-17T13:07:21Z</time>
      </trkpt>
      <trkpt lat="44.38984" lon="3.81934">
        <ele>1365.69</ele>
        <time>2017-05-17T13:07:24Z</time>
      </trkpt>
      <trkpt lat="44.38976" lon="3.81935">
        <ele>1366.17</ele>
        <time>2017-05-17T13:07:32Z</time>
      </trkpt>
      <trkpt lat="44.3897" lon="3.81937">
        <ele>1362.81</ele>
        <time>2017-05-17T13:07:43Z</time>
      </trkpt>
      <trkpt lat="44.38969" lon="3.81936">
        <ele>1366.65</ele>
        <time>2017-05-17T13:07:44Z</time>
      </trkpt>
      <trkpt lat="44.38967" lon="3.81939">
        <ele>1362.81</ele>
        <time>2017-05-17T13:07:49Z</time>
      </trkpt>
      <trkpt lat="44.38966" lon="3.81939">
        <ele>1364.25</ele>
        <time>2017-05-17T13:07:50Z</time>
      </trkpt>
      <trkpt lat="44.38962" lon="3.81941">
        <ele>1362.81</ele>
        <time>2017-05-17T13:07:55Z</time>
      </trkpt>
      <trkpt lat="44.38962" lon="3.81942">
        <ele>1362.33</ele>
        <time>2017-05-17T13:07:56Z</time>
      </trkpt>
      <trkpt lat="44.38953" lon="3.81943">
        <ele>1360.88</ele>
        <time>2017-05-17T13:08:06Z</time>
      </trkpt>
      <trkpt lat="44.38943" lon="3.81942">
        <ele>1360.88</ele>
        <time>2017-05-17T13:08:18Z</time>
      </trkpt>
      <trkpt lat="44.3894" lon="3.81943">
        <ele>1358</ele>
        <time>2017-05-17T13:08:25Z</time>
      </trkpt>
      <trkpt lat="44.38939" lon="3.81944">
        <ele>1360.88</ele>
        <time>2017-05-17T13:08:27Z</time>
      </trkpt>
      <trkpt lat="44.38932" lon="3.81941">
        <ele>1358.48</ele>
        <time>2017-05-17T13:08:36Z</time>
      </trkpt>
      <trkpt lat="44.38931" lon="3.81941">
        <ele>1358</ele>
        <time>2017-05-17T13:08:38Z</time>
      </trkpt>
      <trkpt lat="44.38927" lon="3.81939">
        <ele>1358.96</ele>
        <time>2017-05-17T13:08:52Z</time>
      </trkpt>
      <trkpt lat="44.38926" lon="3.81939">
        <ele>1358.96</ele>
        <time>2017-05-17T13:09:06Z</time>
      </trkpt>
      <trkpt lat="44.38926" lon="3.81939">
        <ele>1358.48</ele>
        <time>2017-05-17T13:09:32Z</time>
      </trkpt>
      <trkpt lat="44.38922" lon="3.81934">
        <ele>1358</ele>
        <time>2017-05-17T13:09:50Z</time>
      </trkpt>
      <trkpt lat="44.3891" lon="3.81929">
        <ele>1358</ele>
        <time>2017-05-17T13:10:03Z</time>
      </trkpt>
      <trkpt lat="44.38906" lon="3.81929">
        <ele>1358.48</ele>
        <time>2017-05-17T13:10:08Z</time>
      </trkpt>
      <trkpt lat="44.389" lon="3.81926">
        <ele>1357.52</ele>
        <time>2017-05-17T13:10:20Z</time>
      </trkpt>
      <trkpt lat="44.38897" lon="3.81924">
        <ele>1354.63</ele>
        <time>2017-05-17T13:10:26Z</time>
      </trkpt>
      <trkpt lat="44.38882" lon="3.81921">
        <ele>1356.08</ele>
        <time>2017-05-17T13:10:38Z</time>
      </trkpt>
      <trkpt lat="44.38875" lon="3.81919">
        <ele>1355.12</ele>
        <time>2017-05-17T13:10:46Z</time>
      </trkpt>
      <trkpt lat="44.38862" lon="3.81916">
        <ele>1354.63</ele>
        <time>2017-05-17T13:11:00Z</time>
      </trkpt>
      <trkpt lat="44.38855" lon="3.8191">
        <ele>1355.12</ele>
        <time>2017-05-17T13:11:11Z</time>
      </trkpt>
      <trkpt lat="44.38853" lon="3.81911">
        <ele>1354.63</ele>
        <time>2017-05-17T13:11:13Z</time>
      </trkpt>
      <trkpt lat="44.3885" lon="3.81913">
        <ele>1355.6</ele>
        <time>2017-05-17T13:11:20Z</time>
      </trkpt>
      <trkpt lat="44.38848" lon="3.81912">
        <ele>1354.63</ele>
        <time>2017-05-17T13:11:25Z</time>
      </trkpt>
      <trkpt lat="44.38845" lon="3.81911">
        <ele>1355.12</ele>
        <time>2017-05-17T13:11:33Z</time>
      </trkpt>
      <trkpt lat="44.38842" lon="3.81913">
        <ele>1352.71</ele>
        <time>2017-05-17T13:11:40Z</time>
      </trkpt>
      <trkpt lat="44.3884" lon="3.81914">
        <ele>1354.63</ele>
        <time>2017-05-17T13:11:43Z</time>
      </trkpt>
      <trkpt lat="44.38835" lon="3.81914">
        <ele>1353.19</ele>
        <time>2017-05-17T13:11:55Z</time>
      </trkpt>
      <trkpt lat="44.38828" lon="3.81915">
        <ele>1353.19</ele>
        <time>2017-05-17T13:12:06Z</time>
      </trkpt>
      <trkpt lat="44.38823" lon="3.81916">
        <ele>1352.71</ele>
        <time>2017-05-17T13:12:13Z</time>
      </trkpt>
      <trkpt lat="44.38816" lon="3.81918">
        <ele>1352.71</ele>
        <time>2017-05-17T13:12:25Z</time>
      </trkpt>
      <trkpt lat="44.38816" lon="3.81918">
        <ele>1356.08</ele>
        <time>2017-05-17T13:12:28Z</time>
      </trkpt>
      <trkpt lat="44.38816" lon="3.81917">
        <ele>1352.71</ele>
        <time>2017-05-17T13:12:30Z</time>
      </trkpt>
      <trkpt lat="44.38814" lon="3.81917">
        <ele>1350.31</ele>
        <time>2017-05-17T13:12:33Z</time>
      </trkpt>
      <trkpt lat="44.38806" lon="3.81917">
        <ele>1350.79</ele>
        <time>2017-05-17T13:12:42Z</time>
      </trkpt>
      <trkpt lat="44.388" lon="3.81917">
        <ele>1352.71</ele>
        <time>2017-05-17T13:12:48Z</time>
      </trkpt>
      <trkpt lat="44.38798" lon="3.81915">
        <ele>1351.27</ele>
        <time>2017-05-17T13:12:50Z</time>
      </trkpt>
      <trkpt lat="44.38791" lon="3.81916">
        <ele>1351.75</ele>
        <time>2017-05-17T13:12:56Z</time>
      </trkpt>
      <trkpt lat="44.38789" lon="3.81917">
        <ele>1350.79</ele>
        <time>2017-05-17T13:12:59Z</time>
      </trkpt>
      <trkpt lat="44.38783" lon="3.81915">
        <ele>1350.31</ele>
        <time>2017-05-17T13:13:05Z</time>
      </trkpt>
      <trkpt lat="44.38777" lon="3.81914">
        <ele>1351.75</ele>
        <time>2017-05-17T13:13:14Z</time>
      </trkpt>
      <trkpt lat="44.38773" lon="3.81915">
        <ele>1351.75</ele>
        <time>2017-05-17T13:13:17Z</time>
      </trkpt>
      <trkpt lat="44.38768" lon="3.81913">
        <ele>1350.79</ele>
        <time>2017-05-17T13:13:25Z</time>
      </trkpt>
      <trkpt lat="44.38762" lon="3.81913">
        <ele>1350.79</ele>
        <time>2017-05-17T13:13:32Z</time>
      </trkpt>
      <trkpt lat="44.38747" lon="3.81912">
        <ele>1350.79</ele>
        <time>2017-05-17T13:13:44Z</time>
      </trkpt>
      <trkpt lat="44.38739" lon="3.81909">
        <ele>1350.31</ele>
        <time>2017-05-17T13:13:56Z</time>
      </trkpt>
      <trkpt lat="44.38739" lon="3.81909">
        <ele>1350.31</ele>
        <time>2017-05-17T13:14:15Z</time>
      </trkpt>
      <trkpt lat="44.38739" lon="3.81907">
        <ele>1349.83</ele>
        <time>2017-05-17T13:14:40Z</time>
      </trkpt>
      <trkpt lat="44.38736" lon="3.81904">
        <ele>1349.35</ele>
        <time>2017-05-17T13:14:52Z</time>
      </trkpt>
      <trkpt lat="44.3873" lon="3.81901">
        <ele>1348.87</ele>
        <time>2017-05-17T13:15:03Z</time>
      </trkpt>
      <trkpt lat="44.38727" lon="3.81898">
        <ele>1348.39</ele>
        <time>2017-05-17T13:15:06Z</time>
      </trkpt>
      <trkpt lat="44.38725" lon="3.81898">
        <ele>1349.35</ele>
        <time>2017-05-17T13:15:08Z</time>
      </trkpt>
      <trkpt lat="44.38722" lon="3.81897">
        <ele>1347.91</ele>
        <time>2017-05-17T13:15:12Z</time>
      </trkpt>
      <trkpt lat="44.38716" lon="3.81889">
        <ele>1347.91</ele>
        <time>2017-05-17T13:15:19Z</time>
      </trkpt>
      <trkpt lat="44.38703" lon="3.81887">
        <ele>1346.94</ele>
        <time>2017-05-17T13:15:31Z</time>
      </trkpt>
      <trkpt lat="44.3869" lon="3.81889">
        <ele>1346.46</ele>
        <time>2017-05-17T13:15:44Z</time>
      </trkpt>
      <trkpt lat="44.38693" lon="3.81884">
        <ele>1347.43</ele>
        <time>2017-05-17T13:15:58Z</time>
      </trkpt>
      <trkpt lat="44.38693" lon="3.81883">
        <ele>1347.43</ele>
        <time>2017-05-17T13:16:10Z</time>
      </trkpt>
      <trkpt lat="44.38688" lon="3.81887">
        <ele>1347.43</ele>
        <time>2017-05-17T13:16:17Z</time>
      </trkpt>
      <trkpt lat="44.38685" lon="3.81887">
        <ele>1346.94</ele>
        <time>2017-05-17T13:16:30Z</time>
      </trkpt>
      <trkpt lat="44.38685" lon="3.81888">
        <ele>1346.94</ele>
        <time>2017-05-17T13:16:47Z</time>
      </trkpt>
      <trkpt lat="44.38685" lon="3.81888">
        <ele>1346.94</ele>
        <time>2017-05-17T13:17:01Z</time>
      </trkpt>
      <trkpt lat="44.38685" lon="3.81888">
        <ele>1347.43</ele>
        <time>2017-05-17T13:17:17Z</time>
      </trkpt>
    </trkseg>
  </trk>
</gpx>